     2.11           OBSERVATION DATA    G (GPS)             RINEX VERSION / TYPE
teqc 2010Oct21 OPUS Account 20111027 17:14:20UTC            PGM / RUN BY / DATE
K 1525                                                      MARKER NAME
3014                                                        MARKER NUMBER
CSMIDDLETON NGS                                             OBSERVER / AGENCY
4624K01615 TRIMBLE NETR5 4.41                               REC # / TYPE / VERS
12338145 TRM41249.00 NONE                                   ANT # / TYPE
  -763315.9901 -5547681.7974  3042995.1952                  APPROX POSITION XYZ
        2.0000        0.0000        0.0000                  ANTENNA: DELTA H/E/N
     1     1                                                WAVELENGTH FACT L1/2
     5    L1    L2    C1    P1    P2                        # / TYPES OF OBSERV
    15                                                      LEAP SECONDS
  2011     8    17     0     0    0.0000000     GPS         TIME OF FIRST OBS
                                                            END OF HEADER
 11  8 17  0  0  0.0000000  0  8G17G10G12G04G05G09G02G28
 118635299.20417  92443148.42017  22575520.625                    22575528.824
 111178546.49618  86632761.61356  21156550.359                    21156558.383
 117337111.52817  91431558.87817  22328506.289                    22328513.590
 109379292.80018  85230738.96756  20814151.703                    20814159.816
 122008035.63217  95071277.23416  23217346.570                    23217357.551
 119713847.07116  93283759.92554  22780831.945                    22780841.215
 109003278.93918  84937606.30156  20742563.055                    20742568.656
 126650939.63716  98689064.64553  24100881.945                    24100893.418
 11  8 17  0  0 30.0000000  0  8G17G10G12G04G05G09G02G28
 118679247.041 7  92477393.464 7  22583884.047                    22583891.465
 111138668.294 8  86601687.72946  21148962.344                    21148970.313
 117254631.902 7  91367289.072 7  22312811.141                    22312818.164
 109442315.765 8  85279847.75346  20826144.875                    20826152.664
 121904559.395 7  94990646.600 6  23197655.563                    23197666.055
 119774351.677 7  93330906.31044  22792345.844                    22792355.211
 108981869.497 8  84920923.66546  20738489.078                    20738494.301
 126750876.567 6  98766937.36343  24119899.836                    24119911.355
 11  8 17  0  1  0.0000000  0  8G17G10G12G04G05G09G02G28
 118723310.828 7  92511728.843 7  22592268.641                    22592277.199
 111099342.028 8  86571043.92446  21141478.578                    21141486.969
 117172417.689 7  91303226.085 7  22297166.031                    22297173.258
 109505622.973 8  85329178.01646  20838191.617                    20838199.641
 121801192.330 7  94910101.039 6  23177985.156                    23177995.879
 119835240.464 7  93378352.06444  22803932.211                    22803941.809
 108960810.885 8  84904514.38646  20734481.742                    20734486.766
 126851025.301 6  98844975.11043  24138957.641                    24138969.676
 11  8 17  0  1 30.0000000  0  8G17G10G12G04G05G09G02G28
 118767491.227 7  92546155.075 7  22600676.328                    22600684.199
 111060569.623 8  86540831.70346  21134100.328                    21134108.578
 117090471.438 7  91239371.901 7  22281571.805                    22281579.578
 109569211.924 8  85378727.83446  20850292.336                    20850300.270
 121697937.436 7  94829642.869 6  23158336.023                    23158346.914
 119896510.102 7  93426094.60044  22815591.305                    22815601.629
 108940102.422 8  84888377.96346  20730540.906                    20730546.082
 126951383.922 6  98923176.41443  24158055.328                    24158066.832
 11  8 17  0  2  0.0000000  0  8G17G10G12G04G05G09G02G28
 118811788.594 7  92580672.466 7  22609105.781                    22609113.789
 111022353.128 8  86511052.64046  21126828.227                    21126836.090
 117008795.671 7  91175728.492 7  22266029.742                    22266037.340
 109633080.145 8  85428495.27146  20862446.008                    20862454.191
 121594797.392 7  94749274.200 6  23138709.328                    23138719.699
 119958157.396 7  93474131.38644  22827322.227                    22827331.910
 108919743.085 8  84872513.58846  20726666.406                    20726672.086
 127051950.388 6  99001539.59543  24177193.266                    24177204.504
 11  8 17  0  2 30.0000000  0  8G17G10G12G04G05G09G02G28
 118856204.119 7  92615281.948 7  22617557.672                    22617565.727
 110984695.427 8  86481709.02546  21119661.820                    21119670.121
 116927393.402 7  91112298.188 7  22250539.156                    22250546.332
 109697225.774 8  85478478.86446  20874652.633                    20874660.867
 121491775.754 7  94668997.796 6  23119104.656                    23119115.203
 120020179.438 7  93522460.19244  22839125.656                    22839134.375
 108899732.906 8  84856921.27646  20722858.672                    20722863.996
 127152722.922 6  99080063.46443  24196369.211                    24196381.168
 11  8 17  0  3  0.0000000  0  8G17G10G12G04G05G09G02G28
 118900737.951 7  92649983.604 7  22626031.867                    22626039.875
 110947597.753 8  86452801.77746  21112602.375                    21112610.352
 116846266.996 7  91049082.831 7  22235101.211                    22235108.641
 109761645.951 8  85528676.37846  20886911.234                    20886918.762
 121388875.117 7  94588815.645 6  23099523.594                    23099533.234
 120082572.748 7  93571078.30744  22850998.195                    22851008.328
 108880070.813 8  84841600.19746  20719116.883                    20719122.375
 127253699.456 6  99158746.25043  24215584.328                    24215596.871
 11  8 17  0  3 30.0000000  0  8G17G10G12G04G05G09G02G28
 118945390.675 7  92684777.915 7  22634529.648                    22634537.637
 110911061.779 8  86424332.22046  21105650.055                    21105657.902
 116765418.784 7  90986084.258 7  22219716.203                    22219723.887
 109826338.464 8  85579086.10746  20899221.617                    20899229.594
 121286098.110 7  94508729.853 6  23079964.953                    23079975.902
 120145333.992 6  93619983.11444  22862941.164                    22862951.637
 108860755.704 8  84826549.49146  20715441.141                    20715446.914
 127354877.707 6  99237586.18043  24234838.219                    24234850.859
 11  8 17  0  4  0.0000000  0  8G17G10G12G04G05G09G02G28
 118990163.212 7  92719665.581 7  22643049.086                    22643057.219
 110875089.862 8  86396302.18746  21098804.164                    21098812.832
 116684851.615 7  90923304.670 7  22204384.758                    22204392.352
 109891300.764 8  85629706.07446  20911583.969                    20911591.461
 121183448.060 7  94428742.949 7  23060431.672                    23060441.559
 120208460.011 7  93669172.16944  22874953.500                    22874963.441
 108841787.278 8  84811768.92846  20711831.461                    20711837.266
 127456255.669 6  99316581.72742  24254129.922                    24254142.453
 11  8 17  0  4 30.0000000  0  8G17G10G12G04G05G09G02G28
 119035056.643 7  92754647.446 7  22651592.172                    22651599.852
 110839684.244 8  86368713.42746  21092067.289                    21092075.488
 116604568.384 7  90860746.362 7  22189107.461                    22189115.051
 109956531.236 8  85680535.00446  20923996.219                    20924004.125
 121080928.330 7  94348857.626 7  23040922.602                    23040932.590
 120271948.009 7  93718643.24144  22887035.469                    22887045.383
 108823165.650 8  84797258.58546  20708288.094                    20708293.344
 127557831.848 6  99395731.79343  24273459.930                    24273472.555
 11  8 17  0  5  0.0000000  0  8G17G10G12G04G05G09G02G28
 119080070.527 7  92789723.173 7  22660158.039                    22660166.234
 110804846.542 8  86341567.19146  21085437.672                    21085445.652
 116524571.407 7  90798411.074 7  22173884.766                    22173892.000
 110022027.285 8  85731570.86346  20936460.320                    20936468.117
 120978541.349 7  94269075.732 7  23021439.102                    23021449.309
 120335794.901 7  93768394.00244  22899184.648                    22899194.715
 108804889.562 8  84783017.51946  20704809.844                    20704815.238
 127659604.479 6  99475034.86542  24292826.305                    24292838.590
 11  8 17  0  5 30.0000000  0  8G17G10G12G04G05G09G02G28
 119125205.887 7  92824893.554 7  22668747.273                    22668754.879
 110770578.375 8  86314864.75246  21078916.664                    21078924.922
 116444863.060 7  90736300.722 7  22158716.633                    22158723.551
 110087785.928 8  85782811.34346  20948973.641                    20948981.633
 120876290.192 7  94189399.648 6  23001981.086                    23001990.840
 120399996.908 7  93818421.47044  22911402.406                    22911412.625
 108786957.748 8  84769044.68546  20701398.133                    20701403.641
 127761571.153 6  99554489.25842  24312229.930                    24312242.305
 11  8 17  0  6  0.0000000  0  7G17G10G12G04G05G09G02
 119170464.965 7  92860160.335 7  22677360.016                    22677367.875
 110736883.038 8  86288608.67146  21072504.570                    21072512.863
 116365447.623 7  90674418.616 7  22143603.781                    22143611.695
 110153806.778 8  85834256.14646  20961536.992                    20961545.004
 120774179.414 7  94109832.972 6  22982549.805                    22982559.457
 120464552.281 7  93868724.29744  22923687.039                    22923696.883
 108769371.251 8  84755340.94546  20698051.430                    20698056.875
 11  8 17  0  6 30.0000000  0  7G17G10G12G04G05G09G02
 119215846.654 7  92895522.683 7  22685995.195                    22686003.379
 110703760.852 8  86262799.19846  21066201.391                    21066209.680
 116286325.942 7  90612765.395 7  22128547.891                    22128555.656
 110220085.515 8  85885901.89646  20974149.359                    20974157.211
 120672210.493 7  94030376.824 7  22963145.609                    22963155.656
 120529455.915 7  93919298.49944  22936037.820                    22936047.379
 108752127.498 8  84741904.26946  20694770.039                    20694775.508
 11  8 17  0  7  0.0000000  0  7G17G10G12G04G05G09G02
 119261351.472 7  92930980.925 7  22694654.672                    22694662.801
 110671213.818 8  86237437.91246  21060007.766                    21060016.473
 116207500.983 7  90551343.401 7  22113547.953                    22113554.848
 110286620.161 8  85937747.05846  20986810.234                    20986818.664
 120570386.123 7  93951033.315 7  22943769.063                    22943779.164
 120594704.945 6  93970141.82944  22948454.461                    22948464.117
 108735226.043 8  84728734.32046  20691553.570                    20691559.102
 11  8 17  0  7 30.0000000  0  7G17G10G12G04G05G09G02
 119306980.270 7  92966535.838 7  22703337.656                    22703345.984
 110639243.436 8  86212525.95546  21053924.172                    21053932.773
 116128974.996 7  90490154.363 7  22098605.148                    22098612.141
 110353408.238 8  85989789.69846  20999520.047                    20999527.977
 120468709.189 7  93871804.684 7  22924420.438                    22924430.797
 120660295.787 7  94021251.48744  22960936.234                    22960946.387
 108718665.839 8  84715830.28346  20688402.563                    20688407.738
 11  8 17  0  8  0.0000000  0  7G17G10G12G04G05G09G02
 119352733.578 7  93002187.731 7  22712044.133                    22712052.070
 110607851.563 7  86188064.79646  21047950.672                    21047958.594
 116050750.656 7  90429200.363 7  22083719.344                    22083726.625
 110420447.556 8  86042028.10846  21012277.305                    21012285.379
 120367183.213 7  93792693.704 7  22905100.281                    22905110.652
 120726225.508 7  94072625.22344  22973481.836                    22973491.750
 108702446.486 8  84703191.84346  20685316.086                    20685321.875
 11  8 17  0  8 30.0000000  0  7G17G10G12G04G05G09G02
 119398611.748 7  93037936.932 7  22720775.055                    22720783.199
 110577039.225 8  86164055.21446  21042087.305                    21042095.414
 115972830.519 7  90368483.417 7  22068891.938                    22068899.000
 110487735.424 8  86094460.20946  21025081.289                    21025089.660
 120265810.859 7  93713702.401 7  22885810.031                    22885819.707
 120792490.440 7  94124260.14944  22986091.961                    22986101.645
 108686566.847 8  84690818.12146  20682294.461                    20682299.566
 11  8 17  0  9  0.0000000  0  7G17G10G12G04G05G09G02
 119444615.861 7  93073784.276 7  22729529.297                    22729536.988
 110546809.120 8  86140499.33346  21036334.633                    21036343.047
 115895217.443 7  90308005.732 7  22054122.617                    22054129.516
 110555270.100 8  86147084.59846  21037933.102                    21037941.117
 120164595.386 7  93634833.337 7  22866549.000                    22866558.773
 120859087.840 7  94176154.15544  22998764.781                    22998775.258
 108671026.709 8  84678708.92746  20679336.977                    20679342.711
 11  8 17  0  9 30.0000000  0  7G17G10G12G04G05G09G02
 119490746.546 7  93109730.235 7  22738307.758                    22738315.723
 110517162.670 8  86117398.22546  21030693.141                    21030700.789
 115817913.782 7  90247769.174 7  22039411.477                    22039419.789
 110623048.997 8  86199899.30346  21050830.953                    21050838.883
 120063539.257 7  93556088.435 7  22847318.391                    22847328.555
 120926014.082 7  94228304.41544  23011500.484                    23011510.414
 108655824.790 8  84666863.28346  20676444.398                    20676449.813
 11  8 17  0 10  0.0000000  0  8G17G10G12G04G05G30G09G02
 119537003.905 7  93145774.905 6  22747109.969                    22747117.516
 110488100.828 8  86094752.68046  21025162.820                    21025170.563
 115740921.880 7  90187775.516 7  22024760.969                    22024768.035
 110691069.433 8  86252902.21446  21063775.008                    21063782.984
 119962645.511 7  93477470.086 7  22828119.227                    22828129.340
 128016551.68816  99753165.89453  24360733.391                    24360743.113
 120993265.571 7  94280708.11744  23024297.875                    23024308.051
 108640959.843 8  84655280.22246  20673615.563                    20673620.953
 11  8 17  0 10 30.0000000  0  8G17G10G12G04G05G30G09G02
 119583389.114 7  93181919.192 7  22755936.375                    22755944.891
 110459625.839 8  86072564.41046  21019743.836                    21019752.129
 115664244.677 7  90128027.076 7  22010169.773                    22010176.828
 110759329.560 8  86306091.91346  21076764.523                    21076772.176
 119861917.579 7  93398980.926 7  22808950.922                    22808961.375
 127910582.048 6  99670592.17443  24340568.234                    24340577.629
 121060839.520 7  94333363.03544  23037157.430                    23037167.086
 108626431.864 8  84643959.72346  20670850.969                    20670856.266
 11  8 17  0 11  0.0000000  0  8G17G10G12G04G05G30G09G02
 119629902.776 7  93218163.562 7  22764788.047                    22764796.227
 110431739.201 8  86050834.60046  21014437.102                    21014445.434
 115587884.635 7  90068525.802 7  21995638.445                    21995646.086
 110827827.040 8  86359466.56146  21089798.898                    21089806.652
 119761357.921 7  93320622.903 7  22789815.648                    22789825.289
 127804770.899 5  99588142.01542  24320431.789                    24320442.480
 121128732.549 7  94386266.62944  23050076.594                    23050086.770
 108612239.719 8  84632900.93046  20668150.063                    20668155.762
 11  8 17  0 11 30.0000000  0  8G17G10G12G04G05G30G09G02
 119676545.108 7  93254508.209 7  22773663.750                    22773671.973
 110404442.557 8  86029564.52346  21009242.797                    21009250.930
 115511844.770 7  90009273.986 7  21981168.570                    21981176.352
 110896559.691 8  86413024.45046  21102878.648                    21102886.621
 119660970.320 7  93242398.934 7  22770711.633                    22770721.934
 127699121.245 6  99505817.79642  24300327.945                    24300338.020
 121196941.328 7  94439416.26744  23063056.867                    23063066.848
 108598382.821 8  84622103.34046  20665513.375                    20665518.367
 11  8 17  0 12  0.0000000  0  8G17G10G12G04G05G30G09G02
 119723317.084 7  93290953.890 7  22782564.219                    22782572.176
 110377737.577 8  86008755.47446  21004161.359                    21004169.359
 115436127.457 7  89950273.510 7  21966760.109                    21966767.785
 110965525.265 8  86466763.84546  21116002.000                    21116009.934
 119560757.685 7  93164311.296 7  22751641.844                    22751652.020
 127593635.780 6  99423621.39442  24280254.742                    24280264.395
 121265462.778 7  94492809.52144  23076095.930                    23076105.648
 108584860.503 8  84611566.47946  20662940.172                    20662945.340
 11  8 17  0 12 30.0000000  0  8G17G10G12G04G05G30G09G02
 119770219.377 7  93327501.108 7  22791489.211                    22791498.164
 110351625.370 8  85988408.33046  20999192.070                    20999199.910
 115360735.107 7  89891526.259 7  21952413.547                    21952420.688
 111034721.230 8  86520682.76946  21129169.531                    21129178.023
 119460722.361 7  93086361.851 7  22732605.625                    22732615.789
 127488317.061 6  99341554.97842  24260213.398                    24260222.941
 121334293.150 7  94546443.50244  23089193.695                    23089203.652
 108571671.485 8  84601289.32046  20660430.305                    20660435.945
 11  8 17  0 13  0.0000000  0  8G17G10G12G04G05G30G09G02
 119817251.983 7  93364149.867 7  22800439.266                    22800447.645
 110326107.145 8  85968524.02946  20994335.820                    20994344.262
 115285670.219 7  89833034.162 7  21938128.875                    21938136.297
 111104144.692 8  86574778.95246  21142380.406                    21142388.531
 119360867.168 7  93008552.730 7  22713603.906                    22713614.004
 127383167.156 6  99259620.11343  24240203.883                    24240213.395
 121403428.698 7  94600315.28344  23102350.258                    23102360.332
 108558814.233 8  84591270.68646  20657983.578                    20657989.406
 11  8 17  0 13 30.0000000  0  8G17G10G12G04G05G30G09G02
 119864416.178 7  93400901.179 7  22809414.594                    22809422.770
 110301185.116 8  85949104.29845  20989593.906                    20989601.605
 115210935.552 8  89774799.357 7  21923907.688                    21923915.109
 111173794.344 8  86629051.39846  21155634.266                    21155642.582
 119261195.906 7  92930886.946 7  22694636.906                    22694646.438
 127278189.812 6  99177819.64143  24220227.750                    24220236.559
 121472866.628 6  94654422.68944  23115563.906                    23115573.547
 108546288.881 8  84581510.66746  20655599.922                    20655605.621
 11  8 17  0 14  0.0000000  0  8G17G10G12G04G05G30G09G02
 119911712.546 7  93437755.471 7  22818414.539                    22818423.105
 110276860.513 8  85930150.09646  20984964.539                    20984972.957
 115136533.367 8  89716823.653 7  21909749.586                    21909756.500
 111243667.539 8  86683498.02546  21168931.117                    21168939.094
 119161711.397 7  92853366.682 7  22675705.523                    22675715.242
 127173387.232 6  99096155.37943  24200284.289                    24200293.207
 121542603.500 6  94708763.03544  23128833.313                    23128844.121
 108534094.136 8  84572008.28246  20653279.797                    20653284.680
 11  8 17  0 14 30.0000000  0  8G17G10G12G04G05G30G09G02
 119959141.564 7  93474713.110 7  22827439.984                    22827448.781
 110253134.388 8  85911662.23046  20980449.758                    20980457.523
 115062466.506 8  89659109.224 7  21895654.891                    21895662.059
 111313762.166 8  86738117.19746  21182270.008                    21182277.602
 119062416.753 7  92775994.345 7  22656810.422                    22656820.109
 127068762.445 6  99014629.62043  24180374.289                    24180383.363
 121612635.817 6  94763333.59944  23142160.375                    23142171.129
 108522229.372 8  84562763.01446  20651021.797                    20651026.969
 11  8 17  0 15  0.0000000  0  8G17G10G12G04G05G30G09G02
 120006704.036 7  93511774.752 7  22836491.484                    22836499.641
 110230008.328 8  85893641.94446  20976049.039                    20976057.250
 114988737.498 8  89601658.061 7  21881624.961                    21881631.980
 111384075.800 8  86792907.02246  21195649.656                    21195658.027
 118963314.465 7  92698771.935 7  22637951.828                    22637961.355
 126964318.255 6  98933244.58843  24160499.922                    24160508.250
 121682960.489 6  94818131.98144  23155542.930                    23155553.094
 108510693.673 8  84553774.17046  20648826.859                    20648832.133
 11  8 17  0 15 30.0000000  0  8G17G10G12G04G05G30G09G02
 120054400.348 7  93548940.686 7  22845567.742                    22845575.684
 110207483.437 8  85876090.10946  20971762.695                    20971770.383
 114915349.014 7  89544472.252 7  21867659.242                    21867666.469
 111454606.105 8  86847865.69946  21209071.313                    21209079.195
 118864407.738 7  92621701.865 7  22619130.523                    22619139.711
 126860057.135 6  98852002.24043  24140659.688                    24140669.086
 121753573.995 6  94873155.41344  23168980.445                    23168990.438
 108499486.020 8  84545040.93546  20646694.047                    20646699.020
 11  8 17  0 16  0.0000000  0  8G17G10G12G04G05G30G09G02
 120102231.355 7  93586211.554 6  22854669.813                    22854677.488
 110185561.336 8  85859007.98346  20967591.172                    20967598.699
 114842303.811 8  89487553.915 7  21853759.508                    21853766.633
 111525351.333 8  86902991.83346  21222533.688                    21222541.730
 118765699.638 7  92544786.602 7  22600346.922                    22600356.121
 126755982.164 6  98770904.92143  24120853.508                    24120863.469
 121824473.119 7  94928401.40744  23182472.070                    23182482.430
 108488605.955 8  84536562.98246  20644623.227                    20644628.773
 11  8 17  0 16 30.0000000  0  8G17G10G12G04G05G30G09G02
 120150197.566 7  93623587.789 7  22863796.758                    22863805.398
 110164243.343 8  85842396.57546  20963534.352                    20963542.000
 114769604.247 7  89430904.913 7  21839925.180                    21839932.625
 111596308.790 8  86958283.34545  21236036.156                    21236044.566
 118667193.206 7  92468028.444 7  22581601.313                    22581610.582
 126652096.061 6  98689954.76444  24101085.250                    24101094.207
 121895654.382 6  94983867.23944  23196017.688                    23196027.801
 108478052.203 8  84528339.28546  20642615.320                    20642620.457
 11  8 17  0 17  0.0000000  0  8G17G10G12G04G05G30G09G02
 120198299.551 7  93661069.814 7  22872950.758                    22872958.609
 110143530.515 8  85826256.74446  20959592.773                    20959600.645
 114697252.750 7  89374527.143 7  21826156.602                    21826164.242
 111667476.134 8  87013738.40346  21249579.070                    21249586.988
 118568891.144 7  92391429.534 7  22562895.109                    22562904.375
 126548401.395 6  98609153.77043  24081352.305                    24081361.996
 121967114.298 7  95039550.21744  23209615.781                    23209626.449
 108467823.563 8  84520368.93746  20640668.969                    20640674.070
 11  8 17  0 17 30.0000000  0  8G17G10G12G04G05G30G09G02
 120246538.068 7  93698658.237 6  22882129.836                    22882138.668
 110123424.115 8  85810589.43946  20955767.094                    20955774.547
 114625251.831 7  89318422.544 7  21812455.313                    21812462.871
 111738851.339 8  87069355.43245  21263161.430                    21263169.508
 118470796.890 7  92314992.579 7  22544228.109                    22544237.730
 126444901.157 6  98528504.30343  24061656.445                    24061666.398
 122038849.515 7  95095447.70744  23223266.547                    23223277.730
 108457919.415 8  84512651.42846  20638784.164                    20638789.223
 11  8 17  0 18  0.0000000  0  8G17G10G12G04G05G30G09G02
 120294913.295 7  93736353.172 6  22891335.453                    22891344.082
 110103925.154 8  85795395.46746  20952056.000                    20952063.855
 114553604.305 7  89262593.323 7  21798821.844                    21798829.160
 111810432.090 8  87125132.61645  21276782.383                    21276790.750
 118372912.967 7  92238719.537 7  22525602.086                    22525610.625
 126341597.785 5  98448008.25643  24041998.273                    24042008.293
 122110856.582 7  95151556.98944  23236969.938                    23236980.895
 108448338.502 8  84505185.79746  20636960.727                    20636966.160
 11  8 17  0 18 30.0000000  0  8G17G10G12G04G05G30G09G02
 120343426.299 7  93774155.490 6  22900567.227                    22900575.477
 110085035.335 8  85780676.14546  20948461.477                    20948469.266
 114482312.633 7  89207041.394 7  21785254.828                    21785262.516
 111882216.218 8  87181068.28746  21290442.875                    21290450.941
 118275242.640 7  92162612.891 7  22507015.250                    22507024.258
 126238494.559 5  98367668.14743  24022378.570                    24022388.969
 122183132.317 6  95207875.67244  23250723.289                    23250734.102
 108439080.248 8  84497971.58446  20635198.922                    20635204.234
 11  8 17  0 19  0.0000000  0  9G17G10G12G04G05G30G09G02G25
 120392077.808 7  93812065.679 6  22909825.625                    22909833.426
 110066755.641 8  85766432.23646  20944983.305                    20944991.043
 114411379.248 7  89151768.644 7  21771756.867                    21771764.367
 111954201.484 8  87237160.67746  21304141.398                    21304149.258
 118177788.877 7  92086675.005 7  22488470.594                    22488479.523
 126135594.063 6  98287486.06343  24002797.641                    24002807.637
 122255673.231 7  95264400.93744  23264527.656                    23264537.914
 108430143.686 8  84491008.04246  20633498.094                    20633503.859
 129599435.44216 100986565.47016  24661943.953                    24661956.137
 11  8 17  0 19 30.0000000  0  9G17G10G12G04G05G30G09G02G25
 120440868.225 7  93850084.143 6  22919109.508                    22919117.734
 110049087.004 8  85752664.48746  20941620.750                    20941628.625
 114340806.533 7  89096776.957 7  21758326.961                    21758334.664
 112026385.772 8  87293408.15345  21317877.328                    21317885.203
 118080554.599 7  92010908.137 7  22469967.070                    22469976.688
 126032899.113 6  98207464.03642  23983255.125                    23983265.066
 122328476.040 7  95321130.31244  23278380.539                    23278390.922
 108421527.698 8  84484294.29846  20631858.961                    20631864.242
 129496153.017 6 100906085.744 6  24642290.969                    24642302.293
 11  8 17  0 20  0.0000000  0  9G17G10G12G04G05G30G09G02G25
 120489798.360 7  93888211.477 6  22928421.344                    22928429.754
 110032030.886 8  85739374.02946  20938374.805                    20938382.852
 114270597.410 8  89042068.559 7  21744966.859                    21744974.113
 112098767.070 8  87349809.14645  21331650.930                    21331658.801
 117983542.924 7  91935314.762 7  22451506.000                    22451515.750
 125930412.824 6  98127604.67342  23963752.813                    23963762.133
 122401537.594 7  95378061.28044  23292284.695                    23292295.273
 108413231.718 8  84477829.90946  20630280.336                    20630285.656
 129392974.911 5 100825687.343 6  24622656.227                    24622668.070
 11  8 17  0 20 30.0000000  0  9G17G10G12G04G05G30G09G02G25
 120538868.883 7  93926448.239 6  22937759.281                    22937767.270
 110015587.836 8  85726561.28446  20935246.047                    20935254.168
 114200754.465 7  88987645.516 7  21731676.000                    21731684.066
 112171342.939 8  87406361.74245  21345462.258                    21345469.867
 117886756.681 7  91859897.014 7  22433088.336                    22433097.656
 125828137.586 6  98047909.63542  23944290.492                    23944299.066
 122474853.903 7  95435190.76044  23306236.563                    23306247.184
 108405254.568 8  84471613.96546  20628761.977                    20628767.316
 129289903.385 6 100745371.996 6  24603042.203                    24603054.148
 11  8 17  0 21  0.0000000  0  9G17G10G12G04G05G30G09G02G25
 120588079.860 6  93964794.393 6  22947123.711                    22947131.375
 109999758.738 8  85714226.94546  20932233.625                    20932241.906
 114131279.602 7  88933509.286 7  21718455.789                    21718462.992
 112244110.759 8  87463063.92645  21359309.023                    21359317.625
 117790198.993 7  91784657.367 7  22414713.766                    22414723.039
 125726076.068 6  97968381.03143  23924869.375                    23924876.695
 122548421.834 7  95492516.34244  23320235.328                    23320246.434
 108397594.808 8  84465645.33146  20627304.492                    20627309.965
 129186940.673 6 100665141.392 6  24583448.633                    24583461.371
 11  8 17  0 21 30.0000000  0  9G17G10G12G04G05G30G09G02G25
 120637432.045 7  94003250.611 6  22956514.688                    22956523.059
 109984544.399 8  85702371.63246  20929338.578                    20929346.227
 114062175.994 7  88879662.335 7  21705305.125                    21705312.590
 112317068.714 8  87519914.24145  21373192.711                    21373200.441
 117693872.605 7  91709597.950 7  22396383.117                    22396392.789
 125624231.198 6  97889021.44943  23905488.461                    23905497.125
 122622237.997 7  95550035.32044  23334282.516                    23334293.594
 108390251.650 8  84459923.39346  20625907.133                    20625911.895
 129084089.271 6 100584997.471 6  24563876.945                    24563888.629
 11  8 17  0 22  0.0000000  0  9G17G10G12G04G05G30G09G02G25
 120686926.061 7  94041817.353 6  22965933.594                    22965941.160
 109969946.092 8  85690996.35546  20926560.469                    20926568.367
 113993445.102 7  88826105.814 7  21692226.781                    21692233.641
 112390214.433 8  87576910.88746  21387111.148                    21387119.574
 117597780.742 7  91634721.291 7  22378097.859                    22378107.430
 125522605.753 6  97809832.87143  23886149.438                    23886158.762
 122696298.811 7  95607744.93044  23348376.609                    23348386.609
 108383224.212 8  84454447.48146  20624569.664                    20624575.355
 128981351.789 6 100504942.294 6  24544327.359                    24544338.266
 11  8 17  0 22 30.0000000  0  9G17G10G12G04G05G30G09G02G25
 120736562.577 7  94080495.132 6  22975379.250                    22975386.945
 109955964.914 8  85680101.94746  20923900.133                    20923907.945
 113925089.977 7  88772842.104 7  21679219.148                    21679226.008
 112463545.806 7  87634052.19045  21401066.359                    21401074.469
 117501925.829 7  91560029.245 7  22359857.547                    22359866.848
 125421202.527 6  97730817.43043  23866853.531                    23866862.406
 122770600.924 7  95665642.57644  23362515.461                    23362526.156
 108376511.218 8  84449216.59246  20623292.320                    20623297.520
 128878730.539 6 100424977.668 6  24524799.172                    24524809.676
 11  8 17  0 23  0.0000000  0  9G17G10G12G04G05G30G09G02G25
 120786342.143 7  94119284.374 6  22984851.625                    22984859.328
 109942601.765 8  85669689.12546  20921357.195                    20921365.277
 113857113.392 7  88719873.371 7  21666283.078                    21666290.887
 112537060.776 8  87691336.55245  21415055.680                    21415064.184
 117406311.126 7  91485524.373 7  22341662.750                    22341671.246
 125320024.421 6  97651977.49343  23847599.594                    23847609.207
 122845140.911 6  95723725.56844  23376699.766                    23376710.984
 108370111.872 8  84444230.09846  20622074.203                    20622080.086
 128776228.311 7 100345105.819 6  24505292.570                    24505304.789
 11  8 17  0 23 30.0000000  0  9G17G10G12G04G05G30G09G02G25
 120836265.784 7  94158185.873 6  22994352.242                    22994360.250
 109929857.711 8  85659758.71646  20918932.070                    20918939.977
 113789517.744 7  88667201.474 7  21653420.547                    21653427.633
 112610757.151 8  87748762.27045  21429079.922                    21429087.617
 117310939.622 7  91411209.011 7  22323514.000                    22323523.070
 125219074.240 6  97573315.15043  23828390.367                    23828399.281
 122919915.343 6  95781991.25944  23390928.711                    23390939.777
 108364025.306 8  84439487.33146  20620916.523                    20620921.961
 128673847.500 7 100265328.591 6  24485810.836                    24485822.328
 11  8 17  0 24  0.0000000  0  9G17G10G12G04G05G30G09G02G25
 120886333.440 7  94197199.601 7  23003879.367                    23003887.965
 109917733.310 8  85650311.14946  20916624.586                    20916632.781
 113722305.263 7  88614828.145 7  21640630.281                    21640637.625
 112684632.685 8  87806327.58845  21443137.563                    21443146.152
 117215814.689 7  91337085.776 7  22305412.109                    22305420.996
 125118354.853 6  97494832.56243  23809223.625                    23809232.289
 122994920.872 6  95840437.02644  23405202.102                    23405212.844
 108358250.171 8  84434987.23846  20619817.211                    20619822.660
 128571590.515 7 100185647.849 6  24466352.227                    24466363.277
 11  8 17  0 24 30.0000000  0  9G17G10G12G04G05G30G09G02G25
 120936546.091 7  94236326.332 6  23013435.047                    23013443.086
 109906229.612 8  85641347.24846  20914435.664                    20914443.996
 113655479.091 7  88562755.819 7  21627913.586                    21627921.070
 112758685.360 7  87864030.97845  21457228.992                    21457237.375
 117120938.774 7  91263156.587 7  22287357.992                    22287366.707
 125017869.182 6  97416532.11144  23790101.305                    23790110.469
 123070154.296 6  95899060.38144  23419518.789                    23419529.516
 108352785.728 8  84430729.24646  20618777.523                    20618783.176
 128469460.139 7 100106065.746 6  24446916.758                    24446928.848
 11  8 17  0 25  0.0000000  0  9G17G10G12G04G05G30G09G02G25
 120986904.403 7  94275566.529 6  23023017.945                    23023026.180
 109895347.426 8  85632867.64246  20912364.719                    20912372.715
 113589040.972 8  88510985.887 7  21615270.898                    21615278.324
 112832912.950 8  87921870.62945  21471354.648                    21471362.840
 117026314.900 7  91189423.794 7  22269351.555                    22269360.023
 124917619.953 7  97338415.88743  23771025.156                    23771034.141
 123145612.161 6  95957858.60744  23433877.734                    23433888.574
 108347631.063 8  84426712.63846  20617796.672                    20617801.980
 128367458.831 6 100026584.221 6  24427506.734                    24427518.000
 11  8 17  0 25 30.0000000  0  9G17G10G12G04G05G30G09G02G25
 121037408.797 7  94314920.564 7  23032628.078                    23032637.023
 109885087.425 8  85624872.84746  20910412.883                    20910420.387
 113522993.316 7  88459520.206 7  21602702.578                    21602709.684
 112907313.352 8  87979844.96245  21485512.711                    21485520.625
 116931946.368 7  91115889.956 7  22251393.195                    22251402.270
 124817609.966 7  97260486.07943  23751993.867                    23752002.070
 123221290.912 7  96016828.98244  23448279.039                    23448290.164
 108342784.863 8  84422936.39646  20616874.578                    20616879.445
 128265588.966 6  99947205.162 7  24408121.695                    24408133.148
 11  8 17  0 26  0.0000000  0  9G17G10G12G04G05G30G09G02G25
 121088060.211 7  94354389.137 7  23042267.195                    23042276.137
 109875450.122 8  85617363.26546  20908578.883                    20908586.570
 113457339.127 8  88408361.128 7  21590208.906                    21590216.453
 112981884.530 8  88037952.36245  21499702.836                    21499711.422
 116837835.869 7  91042557.206 7  22233484.445                    22233493.559
 124717842.281 6  97182745.08043  23733007.867                    23733016.738
 123297187.326 7  96075968.94144  23462722.000                    23462732.563
 108338246.439 8  84419399.96746  20616010.703                    20616016.281
 128163853.198 6  99867930.602 7  24388761.492                    24388773.766
 11  8 17  0 26 30.0000000  0  9G17G10G12G04G05G30G09G02G25
 121138858.815 7  94393972.440 7  23051933.875                    23051942.531
 109866436.224 8  85610339.46146  20906863.047                    20906870.711
 113392080.392 7  88357510.175 7  21577790.523                    21577797.590
 113056624.256 8  88096191.10245  21513925.391                    21513933.641
 116743986.458 7  90969427.886 7  22215625.570                    22215634.320
 124618319.299 6  97105194.78843  23714068.086                    23714077.715
 123373297.791 7  96135275.65744  23477205.641                    23477215.918
 108334014.376 8  84416102.27846  20615205.328                    20615210.484
 128062253.928 6  99788762.396 6  24369427.844                    24369440.242
 11  8 17  0 27  0.0000000  0  9G17G10G12G04G05G30G09G02G25
 121189805.492 7  94433671.099 7  23061627.719                    23061637.145
 109858046.660 8  85603802.14246  20905266.305                    20905274.316
 113327219.943 7  88306969.590 7  21565447.984                    21565454.977
 113131530.610 8  88154559.67345  21528179.727                    21528187.965
 116650400.817 7  90896504.087 7  22197816.875                    22197826.383
 124519044.146 6  97027837.61243  23695177.766                    23695186.582
 123449618.829 7  96194746.50544  23491729.070                    23491739.844
 108330087.807 8  84413042.62546  20614458.195                    20614463.828
 127960793.839 6  99709702.643 7  24350121.148                    24350132.082
 11  8 17  0 27 30.0000000  0  9G17G10G12G04G05G30G09G02G25
 121240900.720 7  94473485.490 7  23071351.695                    23071360.918
 109850281.677 8  85597751.52146  20903789.047                    20903797.020
 113262760.181 7  88256741.226 7  21553181.664                    21553188.633
 113206601.307 7  88213056.31245  21542464.844                    21542473.457
 116557082.123 7  90823788.316 7  22180058.648                    22180068.141
 124420019.557 7  96950675.70143  23676334.172                    23676343.250
 123526146.842 6  96254378.62644  23506291.570                    23506302.590
 108326465.399 8  84410219.98146  20613769.008                    20613774.477
 127859475.278 5  99630753.273 6  24330839.727                    24330852.313
 11  8 17  0 28  0.0000000  0  9G17G10G12G04G05G30G09G02G25
 121292144.984 7  94513416.050 7  23081102.586                    23081112.039
 109843142.171 7  85592188.26946  20902430.438                    20902438.141
 113198703.398 8  88206826.864 7  21540991.984                    21540999.156
 113281834.408 8  88271679.47845  21556781.672                    21556790.152
 116464033.313 7  90751282.854 7  22162352.391                    22162361.234
 124321248.686 7  96873711.45844  23657539.180                    23657547.871
 123602878.995 7  96314169.81144  23520893.633                    23520904.121
 108323146.373 8  84407633.75446  20613137.117                    20613143.023
 127758301.128 6  99551916.382 6  24311587.688                    24311599.438
 11  8 17  0 28 30.0000000  0  9G17G10G12G04G05G30G09G02G25
 121343538.997 6  94553463.267 7  23090883.234                    23090891.496
 109836629.034 7  85587113.10346  20901190.820                    20901199.039
 113135051.795 8  88157228.219 7  21528879.602                    21528886.715
 113357227.479 8  88330427.30845  21571128.336                    21571136.676
 116371257.573 7  90678990.152 7  22144697.516                    22144706.496
 124222734.028 7  96796946.87644  23638792.250                    23638800.555
 123679811.488 7  96374117.10544  23535533.094                    23535543.902
 108320129.548 8  84405283.00246  20612563.211                    20612568.746
 127657273.694 6  99473193.824 6  24292362.547                    24292374.465
 11  8 17  0 29  0.0000000  0  9G17G10G12G04G05G30G09G02G25
 121395083.443 7  94593627.715 7  23100691.422                    23100700.559
 109830742.973 7  85582526.57945  20900071.000                    20900078.699
 113071808.044 8  88107947.382 7  21516844.813                    21516851.977
 113432778.864 8  88389298.49145  21585505.203                    21585513.637
 116278757.295 7  90606912.125 7  22127095.141                    22127104.203
 124124478.581 7  96720384.29744  23620094.734                    23620103.727
 123756941.074 7  96434217.99544  23550210.430                    23550220.934
 108317414.076 8  84403167.06546  20612046.445                    20612051.629
 127556395.658 7  99394587.598 6  24273166.477                    24273177.852
 11  8 17  0 29 30.0000000  0  9G17G10G12G04G05G30G09G02G25
 121446778.680 7  94633909.683 7  23110528.617                    23110537.625
 109825484.240 7  85578428.87746  20899070.375                    20899077.875
 113008974.272 8  88058986.008 7  21504887.992                    21504894.973
 113508486.156 8  88448291.18345  21599911.695                    21599920.266
 116186535.577 7  90535051.134 7  22109545.953                    22109555.078
 124026485.027 7  96644025.74943  23601447.094                    23601455.488
 123834264.082 7  96494469.61344  23564924.414                    23564935.645
 108314998.500 7  84401284.81346  20611586.492                    20611591.863
 127455669.426 7  99316099.662 5  24253998.578                    24254009.652
 11  8 17  0 30  0.0000000  0  9G17G10G12G04G05G30G09G02G25
 121498625.506 7  94674309.741 6  23120395.078                    23120403.621
 109820853.145 7  85574820.23246  20898188.977                    20898196.367
 112946553.092 8  88010346.128 7  21493009.828                    21493016.523
 113584347.187 8  88507403.65145  21614348.125                    21614355.852
 116094595.314 7  90463409.459 7  22092049.773                    22092058.773
 123928756.118 6  96567873.36543  23582849.531                    23582857.637
 123911777.291 7  96554869.43244  23579674.836                    23579685.730
 108312881.954 8  84399635.57146  20611183.953                    20611189.414
 127355097.558 7  99237731.986 6  24234861.148                    24234871.801
 11  8 17  0 30 30.0000000  0  9G17G10G12G04G05G30G09G02G25
 121550624.354 7  94714828.294 6  23130290.625                    23130298.742
 109816850.201 7  85571701.06346  20897427.086                    20897434.922
 112884547.090 8  87962029.769 7  21481210.414                    21481217.371
 113660360.275 8  88566634.61645  21628812.703                    21628821.211
 116002939.526 7  90391989.462 7  22074608.820                    22074617.270
 123831294.974 6  96491929.65943  23564303.594                    23564311.695
 123989477.275 7  96615414.75744  23594461.422                    23594472.129
 108311063.492 8  84398218.59746  20610838.031                    20610843.242
 127254682.829 7  99159486.750 6  24215752.594                    24215763.125
 11  8 17  0 31  0.0000000  0  9G17G10G12G04G05G30G09G02G25
 121602775.349 7  94755465.396 6  23140214.297                    23140222.246
 109813475.169 7  85569071.19346  20896785.102                    20896792.719
 112822957.910 8  87914038.217 7  21469490.641                    21469497.582
 113736522.838 8  88625982.04745  21643306.039                    21643313.934
 115911570.735 7  90320793.089 7  22057221.469                    22057230.375
 123734103.832 6  96416196.40543  23545807.750                    23545817.063
 124067360.401 7  96676102.85344  23609281.938                    23609291.965
 108309540.966 8  84397032.22346  20610547.734                    20610553.746
 127154427.307 7  99081365.624 6  24196674.227                    24196685.742
 11  8 17  0 31 30.0000000  0  9G17G10G12G04G05G30G09G02G25
 121655079.616 7  94796221.957 6  23150167.688                    23150175.293
 109810729.266 7  85566931.54246  20896262.133                    20896270.168
 112761788.319 8  87866373.605 7  21457849.813                    21457857.258
 113812833.235 8  88685444.67945  21657827.258                    21657835.563
 115820492.532 7  90249823.150 7  22039890.172                    22039898.594
 123637186.051 6  96340676.09643  23527365.523                    23527374.313
 124145423.515 7  96736931.12544  23624136.742                    23624147.336
 108308314.289 7  84396076.38546  20610314.648                    20610320.453
 127054334.028 6  99003370.938 6  24177626.172                    24177639.051
 11  8 17  0 32  0.0000000  0  9G17G10G12G04G05G30G09G02G25
 121707538.007 7  94837098.601 6  23160149.883                    23160157.129
 109808613.446 8  85565282.85846  20895859.570                    20895867.652
 112701041.164 7  87819038.177 7  21446290.000                    21446297.672
 113889289.796 7  88745021.18245  21672376.219                    21672384.887
 115729707.662 7  90179081.797 7  22022614.297                    22022623.113
 123540544.897 6  96265371.35143  23508975.625                    23508983.828
 124223663.546 6  96797897.27444  23639025.563                    23639036.426
 108307382.920 8  84395350.65446  20610137.875                    20610142.766
 126954405.901 6  98925504.988 7  24158610.766                    24158622.688
 11  8 17  0 32 30.0000000  0  9G17G10G12G04G05G30G09G02G25
 121760150.699 7  94878095.473 6  23170162.484                    23170170.215
 109807127.419 8  85564124.92346  20895577.125                    20895584.875
 112640718.381 8  87772033.423 7  21434811.031                    21434818.301
 113965890.114 7  88804709.71445  21686952.992                    21686961.547
 115639218.806 7  90108571.079 7  22005394.969                    22005403.605
 123444182.723 6  96190284.01844  23490637.789                    23490647.203
 124302076.798 7  96858998.43344  23653947.016                    23653957.707
 108306744.896 8  84394853.50246  20610015.836                    20610021.566
 126854645.105 6  98847769.414 7  24139626.891                    24139638.141
 11  8 17  0 33  0.0000000  0  9G17G10G12G04G05G30G09G02G25
 121812918.124 7  94919212.922 6  23180203.523                    23180211.414
 109806271.296 8  85563457.83746  20895414.203                    20895421.914
 112580822.232 8  87725361.121 7  21423413.000                    21423420.180
 114042632.186 8  88864508.69145  21701556.203                    21701565.074
 115549028.805 8  90038293.250 7  21988231.688                    21988240.719
 123348102.341 6  96115416.26143  23472354.055                    23472363.477
 124380659.688 7  96920231.76644  23668901.281                    23668912.082
 108306398.992 8  84394583.96346  20609950.297                    20609955.754
 126755054.314 6  98770166.293 7  24120675.008                    24120686.938
 11  8 17  0 33 30.0000000  0  9G17G10G12G04G05G30G09G02G25
 121865841.032 7  94960451.565 6  23190274.180                    23190282.141
 109806045.754 8  85563282.10546  20895371.328                    20895379.258
 112521355.539 8  87679023.461 7  21412096.766                    21412104.008
 114119514.046 8  88924416.60545  21716186.852                    21716195.254
 115459141.019 7  89968250.910 7  21971126.680                    21971135.656
 123252306.867 6  96040770.54243  23454125.055                    23454134.105
 124459409.121 6  96981594.85744  23683886.391                    23683898.594
 108306344.547 8  84394541.54946  20609939.883                    20609945.027
 126655636.160 6  98692697.748 7  24101757.008                    24101768.590
 11  8 17  0 34  0.0000000  0  9G17G10G12G04G05G30G09G02G25
 121918919.899 7  95001811.711 6  23200375.148                    23200382.938
 109806450.899 8  85563597.83346  20895448.305                    20895456.078
 112462320.166 8  87633021.906 7  21400862.695                    21400869.988
 114196533.594 8  88984431.79645  21730843.352                    21730851.461
 115369557.612 7  89898445.749 7  21954079.258                    21954088.098
 123156798.858 6  95966348.78343  23435950.164                    23435959.430
 124538321.218 7  97043084.68744  23698903.117                    23698913.453
 108306579.903 8  84394724.93846  20609984.664                    20609990.125
 126556393.206 7  98615365.661 6  24082871.438                    24082883.309
 11  8 17  0 34 30.0000000  0  9G17G10G12G04G05G30G09G02G25
 121972155.523 7  95043293.975 6  23210505.250                    23210513.973
 109807486.643 8  85564404.92046  20895645.469                    20895653.191
 112403718.184 8  87587358.048 7  21389711.250                    21389718.887
 114273688.712 8  89044552.64645  21745525.539                    21745533.215
 115280281.825 7  89828880.281 7  21937090.906                    21937099.453
 123061581.108 7  95892153.19143  23417831.516                    23417840.004
 124617392.595 7  97104698.65644  23713950.063                    23713960.836
 108307104.249 8  84395133.52146  20610084.727                    20610089.461
 126457327.839 7  98538171.935 6  24064020.352                    24064032.148
 11  8 17  0 35  0.0000000  0  9G17G10G12G04G05G30G09G02G25
 122025548.237 7  95084898.672 6  23220665.984                    23220673.887
 109809153.662 8  85565703.90946  20895962.391                    20895970.367
 112345552.344 8  87542034.033 7  21378642.531                    21378649.574
 114350977.869 7  89104777.92745  21760232.891                    21760241.430
 115191316.495 7  89759556.727 7  21920161.266                    21920169.793
 122966656.766 7  95818186.21744  23399767.742                    23399776.063
 124696620.408 7  97166434.49143  23729026.813                    23729038.039
 108307916.838 8  84395766.71946  20610239.258                    20610244.250
 126358443.121 7  98461118.971 6  24045202.578                    24045213.902
 11  8 17  0 35 30.0000000  0  9G17G10G12G04G05G30G09G02G25
 122079098.571 7  95126626.167 6  23230855.930                    23230865.051
 109811451.919 7  85567494.77246  20896399.563                    20896407.766
 112287824.984 7  87497051.683 7  21367657.578                    21367664.641
 114428398.946 8  89165106.01645  21774965.773                    21774973.969
 115102664.723 7  89690477.510 7  21903290.891                    21903299.617
 122872028.712 7  95744450.10244  23381761.188                    23381768.867
 124776001.219 7  97228289.56244  23744132.031                    23744143.957
 108309016.530 8  84396623.62746  20610448.633                    20610453.551
 126259741.585 6  98384208.729 6  24026420.438                    24026430.672
 11  8 17  0 36  0.0000000  0  9G17G10G12G04G05G30G09G02G25
 122132807.204 7  95168477.028 6  23241077.031                    23241084.527
 109814381.870 8  85569777.86546  20896957.656                    20896965.563
 112230538.119 8  87452412.602 7  21356756.234                    21356763.402
 114505949.946 8  89225535.32445  21789722.938                    21789731.391
 115014329.253 7  89621644.767 7  21886481.789                    21886490.445
 122777699.618 7  95670946.99244  23363810.344                    23363819.250
 124855531.553 6  97290261.12744  23759266.953                    23759278.332
 108310401.845 8  84397703.09446  20610711.813                    20610717.078
 126161225.734 6  98307443.215 6  24007672.648                    24007684.758
 11  8 17  0 36 30.0000000  0  9G17G10G12G04G05G30G09G02G25
 122186674.529 7  95210451.524 6  23251326.875                    23251335.547
 109817943.320 8  85572553.03946  20897635.109                    20897642.570
 112173694.054 7  87408118.536 7  21345939.141                    21345946.172
 114583628.867 8  89286064.33345  21804504.992                    21804512.797
 114926312.835 7  89553060.611 7  21869732.664                    21869741.336
 122683672.265 7  95597678.99844  23345917.586                    23345925.582
 124935207.804 6  97352346.42543  23774428.258                    23774439.855
 108312071.506 8  84399004.13946  20611029.625                    20611034.711
 126062898.125 6  98230824.400 6  23988962.414                    23988973.852
 11  8 17  0 37  0.0000000  0  9G17G10G12G04G05G30G09G02G25
 122240701.295 7  95252550.258 6  23261607.891                    23261616.414
 109822136.464 8  85575820.44346  20898433.203                    20898440.645
 112117295.062 8  87364171.295 7  21335206.742                    21335214.188
 114661433.596 7  89346691.35945  21819310.844                    21819319.148
 114838618.296 7  89484727.289 7  21853045.094                    21853053.672
 122589949.522 7  95524648.36544  23328082.477                    23328091.340
 125015026.750 6  97414542.86043  23789617.594                    23789629.496
 108314024.599 8  84400526.04246  20611401.547                    20611406.441
 125964761.484 6  98154354.377 7  23970287.383                    23970298.871
 11  8 17  0 37 30.0000000  0  9G17G10G12G04G05G30G09G02G25
 122294887.595 7  95294773.317 6  23271919.023                    23271928.215
 109826961.238 7  85579580.00546  20899350.891                    20899358.605
 112061343.485 7  87320572.677 7  21324559.648                    21324566.645
 114739362.443 7  89407415.11445  21834140.453                    21834148.496
 114751248.351 7  89416646.912 7  21836418.773                    21836427.586
 122496534.266 7  95451857.34544  23310306.000                    23310315.277
 125094984.988 6  97476847.87443  23804832.898                    23804844.184
 108316259.779 7  84402267.74946  20611826.734                    20611831.813
 125866818.450 7  98078035.217 7  23951649.297                    23951660.820
 11  8 17  0 38  0.0000000  0  9G17G10G12G04G05G30G09G02G25
 122349234.450 7  95337121.477 6  23282260.805                    23282269.371
 109832417.361 7  85583831.53946  20900389.188                    20900396.773
 112005841.097 8  87277324.083 7  21313997.742                    21314005.105
 114817412.975 7  89468233.68345  21848992.742                    21849001.090
 114664205.637 7  89348821.474 7  21819855.344                    21819863.730
 122403428.995 7  95379307.84244  23292589.406                    23292597.023
 125175078.699 6  97539258.43844  23820074.766                    23820085.859
 108318775.714 8  84404228.22346  20612305.375                    20612310.680
 125769071.312 7  98001868.667 6  23933049.336                    23933059.828
 11  8 17  0 38 30.0000000  0  9G17G10G12G04G05G30G09G02G25
 122403741.903 7  95379594.768 6  23292633.086                    23292642.215
 109838505.332 8  85588575.42546  20901548.227                    20901555.832
 111950790.536 7  87234427.561 7  21303521.805                    21303529.207
 114895583.733 8  89529145.93945  21863867.945                    21863876.129
 114577493.580 7  89281253.715 7  21803354.234                    21803363.035
 122310636.940 7  95307002.37644  23274931.516                    23274939.797
 125255305.120 6  97601772.38644  23835341.227                    23835352.832
 108321571.605 8  84406406.85046  20612837.375                    20612842.801
 125671523.068 7  97925857.119 6  23914485.500                    23914496.809
 11  8 17  0 39  0.0000000  0  9G17G10G12G04G05G30G09G02G25
 122458410.675 6  95422193.765 6  23303036.688                    23303045.410
 109845225.059 8  85593811.58746  20902826.914                    20902834.395
 111896194.029 7  87191884.832 7  21293132.484                    21293139.617
 114973872.892 8  89590150.44945  21878766.234                    21878774.363
 114491114.616 7  89213945.515 7  21786916.703                    21786925.438
 122218160.833 7  95234943.10143  23257333.281                    23257341.746
 125335660.830 6  97664387.13544  23850632.328                    23850644.559
 108324646.340 7  84408802.76146  20613422.477                    20613427.543
 125574176.412 7  97850002.655 6  23895961.594                    23895972.898
 11  8 17  0 39 30.0000000  0  9G17G10G12G04G05G30G09G02G25
 122513241.251 6  95464918.819 7  23313469.898                    23313479.070
 109852576.288 8  85599539.82646  20904225.625                    20904233.516
 111842053.519 7  87149697.448 7  21282830.000                    21282837.004
 115052278.447 7  89651245.66745  21893686.250                    21893694.824
 114405071.733 7  89146899.186 7  21770543.352                    21770551.832
 122126003.509 7  95163132.24744  23239796.320                    23239804.734
 125416142.315 6  97727099.83443  23865947.789                    23865959.305
 108327998.728 7  84411415.02746  20614060.391                    20614066.016
 125477033.859 7  97774307.188 6  23877475.398                    23877486.684
 11  8 17  0 40  0.0000000  0  9G17G10G12G04G05G30G09G02G25
 122568234.514 7  95507770.668 7  23323935.430                    23323944.469
 109860558.971 8  85605760.10746  20905744.477                    20905752.133
 111788371.303 7  87107867.153 7  21272614.289                    21272621.094
 115130798.239 8  89712429.89945  21908628.055                    21908636.434
 114319367.741 7  89080116.931 7  21754234.125                    21754242.852
 122034167.737 7  95091571.95544  23222320.500                    23222329.051
 125496746.098 6  97789907.87644  23881286.758                    23881297.789
 108331627.491 8  84414242.63446  20614750.961                    20614756.738
 125380098.008 6  97698772.836 6  23859028.797                    23859040.145
 11  8 17  0 40 30.0000000  0  9G17G10G12G04G05G30G09G02G25
 122623390.715 7  95550749.480 6  23334431.336                    23334440.797
 109869173.085 8  85612472.42746  20907383.438                    20907391.395
 111735149.590 7  87066395.705 7  21262486.711                    21262493.723
 115209430.818 7  89773702.01945  21923590.938                    21923599.777
 114234004.990 7  89013600.584 7  21737990.305                    21737998.762
 121942656.356 6  95020264.43644  23204906.281                    23204914.793
 125577468.934 6  97852808.66244  23896647.602                    23896659.246
 108335531.368 8  84417284.63546  20615493.813                    20615498.758
 125283371.613 6  97623401.583 6  23840622.438                    23840632.602
 11  8 17  0 41  0.0000000  0  9G17G10G12G04G05G30G09G02G25
 122678710.302 7  95593855.577 6  23344958.367                    23344967.215
 109878418.452 8  85619676.61546  20909142.914                    20909150.598
 111682390.499 8  87025284.734 7  21252447.313                    21252453.988
 115288174.007 7  89835060.31945  21938575.813                    21938583.996
 114148986.643 7  88947352.596 7  21721811.758                    21721820.047
 121851472.187 7  94949211.88644  23187554.039                    23187563.406
 125658307.549 7  97915799.66743  23912030.438                    23912041.859
 108339709.273 8  84420540.15946  20616288.594                    20616293.980
 125186857.227 7  97548195.658 6  23822256.070                    23822267.367
 11  8 17  0 41 30.0000000  0  9G17G10G12G04G05G30G09G02G25
 122734193.862 7  95637089.471 6  23355517.625                    23355525.320
 109888294.634 7  85627372.35546  20911022.133                    20911030.004
 111630096.614 8  86984536.279 7  21242495.883                    21242502.695
 115367025.961 8  89896503.38245  21953580.430                    21953589.039
 114064315.366 8  88881375.052 7  21705699.117                    21705707.746
 121760617.942 7  94878416.36944  23170265.984                    23170273.289
 125739258.352 7  97978878.11643  23927435.789                    23927446.434
 108344160.029 8  84424008.28446  20617135.500                    20617141.086
 125090557.573 7  97473157.014 6  23803931.367                    23803941.977
 11  8 17  0 42  0.0000000  0  9G17G10G12G04G05G30G09G02G25
 122789841.920 7  95680451.560 6  23366106.133                    23366115.414
 109898801.596 8  85635559.60446  20913021.688                    20913029.906
 111578269.155 7  86944151.264 7  21232633.344                    21232640.695
 115445984.818 7  89958029.74745  21968606.688                    21968614.375
 113979993.838 7  88815670.056 7  21689653.305                    21689661.875
 121670096.565 7  94807880.27043  23153039.109                    23153048.344
 125820317.872 7  98042041.32143  23942860.820                    23942871.418
 108348882.538 8  84427688.17146  20618034.828                    20618039.895
 124994475.224 7  97398287.729 6  23785647.742                    23785658.445
 11  8 17  0 42 30.0000000  0  9G17G10G12G04G05G30G09G02G25
 122845654.747 7  95723942.045 6  23376726.953                    23376735.824
 109909939.235 8  85644238.29546  20915141.336                    20915149.250
 111526910.796 8  86904131.770 7  21222860.602                    21222867.195
 115525048.852 8  90019638.07245  21983651.328                    21983659.527
 113896024.919 7  88750239.795 7  21673674.648                    21673682.711
 121579910.963 6  94737605.76444  23135877.750                    23135886.488
 125901483.239 7  98105286.91643  23958305.289                    23958316.465
 108353875.831 8  84431579.06146  20618984.555                    20618990.164
 124898613.065 7  97323589.976 7  23767406.070                    23767417.059
 11  8 17  0 43  0.0000000  0  9G17G10G12G04G05G30G09G02G25
 122901633.050 7  95767561.448 6  23387380.117                    23387388.234
 109921707.077 8  85653408.04646  20917380.555                    20917388.582
 111476023.807 7  86864479.597 7  21213176.695                    21213183.594
 115604216.123 8  90081326.83545  21998716.563                    21998724.738
 113812411.286 8  88685086.394 7  21657763.523                    21657771.656
 121490063.783 7  94667594.99344  23118780.711                    23118789.465
 125982750.911 7  98168612.24343  23973771.133                    23973781.133
 108359138.392 8  84435679.75946  20619985.953                    20619991.289
 124802973.595 7  97249065.776 7  23749205.602                    23749217.125
 11  8 17  0 43 30.0000000  0  9G17G10G12G04G05G30G09G02G25
 122957777.253 7  95811310.110 6  23398063.406                    23398072.285
 109934104.985 8  85663068.76846  20919740.086                    20919747.805
 111425610.431 8  86825196.475 7  21203583.383                    21203590.410
 115683485.114 7  90143094.87445  22013801.344                    22013809.336
 113729156.167 7  88620212.358 7  21641920.273                    21641928.434
 121400558.150 7  94597850.37044  23101748.141                    23101757.176
 126064117.832 7  98232014.94943  23989254.219                    23989265.516
 108364669.569 8  84439989.77446  20621038.359                    20621043.742
 124707559.649 6  97174717.332 6  23731049.188                    23731059.848
 11  8 17  0 44  0.0000000  0  9G17G10G12G04G05G30G09G02G25
 123014087.636 7  95855188.279 6  23408779.586                    23408786.434
 109947132.209 8  85673219.85245  20922219.086                    20922226.578
 111375671.704 8  86786283.194 7  21194080.281                    21194087.199
 115762853.672 7  90204940.47845  22028904.109                    22028912.281
 113646261.727 7  88555619.373 7  21626146.031                    21626154.066
 121311396.296 7  94528373.61144  23084781.492                    23084790.246
 126145580.175 6  98295491.99443  24004755.641                    24004768.352
 108370467.091 8  84444507.33546  20622141.672                    20622147.262
 124612373.537 7  97100546.397 6  23712936.344                    23712946.344
 11  8 17  0 44 30.0000000  0  9G17G10G12G04G05G30G09G02G25
 123070564.909 7  95899196.523 6  23419526.422                    23419534.117
 109960788.319 8  85683860.98846  20924817.477                    20924825.289
 111326210.192 8  86747741.779 7  21184668.219                    21184675.434
 115842319.663 7  90266862.03045  22044025.930                    22044033.949
 113563730.447 7  88491309.333 7  21610441.023                    21610448.777
 121222580.998 7  94459166.87644  23067880.414                    23067888.918
 126227134.483 7  98359040.73643  24020275.234                    24020287.266
 108376529.995 8  84449231.67046  20623295.211                    20623300.867
 124517417.819 7  97026554.965 6  23694866.617                    23694876.809
 11  8 17  0 45  0.0000000  0  9G17G10G12G04G05G30G09G02G25
 123127209.642 7  95943335.251 6  23430304.672                    23430313.586
 109975073.888 7  85694992.59246  20927536.148                    20927543.773
 111277228.725 8  86709574.414 7  21175347.297                    21175354.086
 115921882.156 7  90328858.74945  22059166.469                    22059175.105
 113481565.957 8  88427285.138 7  21594805.461                    21594813.504
 121134115.816 7  94390232.99344  23051046.172                    23051054.750
 126308778.050 6  98422658.94943  24035811.688                    24035823.020
 108382858.217 8  84454162.76246  20624499.617                    20624505.113
 124422695.888 7  96952745.691 6  23676842.289                    23676852.008
 11  8 17  0 45 30.0000000  0  9G17G10G12G04G05G30G09G02G25
 123184022.211 7  95987604.742 6  23441116.227                    23441125.121
 109989988.110 8  85706614.07946  20930374.023                    20930381.523
 111228728.445 8  86671782.009 7  21166117.930                    21166125.047
 116001538.867 7  90390928.90645  22074324.672                    22074332.957
 113399770.335 7  88363548.348 7  21579240.227                    21579248.297
 121046003.065 7  94321573.73644  23034278.750                    23034287.777
 126390507.249 6  98486343.91443  24051363.680                    24051375.457
 108389449.829 8  84459299.08146  20625754.047                    20625759.496
 124328209.972 7  96879120.324 6  23658861.797                    23658872.117
 11  8 17  0 46  0.0000000  0  9G17G10G12G04G05G30G09G02G25
 123241002.928 6  96032005.260 6  23451959.688                    23451968.152
 110005530.418 8  85718724.95946  20933331.781                    20933339.652
 111180711.709 8  86634366.399 7  21156980.758                    21156987.508
 116081288.049 7  90453071.10345  22089500.156                    22089508.793
 113318346.313 7  88300101.137 7  21563745.758                    21563754.285
 120958245.643 7  94253191.32244  23017578.844                    23017587.574
 126472318.969 7  98550093.19743  24066933.492                    24066944.250
 108396303.717 8  84464639.76446  20627058.461                    20627063.730
 124233962.824 7  96805680.976 7  23640927.094                    23640937.359
 11  8 17  0 46 30.0000000  0  9G17G10G12G04G05G30G09G02G25
 123298152.305 6  96076537.226 6  23462834.594                    23462843.082
 110021699.929 8  85731324.58646  20936408.852                    20936416.723
 111133180.250 8  86597328.906 7  21147935.719                    21147942.660
 116161127.733 7  90515283.83945  22104693.461                    22104701.961
 113237296.392 8  88236945.425 7  21548322.398                    21548330.684
 120870845.857 7  94185087.63244  23000947.305                    23000956.391
 126554209.763 6  98613904.00043  24082515.906                    24082527.566
 108403418.250 8  84470183.55246  20628411.742                    20628417.309
 124139956.742 7  96732429.508 7  23623037.953                    23623048.340
 11  8 17  0 47  0.0000000  0  9G17G10G12G04G05G30G09G02G25
 123355471.099 6  96121201.181 6  23473741.961                    23473750.582
 110038496.297 8  85744412.66846  20939604.734                    20939612.766
 111086136.398 8  86560671.375 7  21138983.492                    21138990.160
 116241056.290 7  90577565.83245  22119902.773                    22119911.281
 113156623.494 8  88174083.493 7  21532970.820                    21532978.895
 120783806.966 7  94117265.14644  22984384.805                    22984393.023
 126636176.263 6  98677773.89743  24098114.945                    24098124.953
 108410792.638 8  84475929.82846  20629815.500                    20629820.934
 124046194.773 7  96659368.243 7  23605195.500                    23605206.805
 11  8 17  0 47 30.0000000  0  9G17G10G12G04G05G30G09G02G25
 123412959.558 6  96165997.321 6  23484681.055                    23484690.793
 110055919.167 8  85757988.93246  20942920.328                    20942928.113
 111039581.786 8  86524395.067 7  21130124.805                    21130131.539
 116321072.066 7  90639915.74845  22135129.867                    22135138.199
 113076330.470 7  88111517.570 7  21517691.234                    21517699.656
 120697131.688 7  94049726.00544  22967890.938                    22967899.430
 126718215.378 6  98741700.33543  24113725.586                    24113738.027
 108418425.833 8  84481877.76846  20631267.945                    20631273.594
 123952679.605 7  96586499.306 7  23587400.484                    23587411.223
 11  8 17  0 48  0.0000000  0  9G17G10G12G04G05G30G09G02G25
 123470618.145 6  96210926.104 6  23495652.852                    23495662.965
 110073968.202 8  85772053.12546  20946354.805                    20946362.844
 110993518.664 8  86488501.746 7  21121358.828                    21121365.926
 116401173.546 7  90702332.48845  22150372.367                    22150380.941
 112996419.963 7  88049249.707 7  21502485.109                    21502492.852
 120610822.814 7  93982472.40144  22951466.469                    22951475.480
 126800323.711 6  98805680.70843  24129349.727                    24129362.973
 108426316.727 8  84488026.49946  20632769.586                    20632774.906
 123859414.001 7  96513824.790 6  23569652.516                    23569663.105
 11  8 17  0 48 30.0000000  0  9G17G10G12G04G05G30G09G02G25
 123528447.280 6  96255987.723 7  23506657.969                    23506667.621
 110092642.600 8  85786604.60246  20949908.703                    20949916.254
 110947949.222 8  86452993.093 7  21112687.336                    21112694.020
 116481358.897 7  90764814.54945  22165631.281                    22165640.031
 112916894.419 7  87987281.805 7  21487351.320                    21487359.625
 120524883.298 7  93915506.57744  22935112.805                    22935121.246
 126882498.102 6  98869712.52643  24144988.258                    24144999.719
 108434464.202 8  84494375.18146  20634319.742                    20634325.750
 123766400.749 7  96441346.947 6  23551952.563                    23551963.641
 11  8 17  0 49  0.0000000  0  9G17G10G12G04G05G30G09G02G25
 123586447.380 6  96301182.584 6  23517696.266                    23517704.719
 110111942.055 8  85801643.14046  20953581.227                    20953588.637
 110902875.334 8  86417870.614 7  21104110.008                    21104117.148
 116561626.476 7  90827360.70845  22180905.719                    22180914.398
 112837756.499 7  87925615.983 7  21472291.844                    21472300.000
 120439315.758 7  93848830.63644  22918830.172                    22918838.820
 126964735.085 6  98933793.09743  24160637.188                    24160648.891
 108442866.785 8  84500922.63346  20635918.961                    20635924.895
 123673642.412 7  96369067.726 6  23534301.508                    23534311.590
 11  8 17  0 49 30.0000000  0  9G17G10G12G04G05G30G09G02G25
 123644618.949 7  96346511.059 6  23528765.195                    23528773.727
 110131865.421 8  85817167.85046  20957372.383                    20957379.793
 110858298.534 8  86383135.451 7  21095627.492                    21095634.180
 116641974.355 7  90889969.43345  22196195.805                    22196204.281
 112759008.937 8  87864254.306 7  21457306.664                    21457314.613
 120354122.852 7  93782446.61444  22902618.211                    22902626.676
 127047031.372 6  98997919.90843  24176297.898                    24176309.844
 108451523.314 8  84507667.97946  20637566.398                    20637571.637
 123581141.601 7  96296989.201 6  23516698.789                    23516709.484
 11  8 17  0 50  0.0000000  0  9G17G10G12G04G05G30G09G02G25
 123702962.216 7  96391973.302 6  23539867.664                    23539876.902
 110152412.045 8  85833178.22346  20961282.297                    20961289.883
 110814220.538 8  86348788.977 7  21087239.813                    21087246.586
 116722400.656 7  90952639.24645  22211499.844                    22211508.352
 112680654.016 8  87803198.586 7  21442396.305                    21442404.180
 120269307.080 7  93716356.45744  22886478.938                    22886486.848
 127129383.807 6  99062090.46944  24191969.383                    24191981.566
 108460432.327 8  84514610.05546  20639261.781                    20639267.117
 123488900.736 7  96225113.228 6  23499145.656                    23499156.598
 11  8 17  0 50 30.0000000  0  9G17G10G12G04G05G30G09G02G25
 123761477.667 7  96437569.739 6  23551002.742                    23551011.719
 110173581.237 8  85849673.71646  20965310.461                    20965318.473
 110770643.270 8  86314832.672 7  21078947.164                    21078954.105
 116802903.781 7  91015368.93945  22226819.766                    22226827.652
 112602694.122 8  87742450.669 7  21427561.281                    21427569.387
 120184871.155 7  93650562.29444  22870410.266                    22870419.027
 127211789.063 6  99126302.22843  24207650.320                    24207662.941
 108469592.477 8  84521747.82646  20641004.969                    20641010.367
 123396922.483 7  96153441.888 6  23481642.750                    23481653.797
 11  8 17  0 51  0.0000000  0  9G17G10G12G04G05G30G09G02G25
 123820165.790 7  96483300.698 6  23562171.242                    23562179.285
 110195372.390 8  85866653.84046  20969457.273                    20969464.969
 110727569.337 8  86281268.568 8  21070750.648                    21070757.523
 116883482.246 7  91078157.34545  22242153.148                    22242161.344
 112525132.591 8  87682013.185 7  21412801.641                    21412809.270
 120100818.235 7  93585066.59144  22854415.383                    22854424.441
 127294243.962 6  99190552.61943  24223341.141                    24223352.961
 108479003.125 8  84529080.79746  20642795.398                    20642800.746
 123305210.033 7  96081977.726 6  23464190.945                    23464201.816
 11  8 17  0 51 30.0000000  0  9G17G10G12G04G05G30G09G02G25
 123879026.970 7  96529166.540 6  23573371.992                    23573380.738
 110217784.759 8  85884118.03446  20973721.797                    20973729.977
 110684999.839 8  86248097.548 7  21062649.438                    21062656.578
 116964134.184 7  91141002.97645  22257500.336                    22257508.848
 112447971.874 8  87621887.996 7  21398118.180                    21398126.301
 120017150.773 7  93519871.23744  22838494.266                    22838503.094
 127376745.005 6  99254838.96743  24239039.914                    24239052.820
 108488662.608 8  84536607.65846  20644633.688                    20644639.145
 123213765.731 7  96010722.464 6  23446789.875                    23446799.660
 11  8 17  0 52  0.0000000  0  9G17G10G12G04G05G30G09G02G25
 123938061.443 7  96575167.374 6  23584605.703                    23584614.508
 110240817.499 8  85902065.63946  20978105.289                    20978112.738
 110642936.600 8  86215321.000 7  21054645.211                    21054651.922
 117044857.887 7  91203904.54145  22272862.109                    22272870.613
 112371213.741 8  87562076.525 7  21383511.859                    21383519.820
 119933871.364 7  93454978.25844  22822646.406                    22822655.594
 127459289.196 6  99319158.93043  24254748.453                    24254761.012
 108498569.801 8  84544327.54546  20646519.180                    20646524.676
 123122592.112 7  95939678.142 6  23429439.953                    23429450.320
 11  8 17  0 52 30.0000000  0  9G17G10G12G04G05G30G09G02G25
 123997269.794 7  96621303.722 6  23595873.203                    23595881.656
 110264469.706 8  85920495.95046  20982606.266                    20982614.250
 110601381.822 8  86182940.660 7  21046737.719                    21046744.715
 117125651.888 7  91266860.86845  22288236.828                    22288244.680
 112294861.273 8  87502581.166 7  21368982.500                    21368990.203
 119850982.936 7  93390389.92844  22806873.500                    22806882.051
 127541873.459 6  99383510.13743  24270463.852                    24270475.719
 108508723.781 8  84552239.73846  20648451.094                    20648456.457
 123031692.113 7  95868847.045 6  23412141.422                    23412152.027
 11  8 17  0 53  0.0000000  0  9G17G10G12G04G05G30G09G02G25
 124056652.602 7  96667575.977 6  23607173.188                    23607182.066
 110288740.984 8  85939408.64646  20987224.617                    20987232.355
 110560337.493 8  86150958.065 7  21038927.164                    21038934.152
 117206514.790 7  91329870.90445  22303623.953                    22303632.430
 112218917.316 8  87443404.108 7  21354530.570                    21354538.473
 119768488.227 7  93326108.40244  22791175.188                    22791184.227
 127624494.450 6  99447889.95943  24286186.320                    24286198.191
 108519123.381 8  84560343.31046  20650430.352                    20650435.367
 122941068.417 7  95798231.266 6  23394896.516                    23394907.094
 11  8 17  0 53 30.0000000  0  9G17G10G12G04G05G30G09G02G25
 124116210.030 7  96713984.299 6  23618506.602                    23618515.828
 110313630.096 8  85958802.77346  20991961.148                    20991968.906
 110519804.690 8  86119374.067 7  21031214.195                    21031221.594
 117287444.506 7  91392932.98145  22319024.828                    22319033.473
 112143383.983 8  87384547.023 7  21340157.023                    21340164.770
 119686389.795 7  93262135.67444  22775552.766                    22775560.945
 127707148.911 6  99512295.85843  24301915.070                    24301927.410
 108529767.237 8  84568637.23646  20652455.250                    20652461.273
 122850723.650 7  95727832.815 7  23377704.477                    23377715.746
 11  8 17  0 54  0.0000000  0  9G17G10G12G04G05G30G09G02G25
 124175942.487 7  96760529.041 6  23629873.406                    23629881.750
 110339135.957 8  85978677.48846  20996814.547                    20996822.516
 110479785.622 8  86088190.377 7  21023598.648                    21023605.625
 117368439.545 7  91456045.98744  22334437.594                    22334445.719
 112068263.978 8  87326012.010 7  21325862.133                    21325869.938
 119604690.288 7  93198473.77544  22760005.250                    22760013.441
 127789833.632 6  99576725.34943  24317649.227                    24317662.262
 108540654.023 8  84577120.44646  20654527.617                    20654533.238
 122760660.363 7  95657653.709 6  23360566.242                    23360576.262
 11  8 17  0 54 30.0000000  0  9G17G10G12G04G05G30G09G02G25
 124235850.294 6  96807210.411 6  23641273.211                    23641282.352
 110365258.071 8  85999032.39046  21001785.359                    21001793.215
 110440281.890 8  86057408.248 7  21016081.273                    21016088.555
 117449498.403 7  91519208.68145  22349863.250                    22349871.172
 111993559.756 8  87267800.986 7  21311646.273                    21311654.223
 119523392.603 7  93135124.99344  22744534.672                    22744543.590
 127872545.427 6  99641175.89043  24333389.063                    24333401.555
 108551782.752 8  84585792.19046  20656644.992                    20656650.242
 122670881.473 7  95587696.188 6  23343481.469                    23343492.066
 11  8 17  0 55  0.0000000  0  9G17G10G12G04G05G30G09G02G25
 124295934.098 6  96854028.891 6  23652706.695                    23652715.805
 110391995.389 8  86019866.67946  21006873.047                    21006880.750
 110401295.277 8  86027029.072 7  21008662.352                    21008669.406
 117530619.423 7  91582419.82745  22365299.594                    22365307.977
 111919273.828 8  87209915.913 7  21297510.141                    21297518.023
 119442499.269 7  93072091.29844  22729141.352                    22729150.234
 127955281.039 6  99705645.03043  24349133.992                    24349146.082
 108563152.259 8  84594651.55046  20658808.641                    20658814.082
 122581389.540 7  95517962.301 6  23326451.742                    23326462.043
 11  8 17  0 55 30.0000000  0  9G17G10G12G04G05G30G09G02G25
 124356194.099 6  96900984.681 6  23664173.453                    23664182.777
 110419346.760 7  86041179.44646  21012078.203                    21012085.973
 110362827.692 8  85997054.330 7  21001341.969                    21001349.031
 117611801.180 7  91645678.31545  22380747.836                    22380755.957
 111845408.553 8  87152358.609 7  21283453.773                    21283461.477
 119362013.005 7  93009374.78544  22713825.547                    22713833.660
 128038037.231 6  99770130.19743  24364881.844                    24364894.012
 108574761.254 8  84603697.53446  20661017.891                    20661022.906
 122492187.315 7  95448454.134 6  23309476.914                    23309487.648
 11  8 17  0 56  0.0000000  0  9G17G10G12G04G05G30G09G02G25
 124416630.197 6  96948077.686 6  23675674.836                    23675683.305
 110447311.047 8  86062969.80946  21017399.594                    21017407.008
 110324880.391 8  85967484.996 7  20994121.305                    20994128.238
 117693041.886 7  91708982.74145  22396207.820                    22396215.762
 111771966.465 8  87095131.066 7  21269478.211                    21269486.262
 119281936.351 7  92946977.42544  22698587.539                    22698595.441
 128120810.957 6  99834629.03743  24380632.906                    24380644.453
 108586608.053 8  84612928.82046  20663271.969                    20663277.004
 122403277.222 7  95379173.609 6  23292558.391                    23292568.023
 11  8 17  0 56 30.0000000  0  9G17G10G12G04G05G30G09G02G25
 124477243.212 6  96995308.583 6  23687208.789                    23687217.277
 110475887.216 8  86085236.97245  21022837.055                    21022844.977
 110287455.469 8  85938322.711 7  20986999.625                    20987006.648
 117774340.082 7  91772331.94745  22411677.891                    22411686.266
 111698950.001 8  87038235.171 7  21255583.578                    21255591.445
 119202271.994 7  92884901.36244  22683427.641                    22683436.121
 128203599.096 6  99899139.05243  24396387.242                    24396399.289
 108598692.065 8  84622344.94246  20665571.977                    20665576.953
 122314662.067 7  95310122.924 6  23275695.414                    23275705.941
 11  8 17  0 57  0.0000000  0  9G17G10G12G04G05G30G09G02G25
 124538033.437 6  97042677.578 6  23698777.352                    23698785.809
 110505074.195 8  86107980.08046  21028391.180                    21028398.934
 110250554.246 8  85909568.512 7  20979977.352                    20979984.066
 117855694.119 7  91835724.66644  22427159.133                    22427167.176
 111626361.603 8  86981672.836 7  21241770.922                    21241778.555
 119123022.361 7  92823148.44944  22668346.883                    22668355.383
 128286398.415 6  99963657.83542  24412143.156                    24412156.039
 108611011.634 8  84631944.61146  20667916.070                    20667921.523
 122226344.343 7  95241303.971 7  23258889.250                    23258898.859
 11  8 17  0 57 30.0000000  0  9G17G10G12G04G05G30G09G02G25
 124599001.326 6  97090185.023 6  23710378.992                    23710387.051
 110534871.241 8  86131198.57046  21034061.680                    21034069.195
 110214178.599 8  85881223.860 7  20973055.086                    20973062.402
 117937102.395 7  91899159.64345  22442650.414                    22442659.188
 111554203.645 8  86925445.920 7  21228039.273                    21228047.418
 119044190.461 7  92761721.04444  22653345.406                    22653354.008
 128369205.544 6 100028182.67843  24427900.656                    24427913.125
 108623565.729 8  84641727.03946  20670304.945                    20670309.855
 122138326.975 7  95172719.070 7  23242139.914                    23242150.461
 11  8 17  0 58  0.0000000  0  9G17G10G12G04G05G30G09G02G25
 124660147.289 6  97137831.174 6  23722013.367                    23722023.148
 110565277.153 8  86154891.49346  21039847.750                    21039855.633
 110178330.290 8  85853290.114 7  20966233.508                    20966240.773
 118018563.756 7  91962636.01044  22458151.977                    22458160.207
 111482478.654 8  86869556.374 7  21214390.602                    21214398.500
 118965778.884 7  92700621.14444  22638424.203                    22638433.266
 128452017.417 6 100092711.25642  24443659.211                    24443672.637
 108636353.622 8  84651691.63846  20672738.625                    20672743.531
 122050612.835 7  95104370.455 7  23225448.219                    23225458.746
 11  8 17  0 58 30.0000000  0  9G17G10G12G04G05G30G09G02G25
 124721471.395 6  97185616.175 6  23733683.594                    23733692.863
 110596290.961 8  86179058.09846  21045749.711                    21045756.965
 110143010.721 8  85825768.370 7  20959512.469                    20959519.777
 118100076.471 7  92026152.38144  22473663.664                    22473671.867
 111411188.869 8  86814005.943 7  21200824.781                    21200832.508
 118887790.179 7  92639850.75344  22623583.367                    22623591.707
 128534831.298 6 100157241.31742  24459418.711                    24459431.816
 108649373.880 8  84661837.29746  20675216.039                    20675221.430
 121963204.338 7  95036260.004 6  23208814.086                    23208825.324
 11  8 17  0 59  0.0000000  0  9G17G10G12G04G05G30G09G02G25
 124782974.117 6  97233540.350 6  23745388.148                    23745396.102
 110627911.096 8  86203697.17546  21051766.242                    21051774.480
 110108221.170 8  85798659.632 7  20952892.375                    20952899.215
 118181638.919 7  92089707.50444  22489184.508                    22489192.883
 111340336.860 8  86758796.642 7  21187341.906                    21187349.320
 118810226.887 7  92579411.85844  22608823.492                    22608832.227
 128617643.716 6 100221770.28642  24475178.406                    24475190.219
 108662625.120 8  84672162.94346  20677737.750                    20677742.801
 121876104.062 7  94968389.712 7  23192239.836                    23192250.555
 11  8 17  0 59 30.0000000  0  9G17G10G12G04G05G30G09G02G25
 124844655.548 6  97281603.768 6  23757125.586                    23757134.016
 110660136.459 8  86228807.84546  21057898.734                    21057905.941
 110073963.358 8  85771965.244 7  20946373.266                    20946380.559
 118263249.596 7  92153300.21244  22504713.633                    22504722.379
 111269924.757 8  86703930.118 7  21173942.773                    21173950.555
 118733091.457 7  92519306.35644  22594145.414                    22594153.691
 128700451.604 6 100286295.73243  24490936.422                    24490948.191
 108676105.960 8  84682667.49946  20680302.828                    20680308.543
 121789314.613 7  94900761.616 7  23175724.211                    23175735.922
 11  8 17  1  0  0.0000000  0  9G17G10G12G04G05G30G09G02G25
 124906516.099 7  97329806.791 6  23768897.039                    23768905.973
 110692965.777 8  86254389.13246  21064145.906                    21064154.031
 110040238.839 8  85745686.407 7  20939955.609                    20939962.785
 118344906.862 7  92216929.23745  22520253.383                    22520261.691
 111199954.799 8  86649408.135 7  21160627.633                    21160636.090
 118656386.514 7  92459536.30844  22579549.164                    22579556.813
 128783251.859 6 100350815.28743  24506692.398                    24506704.535
 108689815.269 8  84693350.07546  20682911.914                    20682917.203
 121702838.544 7  94833377.732 6  23159268.414                    23159279.035
 11  8 17  1  0 30.0000000  0  9G17G10G12G04G05G30G09G02G25
 124968556.151 6  97378149.645 6  23780702.922                    23780711.281
 110726397.838 8  86280440.08946  21070508.055                    21070515.414
 110007049.217 8  85719824.377 7  20933640.039                    20933646.797
 118426609.465 7  92280593.58245  22535800.805                    22535809.027
 111130429.713 8  86595232.799 7  21147397.555                    21147405.352
 118580114.583 7  92400103.65144  22565034.672                    22565042.605
 128866041.145 6 100415326.25443  24522446.273                    24522459.414
 108703751.848 8  84704209.73646  20685563.633                    20685568.891
 121616678.729 7  94766240.239 6  23142873.305                    23142883.090
 11  8 17  1  1  0.0000000  0  9G17G10G12G04G05G30G09G02G25
 125030776.209 6  97426632.781 6  23792543.375                    23792551.805
 110760431.351 8  86306959.70546  21076984.375                    21076992.031
 109974396.088 8  85694380.379 7  20927426.039                    20927432.969
 118508355.761 7  92344291.98044  22551356.469                    22551364.859
 111061351.714 8  86541405.845 7  21134252.648                    21134260.250
 118504278.352 7  92341010.51444  22550603.563                    22550611.816
 128948816.463 6 100479826.35343  24538198.594                    24538211.348
 108717914.394 8  84715245.49346  20688258.969                    20688264.133
 121530837.674 7  94699351.155 7  23126537.672                    23126548.953
 11  8 17  1  1 30.0000000  0  9G17G10G12G04G05G30G09G02G25
 125093176.043 6  97475256.007 6  23804418.180                    23804426.969
 110795065.441 8  86333947.31546  21083575.258                    21083582.305
 109942280.557 8  85669355.293 7  20921315.000                    20921321.961
 118590144.691 7  92408023.61145  22566920.273                    22566928.891
 110992722.933 8  86487928.908 7  21121192.453                    21121200.402
 118428880.466 7  92282258.94644  22536256.039                    22536264.176
 129031574.831 6 100544313.17243  24553946.656                    24553959.789
 108732302.157 8  84726456.72146  20690997.305                    20691002.348
 121445318.239 7  94632712.673 7  23110264.273                    23110274.977
 11  8 17  1  2  0.0000000  0  9G17G10G12G04G05G30G09G02G25
 125155756.178 6  97524019.692 6  23816325.688                    23816335.254
 110830298.410 8  86361401.57846  21090279.711                    21090287.484
 109910704.265 8  85644750.405 7  20915305.938                    20915312.750
 118671974.528 7  92471787.09145  22582492.078                    22582501.250
 110924545.803 8  86434803.940 7  21108219.188                    21108226.738
 118353923.335 7  92223850.81944  22521992.172                    22521999.895
 129114312.925 6 100608784.26243  24569692.125                    24569704.477
 108746913.492 8  84737842.16946  20693777.156                    20693782.398
 121360122.965 7  94566326.765 7  23094052.055                    23094062.430
 11  8 17  1  2 30.0000000  0  9G17G10G12G04G05G30G09G02G25
 125218517.020 6  97572924.210 6  23828268.859                    23828277.840
 110866128.813 8  86389321.37646  21097098.258                    21097105.488
 109879668.908 8  85620567.005 7  20909400.008                    20909407.402
 118753843.606 7  92535581.16744  22598071.672                    22598079.980
 110856822.467 8  86382032.560 7  21095331.500                    21095339.227
 118279409.617 7  92165788.18944  22507812.422                    22507820.297
 129197027.977 6 100673237.37743  24585431.984                    24585444.230
 108761747.653 8  84749401.25146  20696600.133                    20696605.305
 121275254.572 7  94500195.595 7  23077902.008                    23077912.023
 11  8 17  1  3  0.0000000  0  9G17G10G12G04G05G30G09G02G25
 125281458.794 6  97621969.691 6  23840246.125                    23840255.246
 110902555.552 8  86417705.84846  21104029.664                    21104037.508
 109849175.551 8  85596805.955 7  20903597.648                    20903604.402
 118835750.760 7  92599404.93244  22613657.922                    22613666.777
 110789555.210 8  86329616.571 7  21082531.242                    21082539.020
 118205341.588 7  92108072.86044  22493717.469                    22493725.793
 129279716.706 6 100737669.97943  24601167.742                    24601180.410
 108776802.977 8  84761132.66346  20699465.086                    20699470.195
 121190715.443 7  94434320.975 7  23061814.836                    23061824.762
 11  8 17  1  3 30.0000000  0  9G17G10G12G04G05G30G09G02G25
 125344581.726 6  97671156.346 6  23852258.141                    23852267.188
 110939576.942 8  86446553.68546  21111074.906                    21111081.781
 109819225.578 8  85573468.311 7  20897898.391                    20897905.117
 118917694.599 7  92663257.26944  22629251.117                    22629259.934
 110722745.985 8  86277557.486 7  21069817.789                    21069825.664
 118131721.869 7  92050706.88944  22479708.320                    22479716.395
 129362376.138 6 100802079.76243  24616896.563                    24616910.145
 108792078.687 8  84773035.80146  20702372.031                    20702377.531
 121106508.374 7  94368705.112 7  23045790.586                    23045800.703
 11  8 17  1  4  0.0000000  0  9G17G10G12G04G05G30G09G02G25
 125407886.203 6  97720484.469 6  23864304.703                    23864313.676
 110977191.723 8  86475863.90746  21118232.563                    21118240.203
 109789820.666 8  85550555.397 7  20892302.656                    20892309.695
 118999673.613 7  92727136.99844  22644851.516                    22644859.859
 110656397.657 8  86225857.551 7  21057191.867                    21057199.379
 118058552.954 7  91993692.18945  22465784.641                    22465793.355
 129445003.260 6 100866464.39243  24632620.992                    24632633.836
 108807573.419 8  84785109.60646  20705320.422                    20705325.730
 121022635.991 7  94303350.024 7  23029830.375                    23029840.594
 11  8 17  1  4 30.0000000  0  9G17G10G12G04G05G30G09G02G25
 125471372.260 6  97769954.088 6  23876385.273                    23876394.738
 111015398.148 8  86505635.14545  21125502.781                    21125510.504
 109760961.956 8  85528068.088 7  20886810.742                    20886817.520
 119081686.287 7  92791042.98244  22660457.578                    22660466.195
 110590512.257 8  86174518.326 8  21044654.172                    21044661.762
 117985837.353 7  91937030.69544  22451947.766                    22451955.703
 129527594.992 6 100930821.44143  24648337.078                    24648350.918
 108823285.716 8  84797352.94346  20708310.477                    20708315.461
 120939100.905 7  94238257.786 7  23013934.172                    23013944.957
 11  8 17  1  5  0.0000000  0  9G17G10G12G04G05G30G09G02G25
 125535040.422 6  97819565.573 6  23888501.023                    23888510.688
 111054194.955 8  86535866.40845  21132885.742                    21132893.309
 109732651.237 8  85506007.784 7  20881423.625                    20881430.965
 119163731.607 7  92854974.40544  22676070.688                    22676078.859
 110525091.761 8  86123541.376 7  21032205.359                    21032213.055
 117913577.583 7  91880724.41844  22438196.898                    22438205.008
 129610148.164 6 100995148.43844  24664047.227                    24664060.648
 108839214.849 8  84809765.24446  20711341.664                    20711347.383
 120855905.842 7  94173430.506 7  22998102.391                    22998113.211
 11  8 17  1  5 30.0000000  0  9G17G10G12G04G05G30G09G02G25
 125598890.882 6  97869319.171 6  23900651.242                    23900660.336
 111093580.756 8  86566556.64445  21140380.391                    21140387.648
 109704889.390 8  85484375.168 7  20876140.516                    20876147.582
 119245807.944 7  92918929.97144  22691689.492                    22691698.180
 110460138.492 8  86072928.486 7  21019845.125                    21019852.809
 117841776.124 7  91824775.29345  22424533.281                    22424541.621
 129692659.870 6 101059443.03743  24679748.000                    24679761.918
 108855359.633 8  84822345.58046  20714413.859                    20714419.355
 120773053.438 7  94108870.194 7  22982336.234                    22982346.488
 11  8 17  1  6  0.0000000  0  9G17G10G12G04G05G30G09G02G25
 125662923.738 6  97919214.870 6  23912837.250                    23912845.598
 111133554.077 8  86597704.68046  21147987.047                    21147995.289
 109677677.655 8  85463171.205 7  20870962.570                    20870969.352
 119327914.030 7  92982908.73544  22707313.156                    22707322.523
 110395654.653 8  86022681.382 7  21007574.227                    21007581.586
 117770435.353 7  91769185.11645  22410957.477                    22410966.180
 129775126.939 6 101123702.89443  24695440.813                    24695454.836
 108871718.559 8  84835092.80146  20717527.188                    20717532.102
 120690546.134 7  94044578.822 7  22966635.500                    22966645.949
 11  8 17  1  6 30.0000000  0  9G17G10G12G04G05G30G09G02G25
 125727139.351 6  97969253.002 6  23925056.000                    23925065.422
 111174113.281 8  86629309.23946  21155705.328                    21155712.992
 109651017.366 8  85442396.952 7  20865889.320                    20865896.070
 119410048.327 7  93046909.49744  22722943.266                    22722951.531
 110331642.347 8  85972801.715 7  20995392.859                    20995400.215
 117699557.758 7  91713955.85845  22397470.039                    22397477.953
 129857546.541 6 101187925.72843  24711125.555                    24711139.063
 108888290.691 8  84848006.14446  20720680.398                    20720685.578
 120608386.688 7  93980558.527 7  22951001.141                    22951011.043
 11  8 17  1  7  0.0000000  0  9G17G10G12G04G05G30G09G02G25
 125791537.738 6  98019433.565 6  23937311.547                    23937319.648
 111215256.462 8  86661368.85945  21163534.727                    21163542.211
 109624909.919 8  85422053.479 7  20860920.984                    20860927.918
 119492209.587 7  93110931.25244  22738578.070                    22738586.543
 110268103.318 8  85923290.841 7  20983301.352                    20983309.328
 117629145.632 7  91659089.30945  22384070.789                    22384079.516
 129939915.589 6 101252109.13943  24726800.023                    24726813.609
 108905074.540 8  84861084.46046  20723874.195                    20723879.848
 120526577.533 7  93916811.173 7  22935433.414                    22935443.371
 11  8 17  1  7 30.0000000  0  9G17G10G12G04G05G30G09G02G25
 125856119.104 7  98069756.695 6  23949600.914                    23949609.094
 111256982.215 8  86693882.42645  21171474.797                    21171482.352
 109599356.242 8  85402141.520 7  20856058.414                    20856065.227
 119574396.497 7  93174972.99144  22754217.266                    22754225.859
 110205039.790 8  85874150.468 7  20971301.086                    20971309.059
 117559201.214 7  91604587.18945  22370760.836                    22370769.332
 130022231.116 6 101316250.92243  24742464.305                    24742478.063
 108922068.873 8  84874326.79146  20727108.250                    20727113.402
 120445121.131 7  93853338.681 7  22919932.586                    22919942.176
 11  8 17  1  8  0.0000000  0  9G17G10G12G04G05G30G09G02G25
 125920883.900 7  98120222.799 6  23961925.055                    23961933.582
 111299289.478 8  86726849.13945  21179525.367                    21179533.809
 109574358.161 8  85382662.473 7  20851301.023                    20851308.004
 119656607.645 7  93239033.60644  22769861.805                    22769869.785
 110142454.343 8  85825382.642 7  20959391.578                    20959399.141
 117489727.244 7  91550451.66545  22357540.633                    22357549.105
 130104490.381 6 101380348.88242  24758117.281                    24758131.098
 108939272.922 8  84887732.54746  20730382.258                    20730387.207
 120364020.408 7  93790143.362 7  22904499.648                    22904509.988
 11  8 17  1  8 30.0000000  0  9G17G10G12G04G05G30G09G02G25
 125985832.159 7  98170831.806 6  23974284.273                    23974292.391
 111342175.786 8  86760267.02845  21187686.797                    21187694.492
 109549915.793 8  85363616.472 7  20846650.391                    20846657.387
 119738841.541 7  93303111.94744  22785510.063                    22785518.918
 110080348.479 8  85776988.504 7  20947573.078                    20947580.965
 117420725.758 7  91496684.30745  22344409.695                    22344418.234
 130186690.116 6 101444400.36142  24773759.289                    24773773.078
 108956684.951 8  84901300.35846  20733695.445                    20733701.070
 120283277.601 7  93727226.924 7  22889134.625                    22889145.027
 11  8 17  1  9  0.0000000  0  9G17G10G12G04G05G30G09G02G25
 126050964.060 7  98221583.965 6  23986678.992                    23986687.387
 111385639.915 8  86794135.19245  21195957.188                    21195965.508
 109526030.778 8  85345004.767 7  20842105.094                    20842111.887
 119821097.278 7  93367207.29144  22801163.477                    22801171.211
 110018724.585 8  85728969.937 7  20935845.828                    20935854.227
 117352199.391 7  91443287.15845  22331369.492                    22331377.934
 130268827.213 6 101508403.06942  24789389.539                    24789403.988
 108974304.417 8  84915029.80946  20737048.375                    20737053.500
 120202895.577 7  93664591.638 7  22873838.703                    22873849.090
 11  8 17  1  9 30.0000000  0  9G17G10G12G04G05G30G09G02G25
 126116280.039 7  98272479.548 6  23999107.445                    23999116.301
 111429680.434 8  86828452.48045  21204337.859                    21204345.746
 109502704.458 8  85326828.403 7  20837666.367                    20837673.285
 119903373.405 7  93431318.51444  22816819.656                    22816828.395
 109957584.663 8  85681328.477 7  20924211.641                    20924219.508
 117284150.438 7  91390262.04845  22318421.008                    22318429.020
 130350899.009 6 101572354.89242  24805007.656                    24805022.480
 108992129.979 8  84928919.86046  20740440.484                    20740445.977
 120122876.838 7  93602239.394 7  22858611.508                    22858621.902
 11  8 17  1 10  0.0000000  0  9G17G10G12G04G05G30G09G02G25
 126181780.038 7  98323518.494 6  24011571.844                    24011581.227
 111474295.485 8  86863217.45545  21212828.289                    21212835.684
 109479938.181 8  85309088.455 7  20833334.078                    20833341.215
 119985668.691 7  93495444.67044  22832480.492                    22832488.777
 109896930.801 8  85634065.766 7  20912669.672                    20912677.613
 117216581.291 7  91337610.78745  22305562.547                    22305570.828
 130432902.572 5 101636253.56942  24820612.883                    24820628.082
 109010160.550 8  84942969.65946  20743871.461                    20743876.789
 120043224.035 7  93540172.322 7  22843454.664                    22843464.445
 11  8 17  1 10 30.0000000  0  9G17G10G12G04G05G30G09G02G25
 126247464.325 6  98374701.038 6  24024070.828                    24024080.594
 111519482.972 7  86898428.50346  21221426.734                    21221435.270
 109457732.680 8  85291785.465 7  20829107.992                    20829115.688
 120067981.560 7  93559584.52144  22848143.766                    22848152.418
 109836764.900 8  85587183.292 7  20901220.516                    20901228.121
 117149494.176 7  91285335.13745  22292796.063                    22292804.426
 130514834.853 6 101700096.74942  24836204.773                    24836218.324
 109028394.677 8  84957178.06246  20747341.258                    20747346.695
 119963939.557 7  93478392.264 7  22828366.664                    22828377.250
 11  8 17  1 11  0.0000000  0  9G17G10G12G04G05G30G09G02G25
 126313332.861 6  98426027.119 6  24036605.969                    24036614.906
 111565241.247 7  86934084.30545  21230134.367                    21230142.434
 109436088.721 8  85274920.058 7  20824989.797                    20824996.672
 120150311.082 7  93623737.38244  22863810.539                    22863819.289
 109777088.807 8  85540682.484 8  20889864.625                    20889872.324
 117082891.229 7  91233436.77045  22280122.586                    22280130.281
 130596692.727 6 101763881.88342  24851780.859                    24851795.457
 109046831.102 8  84971544.10646  20750849.656                    20750855.004
 119885025.854 7  93416901.084 7  22813350.031                    22813359.879
 11  8 17  1 11 30.0000000  0  9G17G10G12G04G05G30G09G02G25
 126379386.587 6  98477497.529 6  24049174.992                    24049184.117
 111611569.317 7  86970184.11445  21238950.797                    21238957.727
 109415008.493 8  85258493.903 7  20820978.430                    20820985.012
 120232656.577 7  93687902.65644  22879480.313                    22879489.855
 109717905.353 8  85494565.542 8  20878602.266                    20878609.613
 117016775.751 7  91181918.23645  22267540.797                    22267548.695
 130678474.136 6 101827607.54142  24867344.039                    24867358.859
 109065469.450 8  84986067.50246  20754396.789                    20754401.898
 119806486.334 7  93355701.483 7  22798404.336                    22798414.391
 11  8 17  1 12  0.0000000  0  8G17G10G12G04G05G30G02G25
 126445625.957 6  98529112.592 6  24061780.055                    24061789.434
 111658465.549 8  87006726.63145  21247874.211                    21247881.969
 109394493.091 8  85242507.889 7  20817074.250                    20817080.918
 120315017.071 7  93752079.61944  22895152.938                    22895161.941
 109659216.339 8  85448833.889 8  20867433.820                    20867441.820
 116951150.124 7  91130781.39145  22255052.258                    22255060.762
 109084308.976 8  85000747.64946  20757981.531                    20757986.734
 119728323.804 7  93294795.635 7  22783530.719                    22783540.477
 11  8 17  1 12 30.0000000  0  8G17G10G12G04G05G30G02G25
 126512050.001 6  98580871.544 6  24074419.641                    24074429.453
 111705927.081 8  87043709.63445  21256905.805                    21256913.691
 109374542.297 8  85226961.822 7  20813278.039                    20813284.738
 120397390.179 7  93816266.41644  22910828.219                    22910837.207
 109601023.200 8  85403488.622 7  20856360.148                    20856367.996
 116886015.414 7  91080027.08745  22242657.758                    22242665.906
 109103347.404 8  85015582.78246  20761604.391                    20761610.117
 119650539.530 7  93234184.546 7  22768728.703                    22768738.449
 11  8 17  1 13  0.0000000  0  8G17G10G12G04G05G30G02G25
 126578658.691 6  98632774.353 6  24087095.500                    24087104.738
 111753951.994 8  87081131.65045  21266044.750                    21266052.633
 109355157.246 8  85211856.595 7  20809589.109                    20809595.926
 120479774.758 7  93880462.16544  22926505.656                    22926514.270
 109543327.582 8  85358531.027 7  20845380.844                    20845388.523
 116821373.911 7  91029657.08745  22230357.195                    22230365.398
 109122583.414 8  85030571.87546  20765264.711                    20765270.082
 119573136.078 7  93173870.200 7  22753999.219                    22754008.727
 11  8 17  1 13 30.0000000  0  8G17G10G12G04G05G30G02G25
 126645452.519 6  98684821.474 6  24099805.445                    24099815.180
 111802538.761 8  87118991.46945  21275290.789                    21275298.426
 109336339.085 8  85197193.098 7  20806007.875                    20806014.711
 120562169.655 7  93944665.95644  22942184.500                    22942193.199
 109486131.381 8  85313962.600 7  20834497.023                    20834504.609
 116757227.989 7  90979673.24745  22218150.508                    22218158.832
 109142016.168 8  85045714.28846  20768962.805                    20768968.309
 119496116.145 7  93113854.681 6  22739342.563                    22739352.141
 11  8 17  1 14  0.0000000  0  8G17G10G12G04G05G30G02G25
 126712431.457 6  98737012.857 6  24112551.594                    24112560.992
 111851685.338 8  87157287.50745  21284643.352                    21284650.457
 109318088.617 8  85182971.967 7  20802535.219                    20802542.266
 120644573.598 7  94008876.77444  22957865.195                    22957874.563
 109429436.408 8  85269784.727 8  20823708.641                    20823715.871
 116693579.870 7  90930077.31545  22206038.586                    22206046.527
 109161644.409 8  85061009.01546  20772697.906                    20772703.164
 119419482.225 7  93054139.978 7  22724759.617                    22724768.859
 11  8 17  1 14 30.0000000  0  8G17G10G12G04G05G30G02G25
 126779595.473 6  98789348.435 6  24125332.664                    24125341.727
 111901389.756 8  87196018.23445  21294101.273                    21294109.250
 109300406.639 8  85169193.810 7  20799170.477                    20799176.828
 120726985.371 7  94073093.72244  22973547.930                    22973557.328
 109373244.501 8  85225998.866 8  20813015.258                    20813022.914
 116630431.655 7  90880870.92045  22194022.109                    22194029.961
 109181466.738 8  85076454.98146  20776470.070                    20776475.297
 119343236.678 7  92994727.874 7  22710251.000                    22710261.031
 11  8 17  1 15  0.0000000  0  8G17G10G12G04G05G30G02G25
 126846944.856 6  98841828.452 6  24138148.508                    24138158.199
 111951650.153 8  87235182.17445  21303665.414                    21303673.652
 109283293.990 8  85155859.292 8  20795913.891                    20795920.672
 120809403.722 6  94137315.76244  22989231.695                    22989240.770
 109317557.827 8  85182606.673 7  20802418.500                    20802426.262
 116567785.556 7  90832055.77945  22182100.992                    22182108.414
 109201482.314 8  85092051.53146  20780278.797                    20780284.586
 119267382.046 7  92935620.383 7  22695815.594                    22695825.219
 11  8 17  1 15 30.0000000  0  8G17G10G12G04G05G30G02G25
 126914479.893 6  98894453.111 6  24151000.500                    24151009.020
 112002464.707 8  87274777.92745  21313335.328                    21313342.938
 109266751.863 8  85142969.326 7  20792766.211                    20792772.898
 120891827.818 6  94201542.30144  23004916.570                    23004925.301
 109262377.873 8  85139609.353 8  20791918.180                    20791925.750
 116505643.858 7  90783633.67345  22170275.555                    22170283.348
 109221690.174 8  85107797.91346  20784124.094                    20784129.367
 119191920.967 7  92876819.574 7  22681456.086                    22681466.160
 11  8 17  1 16  0.0000000  0  8G17G10G12G04G05G30G02G25
 126982200.368 6  98947222.342 5  24163887.484                    24163895.840
 112053831.402 8  87314803.92745  21323110.188                    21323117.758
 109250780.868 8  85130524.391 8  20789726.844                    20789733.641
 120974256.497 7  94265772.40444  23020602.656                    23020610.336
 109207706.581 8  85097008.366 8  20781514.344                    20781522.027
 116444008.749 7  90735606.30445  22158546.891                    22158554.715
 109242088.965 8  85123693.07446  20788006.445                    20788011.578
 119116855.897 7  92818327.330 7  22667171.547                    22667181.926
 11  8 17  1 16 30.0000000  0  8G17G10G12G04G05G30G02G25
 127050106.518 7  99000136.194 6  24176809.773                    24176817.957
 112105748.213 7  87355258.56645  21332989.641                    21332997.383
 109235381.714 8  85118525.050 7  20786796.516                    20786803.434
 121056688.228 7  94330004.88844  23036288.758                    23036297.965
 109153545.462 8  85054804.934 7  20771208.094                    20771215.781
 116382882.111 7  90687975.15445  22146915.281                    22146922.832
 109262677.345 8  85139735.95746  20791923.813                    20791928.840
 119042189.112 7  92760145.429 7  22652963.320                    22652973.168
 11  8 17  1 17  0.0000000  0  8G17G10G12G04G05G30G02G25
 127118198.515 6  99053194.921 6  24189766.922                    24189775.754
 112158213.233 8  87396140.40545  21342973.344                    21342980.676
 109220555.627 8  85106972.256 8  20783975.375                    20783982.492
 121139122.328 7  94394239.23544  23051975.438                    23051984.074
 109099896.822 8  85013000.826 8  20760998.734                    20761006.594
 116322266.479 7  90640742.19045  22135380.117                    22135387.840
 109283454.900 8  85155926.25946  20795877.883                    20795883.023
 118967923.486 8  92702276.097 7  22638830.984                    22638841.004
 11  8 17  1 17 30.0000000  0  8G17G10G12G04G05G30G02G25
 127186476.124 7  99106398.255 6  24202759.680                    24202768.695
 112211224.094 8  87437447.56145  21353061.547                    21353068.629
 109206302.777 8  85095866.136 7  20781262.719                    20781270.047
 121221557.392 7  94458474.32244  23067662.758                    23067671.043
 109046762.044 8  84971597.132 8  20750887.484                    20750895.441
 116262163.593 7  90593908.75645  22123942.586                    22123950.652
 109304419.878 8  85172262.61346  20799867.555                    20799873.125
 118894061.070 8  92644720.986 7  22624775.406                    22624785.371
 11  8 17  1 18  0.0000000  0  8G17G10G12G04G05G30G02G25
 127254939.618 6  99159746.471 6  24215788.164                    24215796.660
 112264779.007 7  87479178.65245  21363252.586                    21363260.117
 109192624.087 8  85085207.399 7  20778659.922                    20778667.227
 121303992.384 7  94522709.37244  23083349.078                    23083357.727
 108994142.650 8  84930595.029 8  20740874.609                    20740882.453
 116202575.580 7  90547476.55045  22112603.383                    22112611.184
 109325571.184 8  85188744.15246  20803892.484                    20803898.086
 118820604.364 7  92587482.002 7  22610796.922                    22610807.484
 11  8 17  1 18 30.0000000  0  8G17G10G12G04G05G30G02G25
 127323588.978 6  99213239.508 6  24228851.070                    24228859.852
 112318875.797 7  87521331.99245  21373546.680                    21373553.762
 109179520.451 8  85074996.766 8  20776166.461                    20776173.566
 121386426.066 7  94586943.36644  23099035.844                    23099044.480
 108942040.673 8  84889996.113 8  20730959.813                    20730967.387
 116143504.657 7  90501447.25045  22101362.617                    22101370.742
 109346907.826 8  85205370.09746  20807952.594                    20807957.984
 118747555.962 7  92530561.152 7  22596896.445                    22596906.676
 11  8 17  1 19  0.0000000  0  8G17G10G12G04G05G30G02G25
 127392424.283 6  99266877.405 6  24241950.492                    24241958.980
 112373512.376 7  87563905.94345  21383943.344                    21383951.422
 109166992.400 8  85065234.642 7  20773782.289                    20773789.160
 121468857.327 7  94651175.51444  23114722.852                    23114730.980
 108890457.798 8  84849801.694 8  20721143.922                    20721151.570
 116084952.670 7  90455822.33445  22090220.727                    22090228.676
 109368428.606 8  85222139.53046  20812047.961                    20812053.250
 118674918.035 8  92473960.185 7  22583073.641                    22583084.164
 11  8 17  1 19 30.0000000  0  8G17G10G12G04G05G30G02G25
 127461445.868 6  99320660.490 6  24255084.219                    24255093.230
 112428687.074 7  87606899.19445  21394443.125                    21394450.727
 109155041.170 8  85055921.988 8  20771508.461                    20771515.371
 121551285.422 7  94715405.16444  23130407.617                    23130416.023
 108839395.352 8  84810012.803 8  20711427.203                    20711434.723
 116026921.921 7  90410603.56645  22079177.758                    22079186.066
 109390132.775 8  85239051.88046  20816178.070                    20816184.078
 118602693.324 7  92417681.176 7  22569329.836                    22569340.078
 11  8 17  1 20  0.0000000  0  8G17G10G12G04G05G30G02G25
 127530653.491 6  99374588.506 6  24268253.969                    24268263.949
 112484397.780 7  87650310.14345  21405043.656                    21405051.988
 109143666.543 8  85047058.634 7  20769343.328                    20769350.430
 121633709.090 7  94779631.39044  23146091.508                    23146101.059
 108788855.314 8  84770630.988 7  20701809.828                    20701817.129
 115969414.358 7  90365792.46945  22068234.766                    22068243.012
 109412019.066 7  85256106.14046  20820342.555                    20820348.344
 118530884.165 7  92361725.978 7  22555665.125                    22555675.563
 11  8 17  1 20 30.0000000  0  8G17G10G12G04G05G30G02G25
 127600047.098 6  99428661.458 6  24281458.891                    24281468.395
 112540642.001 8  87694136.79345  21415747.305                    21415754.652
 109132869.501 8  85038645.343 7  20767289.094                    20767295.727
 121716127.345 7  94843853.36744  23161776.844                    23161785.348
 108738839.134 8  84731657.373 8  20692291.594                    20692299.242
 115912431.922 7  90321390.58545  22057391.156                    22057399.188
 109434086.229 8  85273301.33246  20824542.266                    20824546.914
 118459492.835 7  92306096.360 7  22542079.750                    22542089.969
 11  8 17  1 21  0.0000000  0  8G17G10G12G04G05G30G02G25
 127669626.724 6  99482879.326 6  24294699.633                    24294709.316
 112597417.355 7  87738377.31545  21426551.367                    21426559.078
 109122650.598 8  85030682.552 7  20765344.664                    20765351.305
 121798538.904 7  94908070.17744  23177457.977                    23177467.426
 108689348.285 8  84693093.101 8  20682874.047                    20682881.797
 115855976.470 7  90277399.33345  22046647.734                    22046655.969
 109456333.126 8  85290636.57946  20828775.531                    20828780.285
 118388521.740 7  92250794.214 7  22528574.742                    22528584.258
 11  8 17  1 21 30.0000000  0  9G17G10G12G04G05G30G29G02G25
 127739392.458 6  99537242.233 6  24307975.656                    24307984.977
 112654721.821 7  87783030.14345  21437456.023                    21437463.840
 109113010.167 7  85023170.524 7  20763509.594                    20763517.168
 121880942.878 7  94972281.00944  23193139.547                    23193147.715
 108640384.156 8  84654939.264 8  20673556.469                    20673563.918
 115800049.961 7  90233820.24745  22036004.867                    22036013.543
 129508949.36616 100916120.42516  24644742.805                    24644751.980
 109478758.631 8  85308111.00246  20833042.891                    20833047.996
 118317973.182 7  92195821.286 7  22515149.195                    22515159.688
 11  8 17  1 22  0.0000000  0  9G17G10G12G04G05G30G29G02G25
 127809344.720 6  99591750.511 6  24321286.898                    24321296.953
 112712553.698 7  87828093.92445  21448461.148                    21448468.660
 109103949.413 7  85016110.199 7  20761786.047                    20761792.961
 121963338.535 7  95036485.39144  23208818.813                    23208827.320
 108591949.137 8  84617197.729 8  20664339.180                    20664347.090
 115744655.021 7  90190655.39345  22025463.922                    22025472.051
 129429432.619 6 100854159.348 6  24629610.953                    24629620.863
 109501362.293 7  85325724.25246  20837344.086                    20837349.672
 118247850.091 7  92141179.923 7  22501805.445                    22501815.801
 11  8 17  1 22 30.0000000  0  9G17G10G12G04G05G30G29G02G25
 127879483.295 6  99646403.943 6  24334633.750                    24334643.516
 112770910.874 7  87873567.05645  21459565.766                    21459573.613
 109095468.809 8  85009501.917 7  20760172.039                    20760179.035
 122045724.917 6  95100682.53844  23224495.688                    23224505.301
 108544044.463 8  84579869.444 8  20655223.297                    20655230.422
 115689793.199 7  90147905.93645  22015024.258                    22015032.375
 129349839.704 6 100792138.934 6  24614465.250                    24614474.457
 109524142.938 8  85343475.41046  20841679.305                    20841684.258
 118178154.652 7  92086871.796 7  22488543.172                    22488553.438
 11  8 17  1 23  0.0000000  0  9G17G10G12G04G05G30G29G02G25
 127949807.953 6  99701202.375 6  24348016.586                    24348025.676
 112829791.090 8  87919447.73545  21470770.563                    21470778.145
 109087568.455 8  85003345.804 7  20758668.445                    20758675.785
 122128100.729 7  95164871.44144  23240172.031                    23240180.871
 108496671.475 8  84542955.457 8  20646208.984                    20646216.270
 115635466.299 7  90105573.31345  22004685.969                    22004693.652
 129270170.820 6 100730059.309 6  24599305.383                    24599314.859
 109547099.327 8  85361363.50146  20846047.563                    20846052.707
 118108888.953 7  92032898.538 7  22475361.828                    22475372.688
 11  8 17  1 23 30.0000000  0  9G17G10G12G04G05G30G29G02G25
 128020318.584 6  99756145.695 6  24361434.438                    24361443.699
 112889191.684 7  87965733.90045  21482074.227                    21482082.133
 109080249.033 8  84997642.347 8  20757275.836                    20757283.012
 122210464.743 7  95229051.18044  23255845.086                    23255853.875
 108449831.126 8  84506456.515 8  20637295.047                    20637302.633
 115581676.023 7  90063658.83445  21994450.055                    21994458.652
 129190426.406 6 100667920.831 6  24584129.750                    24584139.703
 109570229.998 8  85379387.41246  20850449.266                    20850454.820
 118040055.263 7  91979261.913 7  22462263.523                    22462273.430
 11  8 17  1 24  0.0000000  0  9G17G10G12G04G05G30G29G02G25
 128091014.987 6  99811233.786 6  24374888.336                    24374896.172
 112949110.000 7  88012423.48645  21493475.609                    21493483.918
 109073510.339 8  84992391.434 7  20755993.219                    20756000.219
 122292815.874 7  95293220.88244  23271516.594                    23271525.203
 108403525.289 8  84470374.065 8  20628483.563                    20628490.910
 115528424.002 7  90022163.79245  21984316.836                    21984325.152
 129110607.040 6 100605723.925 6  24568940.305                    24568950.063
 109593533.816 8  85397546.22546  20854883.422                    20854889.422
 117971655.643 7  91925963.537 7  22449247.234                    22449256.980
 11  8 17  1 24 30.0000000  0  9G17G10G12G04G05G30G29G02G25
 128161897.305 6  99866466.803 6  24388376.484                    24388384.414
 113009544.180 7  88059515.06145  21504976.070                    21504984.121
 109067353.387 8  84987593.799 7  20754821.859                    20754828.574
 122375153.364 7  95357379.96744  23287184.781                    23287193.441
 108357755.418 8  84434709.271 8  20619773.617                    20619781.090
 115475712.413 7  89981089.86545  21974285.703                    21974294.523
 129030713.119 6 100543468.921 6  24553738.172                    24553746.934
 109617009.835 8  85415839.22546  20859350.898                    20859356.508
 117903692.697 7  91873005.420 7  22436314.633                    22436324.090
 11  8 17  1 25  0.0000000  0  9G17G10G12G04G05G30G29G02G25
 128232965.475 6  99921844.587 6  24401899.203                    24401909.520
 113070491.786 7  88107006.69745  21516574.414                    21516581.922
 109061778.176 8  84983249.489 7  20753760.914                    20753767.980
 122457476.187 7  95421527.61144  23302850.023                    23302859.316
 108312522.613 8  84399462.957 8  20611166.031                    20611173.750
 115423542.838 7  89940438.29645  21964358.180                    21964366.301
 128950745.126 6 100481156.236 6  24538519.750                    24538529.602
 109640656.873 8  85434265.49446  20863850.914                    20863856.031
 117836168.507 7  91820389.210 7  22423464.867                    22423475.215
 11  8 17  1 25 30.0000000  0  9G17G10G12G04G05G30G29G02G25
 128304219.680 6  99977367.335 6  24415458.977                    24415467.918
 113131950.970 7  88154896.96245  21528269.813                    21528276.840
 109056785.338 8  84979358.974 7  20752810.453                    20752817.621
 122539783.662 6  95485663.29844  23318512.953                    23318521.371
 108267828.680 8  84364636.553 8  20602661.117                    20602668.660
 115371917.449 7  89900210.76445  21954534.039                    21954541.840
 128870704.142 6 100418786.652 5  24523288.531                    24523298.270
 109664474.529 8  85452824.70746  20868382.992                    20868388.320
 117769085.836 7  91768117.031 7  22410699.781                    22410709.238
 11  8 17  1 26  0.0000000  0  9G17G10G12G04G05G30G29G02G25
 128375659.652 6 100033034.850 6  24429052.227                    24429062.395
 113193919.414 7  88203184.06945  21540061.547                    21540069.523
 109052375.313 8  84975922.598 8  20751971.125                    20751978.188
 122622074.691 7  95549786.14844  23334172.195                    23334180.945
 108223675.099 8  84330231.192 8  20594259.180                    20594266.566
 115320837.955 7  89860408.60645  21944814.109                    21944821.750
 128790590.636 6 100356360.596 5  24508043.430                    24508052.547
 109688461.513 8  85471515.86646  20872948.164                    20872953.379
 117702446.768 7  91716190.535 7  22398018.523                    22398028.199
 11  8 17  1 26 30.0000000  0  9G17G10G12G04G05G30G29G02G25
 128447285.419 6 100088847.101 6  24442683.648                    24442692.484
 113256394.436 7  88251865.91645  21551950.875                    21551957.914
 109048548.256 8  84972940.489 7  20751243.414                    20751249.879
 122704348.427 7  95613895.54944  23349828.484                    23349837.223
 108180062.906 8  84296247.696 8  20585959.914                    20585967.117
 115270306.044 7  89821033.13745  21935198.320                    21935205.563
 128710405.104 6 100293878.357 5  24492785.102                    24492794.086
 109712616.723 8  85490338.10746  20877544.531                    20877549.875
 117636253.516 7  91664611.435 7  22385421.891                    22385431.758
 11  8 17  1 27  0.0000000  0  9G17G10G12G04G05G30G29G02G25
 128519096.625 6 100144803.887 6  24456347.992                    24456357.891
 113319373.377 7  88300940.43045  21563934.508                    21563942.512
 109045304.389 8  84970412.800 7  20750625.680                    20750632.453
 122786603.514 6  95677990.41944  23365480.766                    23365489.996
 108136993.303 8  84262686.993 8  20577764.063                    20577771.242
 115220323.276 7  89782085.56145  21925687.180                    21925694.559
 128630148.028 6 100231340.397 5  24477511.469                    24477520.969
 109736938.646 8  85509290.26046  20882172.586                    20882177.910
 117570508.073 7  91613381.263 7  22372911.367                    22372920.930
 11  8 17  1 27 30.0000000  0  9G17G10G12G04G05G30G29G02G25
 128591093.432 6 100200905.307 6  24470049.242                    24470058.727
 113382854.439 7  88350406.19745  21576014.836                    21576022.645
 109042644.023 8  84968339.798 7  20750119.969                    20750127.055
 122868839.302 6  95742070.21243  23381129.625                    23381138.855
 108094467.542 8  84229550.072 8  20569671.734                    20569679.188
 115170891.530 8  89743567.36445  21916280.328                    21916288.262
 128549820.061 6 100168747.215 5  24462226.039                    24462235.188
 109761426.669 8  85528371.82946  20886832.977                    20886837.844
 117505212.974 7  91562502.026 7  22360485.672                    22360495.625
 11  8 17  1 28  0.0000000  0  9G17G10G12G04G05G30G29G02G25
 128663275.585 6 100257151.146 6  24483785.398                    24483794.016
 113446835.062 7  88400261.21145  21588189.992                    21588197.688
 109040566.999 8  84966721.339 7  20749724.305                    20749731.074
 122951055.059 6  95806134.42143  23396774.844                    23396784.801
 108052487.277 8  84196838.206 8  20561683.141                    20561690.516
 115122012.427 7  89705479.78545  21906978.969                    21906986.898
 128469421.889 6 100106099.305 5  24446926.641                    24446935.477
 109786079.596 8  85547581.90446  20891523.797                    20891529.727
 117440370.348 7  91511975.366 7  22348146.891                    22348156.859
 11  8 17  1 28 30.0000000  0  9G17G10G12G04G05G30G29G02G25
 128735642.914 6 100313541.252 6  24497556.031                    24497565.629
 113511312.371 7  88450503.28445  21600459.195                    21600467.195
 109039074.029 8  84965558.001 7  20749440.289                    20749447.305
 123033249.494 6  95870182.00544  23412416.492                    23412425.547
 108011053.507 8  84164552.173 8  20553798.195                    20553806.000
 115073687.580 8  89667824.09445  21897783.047                    21897790.707
 128388954.151 6 100043397.242 6  24431614.297                    24431624.008
 109810896.295 8  85566919.58846  20896246.313                    20896251.586
 117375982.212 7  91461802.863 7  22335893.828                    22335904.379
 11  8 17  1 29  0.0000000  0  9G17G10G12G04G05G30G29G02G25
 128808197.302 6 100370077.109 6  24511362.781                    24511371.930
 113576286.159 8  88501132.18545  21612823.641                    21612831.680
 109038166.634 8  84964850.955 7  20749267.656                    20749274.461
 123115423.422 6  95934213.63744  23428052.945                    23428062.195
 107970169.168 8  84132694.268 8  20546018.203                    20546025.527
 115025920.428 7  89630602.98345  21888693.109                    21888701.375
 128308418.866 6  99980642.578 5  24416288.648                    24416297.762
 109835877.709 8  85586385.62646  20901000.563                    20901006.027
 117312052.628 7  91411987.648 7  22323728.531                    22323739.121
 11  8 17  1 29 30.0000000  0  8G10G12G04G05G30G29G02G25
 113641752.970 7  88552145.27645  21625282.070                    21625289.824
 109037844.133 8  84964599.651 7  20749206.492                    20749213.281
 123197575.230 6  95998228.02643  23443686.234                    23443695.133
 107929834.261 8  84101264.503 8  20538343.133                    20538349.945
 114978711.521 7  89593816.85845  21879709.609                    21879717.574
 128227815.872 6  99917835.128 6  24400950.531                    24400959.336
 109861021.689 8  85605978.33746  20905784.773                    20905790.195
 117248582.709 7  91362530.610 7  22311650.883                    22311660.652
 11  8 17  1 30  0.0000000  0  8G10G12G04G05G30G29G02G25
 113707709.016 7  88603539.60245  21637832.602                    21637840.730
 109038105.531 8  84964803.340 7  20749255.883                    20749262.898
 123279703.086 6  96062223.76043  23459315.195                    23459323.875
 107890049.167 8  84070263.154 8  20530772.047                    20530779.262
 114932061.455 8  89557466.19945  21870832.539                    21870840.352
 128147145.160 6  99854974.917 6  24385599.773                    24385608.152
 109886326.471 8  85625696.33846  20910600.328                    20910605.500
 117185573.661 7  91313432.706 7  22299660.570                    22299670.465
 11  8 17  1 30 30.0000000  0  8G10G12G04G05G30G29G02G25
 113774152.424 8  88655313.69345  21650476.352                    21650484.141
 109038951.523 8  84965462.555 7  20749417.078                    20749423.840
 123361806.105 6  96126200.13343  23474937.758                    23474946.961
 107850815.206 8  84039691.262 8  20523305.992                    20523313.543
 114885972.151 8  89521552.46945  21862061.281                    21862069.641
 128066407.263 7  99792062.356 6  24370235.508                    24370244.629
 109911791.062 8  85645538.88146  20915446.055                    20915451.688
 117123027.869 7  91264695.770 7  22287758.305                    22287768.590
 11  8 17  1 31  0.0000000  0  8G10G12G04G05G30G29G02G25
 113841080.421 7  88707465.38345  21663212.203                    21663219.875
 109040381.574 8  84966576.882 7  20749689.258                    20749695.902
 123443883.271 7  96190156.35744  23490557.461                    23490565.980
 107812133.498 8  84009549.693 8  20515945.211                    20515952.488
 114840444.837 8  89486076.66345  21853398.336                    21853405.688
 127985602.578 7  99729097.746 6  24354859.000                    24354868.387
 109937414.132 8  85665504.90146  20920322.305                    20920327.516
 117060947.261 7  91216321.313 7  22275945.086                    22275955.129
 11  8 17  1 31 30.0000000  0  8G10G12G04G05G30G29G02G25
 113908490.695 7  88759992.87645  21676039.742                    21676047.953
 109042395.890 8  84968146.475 7  20750072.453                    20750079.109
 123525933.784 7  96254091.78343  23506171.109                    23506179.613
 107774004.935 8  83979839.156 8  20508689.516                    20508696.891
 114795481.129 8  89451040.01745  21844841.758                    21844849.652
 127904731.964 7  99666081.751 6  24339469.859                    24339479.281
 109963194.640 8  85685593.61046  20925227.352                    20925232.867
 116999333.927 7  91168310.978 7  22264220.109                    22264230.273
 11  8 17  1 32  0.0000000  0  8G10G12G04G05G30G29G02G25
 113976380.624 7  88812894.11145  21688959.023                    21688967.172
 109044994.359 8  84970171.257 7  20750566.656                    20750573.543
 123607956.982 7  96318005.96943  23521779.555                    23521788.281
 107736430.746 8  83950560.590 8  20501539.305                    20501546.594
 114751082.656 7  89416443.80445  21836392.828                    21836401.004
 127823796.103 7  99603014.929 6  24324068.094                    24324076.922
 109989131.734 8  85705804.33246  20930163.352                    20930168.910
 116938190.079 7  91120666.440 7  22252585.336                    22252594.836
 11  8 17  1 32 30.0000000  0  8G10G12G04G05G30G29G02G25
 114044748.359 7  88866167.67045  21701968.828                    21701977.012
 109048178.125 8  84972652.120 7  20751172.805                    20751179.535
 123689952.525 7  96381898.54743  23537382.305                    23537391.363
 107699412.886 8  83921715.532 8  20494495.047                    20494502.156
 114707251.572 7  89382289.72945  21828052.195                    21828060.148
 127742796.380 7  99539898.360 6  24308653.906                    24308663.410
 110015225.569 8  85726137.18646  20935128.820                    20935134.297
 116877518.515 7  91073389.930 7  22241039.008                    22241049.348
 11  8 17  1 33  0.0000000  0  8G10G12G04G05G30G29G02G25
 114113590.681 7  88919811.01245  21715069.625                    21715077.152
 109051946.105 8  84975588.211 7  20751889.563                    20751896.770
 123771919.208 6  96445768.65944  23552980.148                    23552989.238
 107662951.539 8  83893304.117 8  20487556.469                    20487564.113
 114663988.911 7  89348578.55645  21819819.328                    21819827.488
 127661733.138 6  99476732.281 6  24293228.789                    24293237.359
 110041474.234 8  85746590.67846  20940124.234                    20940129.375
 116817320.783 7  91026482.625 7  22229584.016                    22229593.852
 11  8 17  1 33 30.0000000  0  8G10G12G04G05G30G29G02G25
 114182905.296 7  88973822.39145  21728259.992                    21728267.438
 109056298.316 8  84978979.539 7  20752717.813                    20752724.457
 123853856.123 6  96509615.56744  23568572.617                    23568581.602
 107627047.720 8  83865327.146 8  20480724.195                    20480731.605
 114621295.761 8  89315311.17845  21811695.328                    21811703.070
 127580606.721 6  99413516.967 6  24277790.578                    24277798.715
 110067876.573 8  85767163.93046  20945148.273                    20945153.438
 116757598.829 8  90979946.055 7  22218219.430                    22218229.125
 11  8 17  1 34  0.0000000  0  8G10G12G04G05G30G29G02G25
 114252689.916 7  89028200.02245  21741539.125                    21741547.254
 109061235.148 8  84982826.410 7  20753657.555                    20753664.742
 123935762.701 6  96573438.82544  23584159.203                    23584167.742
 107591702.350 8  83837785.324 8  20473997.992                    20474005.398
 114579173.887 7  89282488.92445  21803679.914                    21803688.004
 127499418.351 6  99350253.404 6  24262340.672                    24262349.289
 110094431.753 7  85787856.27946  20950201.570                    20950206.813
 116698354.838 8  90933781.907 7  22206945.859                    22206955.305
 11  8 17  1 34 30.0000000  0  8G10G12G04G05G30G29G02G25
 114322941.867 7  89082941.79345  21754907.789                    21754915.508
 109066756.252 8  84987128.562 7  20754708.336                    20754714.941
 124017638.044 6  96637237.72344  23599739.344                    23599748.074
 107556916.687 8  83810679.637 8  20467378.953                    20467386.352
 114537624.648 8  89250112.88245  21795773.305                    21795781.426
 127418168.760 6  99286942.093 6  24246879.563                    24246887.789
 110121139.026 8  85808667.12146  20955283.633                    20955289.000
 116639590.866 8  90887991.805 7  22195763.172                    22195773.133
 11  8 17  1 35  0.0000000  0  8G10G12G04G05G30G29G02G25
 114393658.709 7  89138045.80945  21768364.344                    21768372.910
 109072861.484 8  84991885.874 7  20755869.945                    20755876.875
 124099481.612 6  96701011.91243  23615313.609                    23615322.852
 107522691.996 8  83784011.080 8  20460865.914                    20460873.359
 114496649.688 8  89218184.33845  21787976.242                    21787983.887
 127336858.324 6  99223583.421 6  24231405.961                    24231415.367
 110147997.630 8  85829595.89546  20960394.695                    20960400.465
 116581309.161 7  90842577.494 7  22184672.258                    22184682.531
 11  8 17  1 35 30.0000000  0  8G10G12G04G05G30G29G02G25
 114464837.192 7  89193509.57645  21781909.305                    21781917.410
 109079550.525 8  84997098.115 7  20757142.820                    20757149.359
 124181292.245 6  96764760.41143  23630881.484                    23630891.020
 107489028.517 8  83757779.817 8  20454459.742                    20454467.195
 114456249.925 8  89186703.98145  21780288.055                    21780296.387
 127255488.064 6  99160178.095 6  24215922.406                    24215931.797
 110175006.025 8  85850641.39246  20965534.555                    20965540.090
 116523511.329 8  90797540.217 7  22173673.719                    22173683.832
 11  8 17  1 36  0.0000000  0  8G10G12G04G05G30G29G02G25
 114536474.720 7  89249331.00245  21795541.828                    21795549.316
 109086822.834 8  85002764.839 7  20758526.586                    20758533.270
 124263069.222 6  96828482.68343  23646443.328                    23646452.680
 107455927.222 8  83731986.631 8  20448161.242                    20448168.859
 114416426.547 8  89155672.75945  21772710.227                    21772717.844
 127174058.518 6  99096726.578 6  24200426.438                    24200435.875
 110202163.215 8  85871802.82746  20970702.336                    20970707.441
 116466199.146 8  90752881.360 7  22162768.195                    22162778.098
 11  8 17  1 36 30.0000000  0  8G10G12G04G05G30G29G02G25
 114608569.100 7  89305508.45745  21809260.945                    21809268.656
 109094678.989 8  85008886.515 7  20760021.586                    20760029.016
 124344811.856 7  96892178.19343  23661998.141                    23662008.063
 107423389.189 8  83706632.348 8  20441969.477                    20441976.813
 114377181.226 8  89125091.97145  21765241.930                    21765250.293
 127092570.654 6  99033229.631 6  24184919.453                    24184928.938
 110229468.601 8  85893079.75046  20975898.281                    20975903.285
 116409375.029 8  90708602.808 7  22151954.523                    22151964.813
 11  8 17  1 37  0.0000000  0  8G10G12G04G05G30G29G02G25
 114681117.999 7  89362040.05645  21823066.461                    21823073.676
 109103118.531 8  85015462.768 7  20761627.531                    20761634.359
 124426520.106 6  96955846.93643  23677546.836                    23677555.484
 107391415.556 8  83681717.862 8  20435884.945                    20435892.344
 114338515.618 7  89094962.91245  21757883.805                    21757892.047
 127011025.563 6  98969688.046 6  24169401.961                    24169411.105
 110256921.827 8  85914471.84846  20981122.266                    20981127.773
 116353041.298 8  90664706.392 7  22141234.484                    22141244.688
 11  8 17  1 37 30.0000000  0  8G10G12G04G05G30G29G02G25
 114754118.649 7  89418923.67745  21836958.031                    21836965.516
 109112141.327 8  85022493.499 7  20763344.836                    20763351.598
 124508192.823 7  97019487.98243  23693088.742                    23693097.973
 107360007.030 8  83657243.705 8  20429907.688                    20429915.348
 114300430.813 8  89065286.44045  21750636.742                    21750644.488
 126929424.011 6  98906102.479 6  24153874.000                    24153883.238
 110284521.706 8  85935978.23746  20986374.258                    20986379.523
 116297199.746 8  90621193.476 7  22130608.313                    22130618.172
 11  8 17  1 38  0.0000000  0  8G10G12G04G05G30G29G02G25
 114827568.283 7  89476157.14345  21850934.516                    21850942.813
 109121746.830 8  85029978.301 7  20765172.297                    20765179.250
 124589828.956 7  97083100.52143  23708624.313                    23708632.574
 107329164.001 8  83633210.200 8  20424038.563                    20424045.816
 114262927.674 8  89036063.21745  21743500.125                    21743508.367
 126847766.490 6  98842473.285 6  24138334.727                    24138343.953
 110312266.740 8  85957597.74446  20991654.000                    20991659.531
 116241851.834 8  90578065.206 7  22120075.789                    22120086.430
 11  8 17  1 38 30.0000000  0  8G10G12G04G05G30G29G02G25
 114901464.418 8  89533738.55445  21864996.805                    21865004.527
 109131934.858 8  85037916.999 7  20767111.695                    20767118.387
 124671428.101 7  97146684.25343  23724151.773                    23724160.355
 107298887.352 8  83609618.038 8  20418277.297                    20418284.676
 114226007.692 8  89007294.39445  21736474.695                    21736482.625
 126766053.937 6  98778801.210 5  24122785.695                    24122794.141
 110340156.437 7  85979329.96246  20996961.258                    20996966.340
 116186999.802 8  90535323.349 7  22109637.711                    22109648.078
 11  8 17  1 39  0.0000000  0  8G10G12G04G05G30G29G02G25
 114975804.210 7  89591665.66145  21879143.125                    21879151.152
 109142704.709 8  85046309.080 8  20769160.531                    20769167.570
 124752989.480 6  97210238.53343  23739672.680                    23739681.219
 107269178.040 8  83586467.950 8  20412623.711                    20412631.395
 114189671.873 8  88978980.76045  21729560.023                    21729568.094
 126684287.104 6  98715086.830 5  24107226.266                    24107233.145
 110368189.676 8  86001174.03746  21002296.141                    21002301.414
 116132645.410 8  90492969.259 7  22099294.383                    22099304.461
 11  8 17  1 39 30.0000000  0  8G10G12G04G05G30G29G02G25
 115050584.778 7  89649936.22045  21893373.898                    21893381.777
 109154056.217 8  85055154.381 7  20771321.102                    20771327.641
 124834512.311 6  97273762.80043  23755185.359                    23755194.410
 107240036.687 8  83563760.427 8  20407078.172                    20407085.207
 114153921.395 7  88951123.25045  21722757.125                    21722764.824
 126602466.896 6  98651330.840 6  24091655.945                    24091664.086
 110396365.615 8  86023129.31346  21007657.727                    21007663.172
 116078790.510 8  90451004.410 7  22089046.656                    22089056.254
 11  8 17  1 40  0.0000000  0  8G10G12G04G05G30G29G02G25
 115125803.741 7  89708548.37245  21907687.430                    21907695.469
 109165989.166 8  85064452.765 7  20773591.789                    20773598.449
 124915996.092 6  97337256.64543  23770691.492                    23770700.902
 107211464.049 8  83541496.064 8  20401640.891                    20401648.203
 114118757.333 7  88923722.70245  21716065.555                    21716073.363
 126520593.940 6  98587533.757 6  24076075.984                    24076085.012
 110424683.298 8  86045195.02146  21013046.406                    21013051.656
 116025436.979 8  90409430.224 7  22078893.734                    22078903.711
 11  8 17  1 40 30.0000000  0  8G10G12G04G05G30G29G02G25
 115201458.728 7  89767500.29945  21922083.844                    21922091.840
 109178503.514 8  85074204.183 7  20775973.180                    20775980.031
 124997440.419 7  97400719.73543  23786190.125                    23786198.813
 107183460.948 8  83519675.489 8  20396312.148                    20396319.266
 114084181.292 8  88896780.34545  21709486.281                    21709493.715
 126438669.511 7  98523696.581 6  24060486.148                    24060494.785
 110453142.447 8  86067370.97646  21018461.891                    21018467.629
 115972587.034 8  90368248.460 7  22068836.234                    22068846.465
 11  8 17  1 41  0.0000000  0  8G10G12G04G05G30G29G02G25
 115277546.971 7  89826789.83145  21936563.297                    21936571.184
 109191598.160 8  85084407.784 7  20778464.539                    20778471.660
 125078844.237 6  97464151.28343  23801680.617                    23801688.656
 107156027.775 8  83498299.020 8  20391091.914                    20391099.238
 114050194.060 7  88870296.79145  21703019.086                    21703026.246
 126356694.324 7  98459819.824 6  24044887.016                    24044896.031
 110481741.534 7  86089655.97846  21023904.391                    21023909.727
 115920242.169 8  90327460.260 7  22058875.500                    22058885.172
 11  8 17  1 41 30.0000000  0  8G10G12G04G05G30G29G02G25
 115354064.896 7  89886414.17145  21951123.813                    21951132.270
 109205272.142 8  85095062.819 7  20781066.898                    20781073.871
 125160206.549 6  97527550.44643  23817163.391                    23817172.133
 107129164.700 8  83477366.783 8  20385979.914                    20385986.922
 114016796.134 7  88844272.44245  21696663.086                    21696670.813
 126274668.874 6  98395903.942 6  24029278.219                    24029287.070
 110510479.063 8  86112048.86146  21029372.938                    21029378.258
 115868403.719 8  90287066.669 7  22049011.148                    22049020.961
 11  8 17  1 42  0.0000000  0  8G10G12G04G05G30G29G02G25
 115431010.349 7  89946371.66745  21965766.047                    21965774.047
 109219525.295 8  85106169.158 7  20783778.836                    20783786.000
 125241527.098 6  97590917.09743  23832637.727                    23832647.254
 107102872.714 8  83456879.552 8  20380976.891                    20380984.137
 113983988.987 7  88818708.46445  21690420.078                    21690428.102
 126192594.512 6  98331949.912 6  24013659.734                    24013668.613
 110539354.681 8  86134549.33746  21034867.781                    21034872.988
 115817073.862 8  90247069.404 7  22039243.242                    22039253.195
 11  8 17  1 42 30.0000000  0  8G10G12G04G05G30G29G02G25
 115508380.932 7  90006660.41045  21980489.266                    21980497.031
 109234357.751 8  85117726.884 7  20786601.719                    20786608.871
 125322805.494 7  97654250.88144  23848106.008                    23848114.258
 107077152.855 8  83436838.129 8  20376082.281                    20376089.414
 113951773.952 7  88793605.85245  21684289.445                    21684297.469
 126110472.155 6  98267958.489 6  23998031.641                    23998041.008
 110568368.208 8  86157157.27546  21040388.703                    21040393.965
 115766254.808 8  90207470.165 7  22029572.867                    22029583.113
 11  8 17  1 43  0.0000000  0  8G10G12G04G05G30G29G02G25
 115586173.618 7  90067278.08745  21995292.789                    21995300.207
 109249768.832 8  85129735.508 7  20789534.336                    20789541.266
 125404041.237 6  97717551.44443  23863563.828                    23863572.840
 107052005.295 8  83417242.649 8  20371297.023                    20371304.027
 113920151.882 7  88768965.31945  21678272.266                    21678279.926
 126028302.726 6  98203930.350 6  23982395.781                    23982405.043
 110597518.577 8  86179871.84846  21045935.938                    21045940.992
 115715948.068 8  90168270.124 7  22019999.977                    22020009.930
 11  8 17  1 43 30.0000000  0  8G10G12G04G05G30G29G02G25
 115664385.492 7  90128222.37845  22010176.094                    22010183.660
 109265757.811 8  85142194.428 7  20792576.969                    20792584.414
 125485233.411 6  97780818.03543  23879013.586                    23879023.008
 107027430.598 8  83398093.555 8  20366620.617                    20366627.375
 113889123.732 7  88744787.56345  21672367.523                    21672375.379
 125946086.995 6  98139866.176 6  23966750.758                    23966760.184
 110626804.691 8  86202692.20546  21051508.852                    21051514.313
 115666155.279 8  90129470.575 7  22010524.484                    22010534.527
 11  8 17  1 44  0.0000000  0  8G10G12G04G05G30G29G02G25
 115743014.027 7  90189491.34845  22025138.664                    22025146.707
 109282323.574 8  85155102.791 7  20795729.336                    20795736.375
 125566381.081 6  97844049.92943  23894455.633                    23894464.414
 107003429.020 8  83379391.051 8  20362053.211                    20362060.547
 113858690.016 8  88721072.99745  21666576.703                    21666584.223
 125863825.976 6  98075766.739 6  23951096.938                    23951105.758
 110656225.352 8  86225617.40746  21057107.531                    21057112.551
 115616877.854 8  90091072.623 7  22001147.344                    22001157.469
 11  8 17  1 44 30.0000000  0  8G10G12G04G05G30G29G02G25
 115822056.876 7  90251083.16245  22040180.344                    22040188.305
 109299466.393 8  85168460.827 7  20798991.414                    20798998.418
 125647484.310 6  97907247.23543  23909889.664                    23909898.148
 106980001.333 8  83361135.724 8  20357595.078                    20357602.266
 113828852.251 8  88697822.81845  21660898.375                    21660905.758
 125781520.853 6  98011632.908 6  23935434.664                    23935444.543
 110685780.477 8  86248647.38046  21062731.492                    21062736.797
 115568118.184 8  90053078.101 7  21991868.695                    21991878.668
 11  8 17  1 45  0.0000000  0  8G10G12G04G05G30G29G02G25
 115901510.561 7  90312995.10345  22055299.406                    22055307.066
 109317184.979 8  85182267.489 8  20802363.070                    20802370.344
 125728542.218 6  97970409.24143  23925313.922                    23925323.508
 106957147.946 8  83343327.907 8  20353245.969                    20353253.137
 113799611.019 7  88675037.46445  21655333.961                    21655341.652
 125699172.007 6  97947464.979 6  23919764.398                    23919773.492
 110715468.669 8  86271781.04046  21068381.398                    21068386.664
 115519877.419 8  90015487.936 7  21982688.516                    21982698.543
 11  8 17  1 45 30.0000000  0  8G10G12G04G05G30G29G02G25
 115981372.830 7  90375225.43145  22070496.680                    22070504.996
 109335478.873 8  85196522.454 7  20805844.797                    20805851.664
 125809554.124 6  98033535.35543  23940730.813                    23940739.328
 106934869.166 8  83325967.840 8  20349006.703                    20349013.953
 113770967.178 7  88652717.61845  21649883.398                    21649891.035
 125616780.818 7  97883264.077 6  23904085.797                    23904094.766
 110745289.270 8  86295017.88546  21074055.539                    21074061.215
 115472157.388 8  89978303.534 7  21973607.930                    21973617.547
 11  8 17  1 46  0.0000000  0  8G10G12G04G05G30G29G02G25
 116061640.303 7  90437771.48545  22085771.000                    22085779.117
 109354347.140 8  85211224.988 7  20809434.906                    20809442.359
 125890519.520 6  98096625.28543  23956137.039                    23956146.578
 106913165.064 8  83309055.567 8  20344876.430                    20344883.656
 113742921.305 7  88630863.72745  21644546.242                    21644554.102
 125534348.235 7  97819030.908 6  23888399.352                    23888407.672
 110775241.247 8  86318357.11546  21079755.406                    21079760.516
 115424959.382 8  89941525.930 7  21964626.453                    21964635.762
 11  8 17  1 46 30.0000000  0  8G10G12G04G05G30G29G02G25
 116142311.111 7  90500631.82145  22101122.781                    22101130.203
 109373789.266 8  85226374.683 7  20813134.727                    20813141.781
 125971438.278 6  98159678.80343  23971535.781                    23971544.848
 106892036.834 8  83292592.027 8  20340855.711                    20340863.191
 113715474.849 7  88609476.89045  21639323.625                    21639330.738
 125451875.504 7  97754766.423 6  23872704.914                    23872714.262
 110805324.454 8  86341798.58746  21085479.930                    21085485.363
 115378285.920 8  89905157.026 7  21955745.172                    21955754.242
 11  8 17  1 47  0.0000000  0  8G10G12G04G05G30G29G02G25
 116223381.093 7  90563803.23345  22116549.141                    22116557.004
 109393804.043 8  85241970.608 7  20816943.477                    20816950.469
 126052308.810 6  98222694.80243  23986924.602                    23986933.500
 106871483.766 8  83276576.663 8  20336944.609                    20336951.691
 113688627.554 8  88588556.94745  21634214.266                    21634222.309
 125369362.686 7  97690470.714 6  23857003.680                    23857012.094
 110835536.799 8  86365340.68846  21091229.367                    21091234.344
 115332137.203 8  89869197.020 7  21946963.242                    21946972.695
 11  8 17  1 47 30.0000000  0  8G10G12G04G05G30G29G02G25
 116304848.648 7  90627284.41845  22132052.305                    22132060.289
 109414391.197 8  85258012.533 7  20820861.250                    20820868.129
 126133131.736 6  98285673.66043  24002304.438                    24002314.270
 106851506.913 8  83261010.300 8  20333143.164                    20333150.465
 113662381.201 8  88568105.25845  21629220.094                    21629227.684
 125286811.687 7  97626145.263 6  23841295.430                    23841303.574
 110865878.794 8  86388983.82146  21097002.898                    21097008.578
 115286516.026 8  89833648.092 7  21938281.578                    21938291.109
 11  8 17  1 48  0.0000000  0  8G10G12G04G05G30G29G02G25
 116386710.321 7  90691072.73444  22147629.883                    22147638.047
 109435549.471 8  85274499.497 7  20824887.727                    20824894.742
 126213905.970 6  98348614.60543  24017675.477                    24017685.180
 106832106.277 8  83245892.935 8  20329451.570                    20329458.457
 113636735.936 7  88548121.95145  21624339.922                    21624347.922
 125204223.062 6  97561790.518 6  23825579.055                    23825588.262
 110896348.937 8  86412726.79246  21102801.313                    21102806.863
 115241423.268 8  89798510.908 7  21929700.500                    21929710.906
 11  8 17  1 48 30.0000000  0  8G10G12G04G05G30G29G02G25
 116468964.355 7  90755166.75645  22163282.836                    22163290.246
 109457278.869 8  85291431.486 7  20829022.227                    20829029.539
 126294631.482 6  98411517.59443  24033037.055                    24033046.242
 106813282.986 8  83231225.451 8  20325869.547                    20325876.777
 113611693.146 8  88528608.10745  21619574.367                    21619582.074
 125121598.543 6  97497407.802 6  23809855.422                    23809864.703
 110926947.436 8  86436569.79746  21108624.188                    21108629.824
 115196861.277 8  89763787.329 7  21921220.859                    21921230.840
 11  8 17  1 49  0.0000000  0  8G10G12G04G05G30G29G02G25
 116551607.072 7  90819563.66545  22179008.695                    22179016.547
 109479577.602 8  85308807.128 7  20833265.719                    20833272.535
 126375306.970 6  98474381.64143  24048389.531                    24048398.176
 106795036.221 8  83217007.210 8  20322397.352                    20322403.781
 113587252.826 8  88509563.72545  21614923.602                    21614931.500
 125038938.375 7  97432997.315 6  23794126.375                    23794134.996
 110957672.194 8  86460511.18746  21114470.922                    21114475.961
 115152830.780 8  89729477.871 7  21912842.031                    21912852.484
 11  8 17  1 49 30.0000000  0  8G10G12G04G05G30G29G02G25
 116634635.943 7  90884261.47145  22194808.547                    22194815.809
 109502445.291 8  85326626.098 7  20837617.102                    20837624.832
 126455932.467 6  98537206.66943  24063732.234                    24063740.754
 106777366.429 8  83203238.555 8  20319034.578                    20319041.902
 113563415.734 8  88490989.38945  21610388.078                    21610395.207
 124956243.657 7  97368559.916 6  23778389.602                    23778397.750
 110988523.038 8  86484550.82446  21120341.711                    21120346.652
 115109333.513 8  89695583.927 7  21904564.930                    21904574.715
 11  8 17  1 50  0.0000000  0  8G10G12G04G05G30G29G02G25
 116718047.934 7  90949257.82845  22210681.797                    22210689.613
 109525880.986 8  85344887.685 7  20842076.805                    20842084.008
 126536507.360 6  98599992.27043  24079064.906                    24079073.645
 106760273.979 8  83189919.781 8  20315782.297                    20315789.320
 113540182.627 8  88472885.68645  21605965.805                    21605973.621
 124873515.803 6  97304096.694 6  23762646.344                    23762655.105
 111019499.181 8  86508688.08746  21126236.195                    21126241.723
 115066371.106 8  89662106.763 7  21896389.094                    21896398.723
 11  8 17  1 50 30.0000000  0  8G10G12G04G05G30G29G02G25
 116801840.007 7  91014550.34845  22226626.383                    22226634.105
 109549883.509 8  85363590.941 7  20846644.461                    20846651.828
 126617031.060 6  98662737.97343  24094388.031                    24094396.656
 106743758.819 8  83177050.845 8  20312639.672                    20312646.633
 113517553.840 8  88455252.88745  21601660.242                    21601667.711
 124790755.751 7  97239608.398 6  23746898.195                    23746907.051
 111050599.678 8  86532922.25346  21132154.375                    21132159.879
 115023944.631 8  89629047.205 7  21888315.461                    21888325.859
 11  8 17  1 51  0.0000000  0  8G10G12G04G05G30G29G02G25
 116886010.062 7  91080137.40645  22242643.797                    22242651.746
 109574452.494 8  85382735.611 7  20851319.914                    20851326.777
 126697503.685 6  98725443.97043  24109701.211                    24109710.082
 106727821.572 8  83164632.230 8  20309606.539                    20309613.621
 113495530.572 8  88438091.92245  21597469.016                    21597477.008
 124707965.029 7  97175096.195 6  23731143.906                    23731152.473
 111081824.693 8  86557253.45146  21138096.375                    21138101.500
 114982056.318 8  89596406.965 7  21880344.617                    21880354.484
 11  8 17  1 51 30.0000000  0  8G10G12G04G05G30G29G02G25
 116970554.395 7  91146016.09544  22258731.664                    22258739.727
 109599586.007 8  85402320.162 7  20856102.539                    20856109.996
 126777923.805 6  98788108.98342  24125004.633                    24125013.602
 106712461.675 8  83152663.498 8  20306683.664                    20306690.648
 113474112.415 8  88421402.46145  21593393.344                    21593400.621
 124625143.569 7  97110560.066 6  23715383.789                    23715391.641
 111113171.879 8  86581679.85246  21144061.273                    21144066.555
 114940706.466 8  89564186.328 7  21872475.836                    21872485.941
 11  8 17  1 52  0.0000000  0  8G10G12G04G05G30G29G02G25
 117055470.439 7  91212184.43944  22274891.328                    22274898.637
 109625283.192 8  85422343.936 7  20860992.461                    20860999.426
 126858291.409 6  98850733.07343  24140297.461                    24140306.813
 106697679.311 8  83141144.785 8  20303870.805                    20303878.008
 113453300.205 8  88405185.15345  21589433.273                    21589440.605
 124542293.145 7  97046001.358 6  23699617.820                    23699625.691
 111144641.054 8  86606201.29046  21150049.813                    21150054.766
 114899896.901 8  89532386.670 7  21864709.984                    21864719.910
 11  8 17  1 52 30.0000000  0  8G10G12G04G05G30G29G02G25
 117140755.597 7  91278640.40644  22291119.898                    22291127.633
 109651543.783 8  85442806.741 7  20865989.727                    20865996.219
 126938606.186 6  98913316.03243  24155582.219                    24155590.215
 106683474.923 8  83130076.464 8  20301167.469                    20301174.738
 113433094.734 8  88389440.65145  21585588.031                    21585595.734
 124459414.929 6  96981420.996 6  23683845.922                    23683854.844
 111176232.208 8  86630817.77846  21156061.039                    21156066.516
 114859629.363 8  89501009.404 7  21857047.602                    21857057.133
 11  8 17  1 53  0.0000000  0  8G10G12G04G05G30G29G02G25
 117226406.926 7  91345381.70944  22307418.922                    22307427.141
 109678366.135 8  85463707.274 7  20871093.859                    20871100.934
 127018867.665 6  98975857.44543  24170855.273                    24170864.277
 106669848.445 8  83119458.443 8  20298575.203                    20298581.742
 113413496.332 8  88374169.17245  21581858.383                    21581866.008
 124376509.919 7  96916819.792 6  23668069.031                    23668078.602
 111207943.999 8  86655528.27446  21162095.914                    21162101.121
 114819904.993 8  89470055.364 7  21849488.117                    21849497.953
 11  8 17  1 53 30.0000000  0  8G10G12G04G05G30G29G02G25
 117312421.335 7  91412405.91344  22323786.656                    22323794.891
 109705749.138 8  85485044.660 7  20876304.523                    20876311.742
 127099075.130 6  99038356.79943  24186118.141                    24186126.613
 106656799.650 8  83109290.573 8  20296091.609                    20296098.445
 113394505.244 8  88359370.93345  21578244.297                    21578252.715
 124293579.352 7  96852198.623 6  23652288.984                    23652296.961
 111239775.679 8  86680332.18646  21168153.188                    21168157.680
 114780724.926 8  89439525.462 7  21842032.602                    21842042.777
 11  8 17  1 54  0.0000000  0  8G10G12G04G05G30G29G02G25
 117398796.234 7  91479711.01745  22340223.852                    22340231.332
 109733691.803 8  85506818.148 7  20881622.375                    20881629.449
 127179228.583 6  99100814.03843  24201370.789                    24201379.367
 106644328.765 8  83099573.021 8  20293718.430                    20293725.465
 113376121.989 8  88345046.31245  21574746.234                    21574754.125
 124210624.303 7  96787558.360 6  23636503.117                    23636511.082
 111271726.940 7  86705229.28046  21174232.984                    21174238.613
 114742090.711 8  89409420.893 7  21834680.477                    21834690.449
 11  8 17  1 54 30.0000000  0  8G10G12G04G05G30G29G02G25
 117485528.316 7  91547294.47045  22356727.992                    22356735.531
 109762192.899 8  85529026.781 7  20887045.742                    20887052.797
 127259327.254 6  99163228.58343  24216612.734                    24216621.656
 106632435.613 8  83090305.650 8  20291455.453                    20291462.332
 113358346.797 8  88331195.50245  21571363.734                    21571372.289
 124127645.750 7  96722899.803 6  23620712.477                    23620721.465
 111303796.554 8  86730218.60146  21180335.797                    21180340.930
 114704003.406 8  89379742.467 7  21827432.758                    21827442.285
 11  8 17  1 55  0.0000000  0  8G10G12G04G05G30G29G02G25
 117572615.172 7  91615154.33245  22373300.188                    22373308.441
 109791251.568 8  85551669.881 7  20892575.398                    20892582.602
 127339370.685 6  99225600.08543  24231845.211                    24231853.504
 106621119.660 8  83081488.043 8  20289301.563                    20289308.863
 113341180.090 8  88317818.85745  21568097.016                    21568105.492
 124044644.975 7  96658223.941 6  23604918.047                    23604926.777
 111335984.128 8  86755299.83246  21186461.344                    21186466.141
 114666464.346 8  89350491.258 7  21820289.234                    21820299.590
 11  8 17  1 55 30.0000000  0  8G10G12G04G05G30G29G02G25
 117660053.883 7  91683288.38544  22389939.742                    22389946.844
 109820866.378 8  85574746.339 7  20898210.938                    20898218.195
 127419358.855 6  99287928.54743  24247065.789                    24247074.145
 106610381.762 8  83073120.877 8  20287258.516                    20287265.520
 113324622.259 8  88304916.63845  21564946.094                    21564954.063
 123961623.439 7  96593531.876 6  23589119.281                    23589127.969
 111368289.095 8  86780472.53646  21192608.344                    21192613.664
 114629474.904 8  89321668.314 7  21813250.195                    21813260.172
 11  8 17  1 56  0.0000000  0  8G10G12G04G05G30G29G02G25
 117747841.588 7  91751694.39444  22406644.430                    22406652.684
 109851036.137 8  85598255.229 7  20903951.938                    20903958.914
 127499291.244 7  99350213.53143  24262276.969                    24262285.242
 106600221.627 8  83065203.913 8  20285324.914                    20285332.375
 113308673.703 8  88292489.18845  21561911.617                    21561919.180
 123878582.144 7  96528824.416 6  23573317.234                    23573325.977
 111400710.678 8  86805736.10946  21198778.219                    21198783.387
 114593036.350 8  89293274.643 7  21806316.133                    21806326.273
 11  8 17  1 56 30.0000000  0  8G10G12G04G05G30G29G02G25
 117835975.481 7  91820370.14744  22423415.992                    22423423.699
 109881759.485 8  85622195.487 7  20909798.656                    20909805.879
 127579167.571 7  99412454.84144  24277476.789                    24277486.000
 106590638.774 8  83057736.775 8  20283501.344                    20283508.719
 113293334.554 8  88280536.60045  21558992.516                    21559000.176
 123795522.165 7  96464102.355 6  23557511.234                    23557519.293
 111433248.249 8  86831090.04746  21204969.516                    21204975.438
 114557149.863 8  89265311.130 7  21799487.531                    21799497.242
 11  8 17  1 57  0.0000000  0  9G26G10G12G04G05G30G29G02G25
 130469939.86416 101664999.48052  24827619.453                    24827630.563
 117924452.220 7  91889313.03844  22440252.586                    22440260.363
 109913035.348 8  85646566.270 7  20915750.227                    20915757.379
 127658987.120 6  99474651.89943  24292665.664                    24292675.160
 106581633.001 8  83050719.314 8  20281787.859                    20281794.910
 113278604.879 8  88269058.90645  21556189.867                    21556197.453
 123712444.697 7  96399366.689 6  23541702.617                    23541711.109
 111465900.867 8  86856533.63546  21211183.656                    21211188.695
 114521816.305 8  89237778.487 7  21792763.906                    21792773.660
 11  8 17  1 57 30.0000000  0  9G26G10G12G04G05G30G29G02G25
 130377543.120 6 101593002.03742  24810037.422                    24810047.148
 118013268.748 7  91958520.72344  22457153.602                    22457161.555
 109944861.930 8  85671366.191 7  20921806.711                    20921814.063
 127738749.344 6  99536804.23943  24307843.477                    24307853.602
 106573203.628 8  83044150.998 8  20280183.438                    20280190.977
 113264484.570 8  88258056.05445  21553502.539                    21553510.168
 123629350.500 7  96334617.955 6  23525889.914                    23525898.422
 111498667.599 8  86882066.14746  21217418.734                    21217424.035
 114487036.661 8  89210677.473 7  21786144.898                    21786154.945
 11  8 17  1 58  0.0000000  0  9G26G10G12G04G05G30G29G02G25
 130285013.808 5 101520901.39442  24792429.438                    24792439.434
 118102422.754 7  92027991.36344  22474118.758                    22474126.910
 109977238.509 8  85696594.690 7  20927967.523                    20927974.301
 127818454.474 6  99598912.10443  24323012.156                    24323020.223
 106565351.345 8  83038032.354 8  20278689.445                    20278696.590
 113250974.360 8  88247528.60645  21550931.383                    21550939.781
 123546241.405 6  96269857.633 6  23510073.797                    23510083.406
 111531548.428 8  86907687.57446  21223675.250                    21223681.016
 114452812.595 8  89184009.350 7  21779632.672                    21779642.770
 11  8 17  1 58 30.0000000  0  9G26G10G12G04G05G30G29G02G25
 130192355.11915 101448699.81652  24774795.609                    24774807.316
 118191911.539 7  92097722.87444  22491148.477                    22491156.199
 110010164.039 8  85722250.940 7  20934232.969                    20934240.410
 127898102.058 6  99660975.16743  24338167.461                    24338176.594
 106558075.697 8  83032363.036 8  20277304.656                    20277311.723
 113238074.472 8  88237476.72245  21548476.773                    21548484.676
 123463118.761 6  96205086.708 6  23494255.906                    23494265.180
 111564542.645 8  86933397.34146  21229954.258                    21229959.633
 114419145.239 8  89157775.035 7  21773225.773                    21773235.824
 11  8 17  1 59  0.0000000  0  9G26G10G12G04G05G30G29G02G25
 130099569.947 6 101376399.75142  24757139.359                    24757151.227
 118281732.464 7  92167713.19244  22508240.813                    22508248.875
 110043637.142 8  85748333.853 7  20940602.789                    20940609.883
 127977692.180 6  99722993.37143  24353313.742                    24353322.520
 106551376.869 8  83027143.197 8  20276030.086                    20276037.137
 113225785.212 8  88227900.67245  21546138.078                    21546145.910
 123379983.817 7  96140306.196 6  23478436.805                    23478445.879
 111597649.963 8  86959195.25346  21236254.492                    21236259.461
 114386035.921 8  89131975.557 7  21766925.367                    21766935.457
 11  8 17  1 59 30.0000000  0  9G26G10G12G04G05G30G29G02G25
 130006660.920 6 101304003.12242  24739460.336                    24739471.379
 118371882.147 7  92237959.70044  22525396.008                    22525403.316
 110077655.968 8  85774842.031 7  20947076.266                    20947083.414
 128057223.677 6  99784965.95143  24368447.922                    24368456.969
 106545253.938 8  83022372.100 8  20274865.000                    20274871.750
 113214106.205 8  88218800.13345  21543915.891                    21543923.648
 123296837.582 7  96075516.943 6  23462614.438                    23462623.773
 111630869.216 8  86985080.38446  21242575.828                    21242581.227
 114353485.131 8  89106611.294 7  21760731.313                    21760741.121
 11  8 17  2  0  0.0000000  0  9G26G10G12G04G05G30G29G02G25
 129913630.796 5 101231512.19542  24721756.594                    24721767.391
 118462357.451 7  92308459.91344  22542612.430                    22542620.703
 110112218.928 8  85801774.191 7  20953653.281                    20953660.516
 128136696.690 6  99846892.94943  24383571.406                    24383580.059
 106539706.777 8  83018049.654 8  20273809.414                    20273816.652
 113203037.621 8  88210175.24345  21541809.742                    21541817.773
 123213681.312 7  96010719.820 6  23446791.055                    23446799.090
 111664199.809 8  87011052.26846  21248918.516                    21248924.207
 114321494.097 8  89081683.207 7  21754643.500                    21754653.855
 11  8 17  2  0 30.0000000  0  9G26G10G12G04G05G30G29G02G25
 129820482.458 6 101158929.15643  24704031.242                    24704042.414
 118553155.417 7  92379211.53644  22559890.703                    22559898.734
 110147324.751 8  85829129.376 7  20960334.227                    20960340.949
 128216110.626 6  99908773.97543  24398682.609                    24398691.922
 106534734.426 8  83014175.125 8  20272862.977                    20272870.078
 113192579.185 8  88202025.79945  21539819.336                    21539827.496
 123130515.999 7  95945915.659 6  23430965.383                    23430973.301
 111697640.996 8  87037110.33946  21255282.156                    21255287.387
 114290063.627 8  89057191.929 7  21748662.742                    21748672.176
 11  8 17  2  1  0.0000000  0  9G26G10G12G04G05G30G29G02G25
 129727218.726 6 101086256.14343  24686284.445                    24686294.176
 118644273.369 7  92450212.52444  22577229.703                    22577237.406
 110182972.145 8  85856906.561 7  20967117.180                    20967124.785
 128295465.493 6  99970608.92342  24413783.586                    24413793.168
 106530336.936 8  83010748.531 8  20272026.148                    20272033.449
 113182730.986 8  88194351.87145  21537945.422                    21537953.461
 123047343.269 7  95881105.697 6  23415137.953                    23415146.180
 111731192.306 8  87063254.21546  21261666.617                    21261672.402
 114259194.715 8  89033138.218 7  21742788.750                    21742798.223
 11  8 17  2  1 30.0000000  0  9G26G10G12G04G05G30G29G02G25
 129633842.698 6 101013495.62543  24668515.539                    24668524.781
 118735708.280 7  92521460.47144  22594629.508                    22594637.203
 110219160.050 8  85885104.919 7  20974003.813                    20974010.828
 128374760.844 6 100032397.49442  24428872.742                    24428881.871
 106526514.187 8  83007769.778 8  20271298.727                    20271306.035
 113173493.372 8  88187153.70845  21536187.539                    21536195.762
 122964164.536 6  95816291.057 6  23399308.148                    23399316.875
 111764853.120 7  87089483.42346  21268071.938                    21268077.113
 114228888.597 8  89009523.052 7  21737021.383                    21737031.043
 11  8 17  2  2  0.0000000  0  9G26G10G12G04G05G30G29G02G25
 129540357.159 6 100940649.83843  24650725.211                    24650735.523
 118827457.882 7  92592953.66444  22612088.805                    22612096.891
 110255886.242 7  85913722.743 7  20980992.555                    20980999.500
 128453996.349 6 100094139.49742  24443951.297                    24443960.289
 106523265.547 8  83005238.400 8  20270680.516                    20270687.766
 113164866.151 8  88180431.18345  21534546.086                    21534554.203
 122880980.967 7  95751472.691 6  23383479.703                    23383488.332
 111798622.845 7  87115797.50946  21274498.422                    21274503.688
 114199146.146 8  88986347.138 7  21731361.672                    21731371.262
 11  8 17  2  2 30.0000000  0  9G26G10G12G04G05G30G29G02G25
 129446765.436 6 100867721.26943  24632915.602                    24632925.973
 118919519.080 7  92664689.62644  22629607.523                    22629616.121
 110293149.565 8  85942759.096 7  20988083.422                    20988090.508
 128533171.974 6 100155834.80243  24459016.750                    24459027.141
 106520590.911 8  83003154.287 8  20270171.828                    20270178.824
 113156849.302 8  88174184.28745  21533020.523                    21533028.211
 122797793.629 7  95686651.358 6  23367649.992                    23367658.598
 111832501.181 8  87142196.23846  21280944.922                    21280950.406
 114169968.396 8  88963611.221 7  21725809.359                    21725819.066
 11  8 17  2  3  0.0000000  0  9G26G10G12G04G05G30G29G02G25
 129353070.071 6 100794711.95543  24615085.852                    24615096.711
 119011888.320 7  92736665.65144  22647184.719                    22647192.277
 110330947.987 8  85972212.426 7  20995276.344                    20995283.383
 128612287.048 6 100217482.94843  24474072.742                    24474081.965
 106518489.365 8  83001516.753 8  20269771.883                    20269778.762
 113149442.382 8  88168412.65245  21531610.828                    21531618.848
 122714604.235 7  95621828.452 6  23351819.219                    23351828.555
 111866487.242 7  87168678.89746  21287412.414                    21287417.844
 114141355.835 8  88941315.701 7  21720364.461                    21720374.328
 11  8 17  2  3 30.0000000  0  9G26G10G12G04G05G30G29G02G25
 129259274.027 6 100721624.23143  24597236.844                    24597247.602
 119104562.980 7  92808879.65844  22664820.500                    22664828.094
 110369280.349 8  86002081.796 7  21002570.750                    21002578.336
 128691341.433 6 100279083.85643  24489115.680                    24489124.813
 106516960.375 7  83000325.354 8  20269480.305                    20269487.828
 113142645.381 8  88163116.28645  21530317.578                    21530325.195
 122631414.026 7  95557004.925 6  23335989.352                    23335998.223
 111900580.358 8  87195244.99046  21293900.047                    21293905.613
 114113309.573 7  88919461.481 7  21715027.305                    21715037.211
 11  8 17  2  4  0.0000000  0  9G26G10G12G04G05G30G29G02G25
 129165380.486 6 100648460.51543  24579370.031                    24579380.059
 119197540.204 7  92881329.43944  22682513.406                    22682521.211
 110408145.327 8  86032366.194 7  21009966.180                    21009973.574
 128770334.959 6 100340637.29543  24504148.430                    24504157.344
 106516003.765 8  82999579.962 8  20269298.836                    20269305.426
 113136458.248 7  88158295.13945  21529140.383                    21529148.047
 122548224.379 6  95492181.851 7  23320158.477                    23320167.465
 111934780.153 8  87221894.20146  21300408.016                    21300413.441
 114085830.458 7  88898049.191 7  21709798.281                    21709808.258
 11  8 17  2  4 30.0000000  0  9G26G10G12G04G05G30G29G02G25
 129071392.090 6 100575222.94143  24561483.930                    24561494.152
 119290817.293 6  92954012.85744  22700263.281                    22700271.168
 110447541.154 8  86063064.248 7  21017462.969                    21017470.078
 128849267.299 6 100402143.02843  24519168.438                    24519177.477
 106515618.692 8  82999279.928 8  20269225.438                    20269232.621
 113130880.712 8  88153949.00545  21528078.766                    21528086.168
 122465036.463 7  95427360.130 6  23304328.688                    23304337.074
 111969085.922 8  87248625.99446  21306936.375                    21306941.250
 114058919.262 8  88877079.443 7  21704677.180                    21704686.855
 11  8 17  2  5  0.0000000  0  9G26G10G12G04G05G30G29G02G25
 128977312.094 6 100501913.89143  24543581.430                    24543591.074
 119384391.267 7  93026927.60244  22718070.398                    22718077.840
 110487466.024 8  86094174.553 7  21025060.695                    21025067.551
 128928138.349 6 100463601.05843  24534177.180                    24534185.590
 106515804.604 8  82999424.810 8  20269261.008                    20269267.910
 113125912.691 7  88150077.81845  21527133.656                    21527141.367
 122381851.742 7  95362540.894 6  23288499.000                    23288507.336
 112003497.728 8  87275440.41846  21313484.688                    21313489.648
 114032576.892 8  88856552.933 7  21699664.297                    21699674.926
 11  8 17  2  5 30.0000000  0  9G26G10G12G04G05G30G29G02G25
 128883143.349 6 100428535.79843  24525661.703                    24525671.594
 119478258.826 7  93100071.15044  22735932.391                    22735940.102
 110527918.101 8  86125695.656 7  21032758.516                    21032764.969
 129006947.549 7 100525010.84443  24549173.969                    24549182.574
 106516560.823 8  83000014.097 8  20269404.492                    20269411.660
 113121553.568 8  88146681.11045  21526303.750                    21526311.582
 122298671.298 7  95297724.985 6  23272670.438                    23272679.211
 112038013.869 7  87302336.13846  21320052.555                    21320057.879
 114006803.754 8  88836469.982 7  21694760.344                    21694770.047
 11  8 17  2  6  0.0000000  0  9G26G10G12G04G05G30G29G02G25
 128788888.790 6 100355090.79643  24507725.070                    24507736.035
 119572417.688 6  93173441.67744  22753850.211                    22753858.340
 110568896.031 8  86157626.524 7  21040556.055                    21040563.125
 129085694.974 7 100586372.52043  24564159.063                    24564167.625
 106517887.108 7  83001047.587 8  20269657.070                    20269663.711
 113117803.348 8  88143758.86845  21525590.203                    21525597.980
 122215496.817 7  95232913.764 6  23256842.328                    23256851.230
 112072634.065 8  87329312.93546  21326640.469                    21326645.770
 113981600.965 8  88816831.459 7  21689964.242                    21689973.813
 11  8 17  2  6 30.0000000  0  9G26G10G12G04G05G30G29G02G25
 128694551.742 6 100281581.52243  24489773.813                    24489783.844
 119666864.943 7  93247036.89044  22771823.164                    22771830.625
 110610398.145 8  86189965.838 7  21048453.859                    21048460.918
 129164380.544 6 100647685.97443  24579132.063                    24579140.840
 106519782.905 7  83002524.848 8  20270017.633                    20270024.934
 113114661.774 8  88141310.89945  21524992.477                    21525000.207
 122132330.020 6  95168108.532 6  23241016.555                    23241025.367
 112107358.672 8  87356371.09146  21333248.516                    21333253.566
 113956969.276 8  88797637.955 7  21685276.750                    21685286.707
 11  8 17  2  7  0.0000000  0  9G26G10G12G04G05G30G29G02G25
 128600135.293 6 100208010.33942  24471806.273                    24471816.770
 119761597.462 7  93320854.44044  22789849.617                    22789857.742
 110652422.774 8  86222712.309 7  21056450.750                    21056457.922
 129243003.989 6 100708951.01443  24594093.563                    24594102.352
 106522247.628 7  83004445.436 8  20270486.844                    20270493.484
 113112128.732 7  88139337.11845  21524510.461                    21524518.484
 122049171.947 6  95103310.114 6  23225191.781                    23225199.918
 112142187.041 7  87383510.08846  21339876.344                    21339881.734
 113932909.552 8  88778890.137 7  21680698.258                    21680708.348
 11  8 17  2  7 30.0000000  0  9G26G10G12G04G05G30G29G02G25
 128505642.116 6 100134379.37843  24453823.820                    24453835.098
 119856612.443 7  93394892.04644  22807931.195                    22807938.887
 110694968.085 8  86255864.497 7  21064546.805                    21064553.738
 129321564.966 6 100770167.37243  24609043.742                    24609052.008
 106525280.003 8  83006808.341 8  20271063.695                    20271071.137
 113110203.440 8  88137836.91045  21524143.563                    21524151.578
 121966023.966 7  95038519.545 6  23209368.711                    23209378.254
 112177118.130 7  87410729.14746  21346523.094                    21346528.914
 113909422.097 8  88760588.245 7  21676229.180                    21676239.035
 11  8 17  2  8  0.0000000  0  9G26G10G12G04G05G30G29G02G25
 128411075.484 6 100060691.27242  24435830.602                    24435839.516
 119951906.897 7  93469147.41144  22826064.914                    22826073.223
 110738032.451 8  86289421.159 7  21072741.758                    21072748.574
 129400063.227 6 100831334.83243  24623981.414                    24623990.277
 106528879.704 8  83009613.323 8  20271748.820                    20271756.105
 113108885.656 7  88136810.07245  21523893.313                    21523901.188
 121882887.762 6  94973738.169 6  23193548.859                    23193557.547
 112212151.571 7  87438027.94946  21353189.852                    21353195.051
 113886507.649 8  88742732.860 7  21671868.500                    21671878.203
 11  8 17  2  8 30.0000000  0  9G26G10G12G04G05G30G29G02G25
 128316438.289 6  99986948.12542  24417820.422                    24417830.379
 120047477.709 6  93543618.18044  22844251.297                    22844259.105
 110781613.839 8  86323380.691 7  21081035.070                    21081042.211
 129478498.396 6 100892453.14343  24638907.008                    24638916.109
 106533045.630 8  83012859.521 8  20272541.281                    20272548.285
 113108174.711 8  88136256.09045  21523757.930                    21523765.566
 121799764.531 6  94908966.897 6  23177730.836                    23177739.910
 112247286.814 8  87465406.08446  21359876.070                    21359881.207
 113864166.690 8  88725324.345 7  21667616.695                    21667626.926
 11  8 17  2  9  0.0000000  0  9G26G10G12G04G05G30G29G02G25
 128221733.732 6  99913152.50543  24399798.719                    24399807.773
 120143322.106 7  93618302.08344  22862489.969                    22862497.906
 110825710.514 8  86357741.739 7  21089426.422                    21089433.359
 129556870.795 6 100953522.54143  24653820.633                    24653829.609
 106537777.399 8  83016546.622 8  20273441.664                    20273448.598
 113108070.397 8  88136174.80445  21523738.297                    21523745.738
 121716655.832 6  94844206.981 6  23161915.453                    23161924.711
 112282523.444 7  87492863.20946  21366580.938                    21366586.125
 113842399.977 8  88708363.280 7  21663474.875                    21663484.879
 11  8 17  2  9 30.0000000  0  9G26G10G12G04G05G30G29G02G25
 128126964.987 6  99839306.79142  24381764.492                    24381774.059
 120239437.550 7  93693197.19844  22880780.398                    22880788.430
 110870320.719 8  86392502.949 7  21097915.539                    21097922.504
 129635180.038 6 101014542.71543  24668722.109                    24668731.613
 106543074.603 8  83020674.332 8  20274450.109                    20274456.879
 113108572.344 8  88136565.94245  21523833.547                    21523841.324
 121633563.243 7  94779459.573 6  23146104.164                    23146112.473
 112317861.347 8  87520399.25046  21373305.617                    21373311.207
 113821208.223 8  88691850.255 7  21659442.023                    21659451.531
 11  8 17  2 10  0.0000000  0  9G26G10G12G04G05G30G29G02G25
 128032135.134 6  99765413.58543  24363718.570                    24363729.160
 120335821.079 6  93768301.21544  22899121.617                    22899129.633
 110915442.685 8  86427662.927 7  21106501.969                    21106509.238
 129713425.949 6 101075513.51543  24683612.258                    24683621.176
 106548935.887 8  83025241.590 8  20275564.984                    20275572.090
 113109679.966 7  88137429.02145  21524044.094                    21524052.129
 121550488.029 7  94714725.707 6  23130294.883                    23130303.398
 112353299.642 8  87548013.52046  21380049.422                    21380054.770
 113800591.875 8  88675785.577 7  21655518.992                    21655528.582
 11  8 17  2 10 30.0000000  0  8G26G10G12G05G30G29G02G25
 127937247.079 6  99691474.95743  24345662.672                    24345671.926
 120432469.585 7  93843611.67244  22917513.125                    22917521.078
 110961074.262 8  86463220.003 7  21115184.836                    21115192.160
 106555360.256 8  83030247.607 8  20276787.477                    20276794.281
 113111392.516 7  88138763.47445  21524369.719                    21524377.672
 121467431.447 7  94650006.365 6  23114489.711                    23114498.188
 112388837.680 8  87575705.49746  21386812.227                    21386817.305
 113780551.231 8  88660169.507 7  21651705.531                    21651715.371
 11  8 17  2 11  0.0000000  0  8G26G10G12G05G30G29G02G25
 127842303.959 7  99617493.42743  24327595.688                    24327604.996
 120529380.201 7  93919126.41844  22935954.867                    22935962.438
 111007213.717 8  86499172.834 7  21123965.227                    21123972.258
 106562347.086 8  83035691.910 8  20278117.297                    20278124.000
 113113709.496 7  88140568.91845  21524810.164                    21524818.832
 121384395.319 7  94585302.995 6  23098688.188                    23098697.152
 112424475.222 7  87603475.02346  21393593.414                    21393599.168
 113761086.862 8  88645002.488 7  21648001.547                    21648011.621
 11  8 17  2 11 30.0000000  0  8G26G10G12G05G30G29G02G25
 127747308.623 7  99543471.22043  24309518.125                    24309527.570
 120626549.978 6  93994843.06444  22954445.375                    22954453.352
 111053858.740 8  86535519.611 7  21132841.359                    21132848.578
 106569894.939 8  83041573.379 8  20279553.414                    20279560.594
 113116629.968 7  88142844.61545  21525366.820                    21525374.492
 121301380.716 7  94520616.359 6  23082891.492                    23082899.383
 112460211.127 8  87631321.18346  21400393.852                    21400399.004
 113742198.926 8  88630284.634 7  21644407.383                    21644417.434
 11  8 17  2 12  0.0000000  0  8G26G10G12G05G30G29G02G25
 127652264.587 7  99469411.00943  24291431.797                    24291441.176
 120723976.261 7  94070759.62144  22972984.195                    22972992.531
 111101008.030 8  86572259.318 7  21141813.953                    21141820.902
 106578003.854 8  83047892.026 8  20281096.711                    20281103.770
 113120153.999 7  88145590.61845  21526037.063                    21526045.430
 121218389.646 7  94455948.066 6  23067097.938                    23067107.152
 112496046.003 8  87659244.46546  21407213.289                    21407218.172
 113723888.532 8  88616016.794 7  21640922.703                    21640932.789
 11  8 17  2 12 30.0000000  0  8G26G10G12G05G30G29G02G25
 127557175.252 6  99395315.57143  24273336.195                    24273346.664
 120821655.989 7  94146873.63944  22991572.391                    22991581.051
 111148659.696 8  86609390.496 7  21150881.508                    21150888.922
 106586672.867 8  83054647.111 8  20282746.188                    20282753.316
 113124280.821 8  88148806.31645  21526822.891                    21526830.840
 121135423.548 7  94391299.275 6  23051310.164                    23051319.355
 112531979.145 8  87687244.31246  21414051.102                    21414055.805
 113706155.930 8  88602199.196 7  21637548.477                    21637558.008
 11  8 17  2 13  0.0000000  0  8G26G10G12G05G30G29G02G25
 127462043.595 6  99321187.13743  24255233.414                    24255243.359
 120919586.727 7  94223183.25944  23010208.773                    23010216.379
 111196811.799 8  86646911.616 7  21160044.500                    21160051.539
 106595901.093 8  83061837.956 8  20284502.141                    20284509.227
 113129009.727 8  88152491.18645  21527722.430                    21527730.316
 121052484.104 7  94326671.218 6  23035527.508                    23035535.945
 112568010.014 8  87715320.30546  21420907.469                    21420912.668
 113689001.594 8  88588832.189 7  21634283.953                    21634293.945
 11  8 17  2 13 30.0000000  0  8G26G10G12G05G30G29G02G25
 127366872.810 7  99247028.18343  24237122.883                    24237132.758
 121017765.003 7  94299685.78644  23028891.359                    23028898.750
 111245461.935 8  86684820.817 7  21169302.203                    21169309.711
 106605687.083 8  83069463.426 8  20286364.219                    20286371.621
 113134339.967 8  88156644.61845  21528736.656                    21528744.441
 120969572.461 7  94262064.785 6  23019750.273                    23019757.535
 112604138.341 8  87743472.24546  21427782.586                    21427787.844
 113672425.645 8  88575915.884 7  21631130.063                    21631140.051
 11  8 17  2 14  0.0000000  0  8G26G10G12G05G30G29G02G25
 127271665.766 6  99172840.95043  24219006.016                    24219015.660
 121116188.178 6  94376379.15943  23047620.016                    23047627.891
 111294608.192 8  86723116.614 7  21178654.984                    21178661.711
 106616029.783 8  83077522.694 8  20288332.570                    20288339.891
 113140270.564 7  88161265.87245  21529865.891                    21529873.012
 120886690.193 7  94197481.250 6  23003978.078                    23003986.035
 112640363.425 8  87771699.57246  21434676.102                    21434681.117
 113656428.350 8  88563450.453 7  21628085.453                    21628095.781
 11  8 17  2 14 30.0000000  0  8G26G10G12G05G30G29G02G25
 127176425.739 6  99098628.08743  24200882.445                    24200892.164
 121214853.267 6  94453260.98444  23066395.852                    23066403.895
 111344248.507 8  86761797.381 7  21188100.859                    21188107.770
 106626928.136 8  83086014.941 8  20290406.602                    20290413.605
 113146800.765 8  88166354.32145  21531108.430                    21531115.805
 120803838.840 7  94132921.827 7  22988211.508                    22988220.773
 112676684.758 8  87800001.90246  21441587.961                    21441592.758
 113641009.959 8  88551436.129 7  21625151.539                    21625161.211
 11  8 17  2 15  0.0000000  0  8G26G10G12G05G30G29G02G25
 127081156.076 6  99024392.11543  24182753.219                    24182762.641
 121313757.347 6  94530329.06244  23085216.508                    23085225.078
 111394381.036 8  86800861.699 7  21197640.914                    21197647.969
 106638381.466 8  83094939.633 8  20292585.789                    20292592.922
 113153929.924 8  88171909.53145  21532464.523                    21532472.703
 120721020.235 7  94068387.914 6  22972451.453                    22972460.270
 112713102.376 8  87828379.27146  21448517.648                    21448522.973
 113626170.955 8  88539873.271 7  21622328.094                    21622338.039
 11  8 17  2 15 30.0000000  0  8G26G10G12G05G30G29G02G25
 126985859.827 6  98950135.37543  24164618.742                    24164628.090
 121412897.696 6  94607581.21844  23104082.117                    23104090.273
 111445003.246 8  86840307.587 7  21207273.836                    21207280.633
 106650388.539 8  83104295.805 8  20294870.898                    20294877.676
 113161657.252 8  88177930.83045  21533934.992                    21533942.684
 120638235.810 7  94003880.634 6  22956698.375                    22956707.273
 112749615.464 8  87856831.03646  21455466.000                    21455471.465
 113611911.568 8  88528762.063 7  21619614.008                    21619624.000
 11  8 17  2 16  0.0000000  0  8G26G10G12G05G30G29G02G25
 126890540.308 6  98875860.52143  24146479.234                    24146489.621
 121512271.652 6  94685015.43244  23122992.414                    23123000.594
 111496113.626 8  86880133.856 7  21216999.523                    21217007.242
 106662948.540 8  83114082.835 8  20297260.898                    20297267.902
 113169982.103 8  88184417.73745  21535519.727                    21535527.164
 120555487.337 7  93939401.355 7  22940951.758                    22940960.262
 112786224.025 8  87885357.18146  21462432.031                    21462437.582
 113598232.239 8  88518102.858 7  21617011.117                    21617021.117
 11  8 17  2 16 30.0000000  0  8G26G10G12G05G30G29G02G25
 126795200.950 6  98801570.21943  24128337.156                    24128347.438
 121611876.052 6  94762629.21244  23141947.148                    23141954.590
 111547709.887 8  86920338.734 7  21226818.000                    21226825.289
 106676060.093 8  83124299.653 8  20299755.828                    20299763.234
 113178903.268 8  88191369.31545  21537217.398                    21537224.883
 120472776.110 7  93874951.096 6  22925212.156                    22925221.055
 112822927.454 7  87913957.25246  21469416.539                    21469421.828
 113585132.872 8  88507895.576 7  21614518.516                    21614528.418
 11  8 17  2 17  0.0000000  0  8G26G10G12G05G30G29G02G25
 126699844.635 6  98727266.67843  24110191.164                    24110200.828
 121711707.993 6  94840420.27844  23160943.969                    23160952.469
 111599789.636 8  86960920.362 7  21236728.672                    21236735.355
 106689721.914 8  83134945.248 8  20302355.438                    20302362.332
 113188419.827 7  88198784.82845  21539028.094                    21539035.723
 120390103.740 7  93810531.118 7  22909480.281                    22909488.867
 112859725.137 7  87942630.78046  21476419.125                    21476424.082
 113572613.649 8  88498140.371 7  21612136.297                    21612145.629
 11  8 17  2 17 30.0000000  0  8G26G10G12G05G30G29G02G25
 126604474.713 6  98652952.54043  24092043.070                    24092052.438
 121811765.057 7  94918386.76844  23179984.727                    23179992.738
 111652351.122 8  87001877.351 7  21246730.602                    21246737.984
 106703933.323 8  83146019.089 8  20305059.906                    20305067.125
 113198531.120 7  88206663.78545  21540952.414                    21540959.984
 120307472.151 7  93746142.905 6  22893756.227                    22893763.973
 112896617.204 8  87971377.84746  21483439.383                    21483444.266
 113560674.891 8  88488837.460 7  21609864.445                    21609874.516
 11  8 17  2 18  0.0000000  0  8G26G10G12G05G30G29G02G25
 126509094.406 6  98578630.26643  24073892.016                    24073902.098
 121912044.053 6  94996526.18944  23199067.313                    23199075.457
 111705392.224 8  87043208.083 7  21256823.969                    21256831.156
 106718692.836 8  83157520.027 8  20307868.727                    20307875.824
 113209235.906 8  88215005.20845  21542989.234                    21542997.207
 120224882.690 7  93681787.519 6  22878039.922                    22878047.957
 112933602.850 8  88000197.82746  21490477.727                    21490482.367
 113549316.591 8  88479986.860 7  21607702.906                    21607712.844
 11  8 17  2 18 30.0000000  0  8G26G10G12G05G30G29G02G25
 126413706.942 6  98504302.42643  24055740.641                    24055750.094
 122012542.335 6  95074836.51844  23218191.352                    23218199.539
 111758910.349 8  87084910.523 7  21267008.445                    21267015.215
 106733999.085 8  83169447.002 8  20310781.148                    20310788.027
 113220533.248 8  88223808.35445  21545139.180                    21545146.703
 120142336.804 7  93617466.066 6  22862331.477                    22862339.797
 112970681.813 8  88029090.53846  21497533.539                    21497538.281
 113538538.776 8  88471588.593 7  21605652.016                    21605661.691
 11  8 17  2 19  0.0000000  0  8G26G10G12G05G30G29G02G25
 126318315.788 7  98429971.72943  24037589.133                    24037597.883
 122113257.056 6  95153315.49644  23237356.680                    23237364.773
 111812903.561 8  87126983.154 7  21277282.648                    21277290.043
 106749851.465 8  83181799.519 8  20313798.078                    20313804.813
 113232422.349 8  88233072.62145  21547400.930                    21547409.211
 120059836.456 7  93553180.129 6  22846632.227                    22846640.625
 113007853.912 8  88058055.83546  21504606.625                    21504612.254
 113528341.743 8  88463642.868 7  21603711.438                    21603721.348
 11  8 17  2 19 30.0000000  0  8G26G10G12G05G30G29G02G25
 126222924.177 7  98355640.65543  24019436.227                    24019445.484
 122214185.290 7  95231960.83944  23256563.117                    23256571.273
 111867369.857 8  87169424.437 7  21287647.766                    21287654.168
 106766248.580 8  83194576.509 8  20316918.031                    20316925.301
 113244902.169 8  88242797.17445  21549775.883                    21549783.590
 119977383.551 7  93488931.141 7  22830942.305                    22830950.426
 113045119.010 8  88087093.57845  21511698.094                    21511703.887
 113518725.572 8  88456149.799 7  21601881.320                    21601891.066
 11  8 17  2 20  0.0000000  0  8G26G10G12G05G30G29G02G25
 126127535.229 6  98281311.65743  24001284.656                    24001294.445
 122315324.283 6  95310770.39744  23275808.891                    23275817.273
 111922306.413 8  87212232.144 7  21298101.500                    21298108.750
 106783188.717 8  83207776.627 8  20320141.602                    20320149.145
 113257971.386 8  88252981.00745  21552262.953                    21552270.484
 119894979.234 7  93424720.022 6  22815261.414                    22815269.074
 113082476.461 8  88116203.30146  21518807.375                    21518813.016
 113509690.028 8  88449109.142 7  21600162.398                    21600171.707
 11  8 17  2 20 30.0000000  0  8G26G10G12G05G30G29G02G25
 126032152.372 6  98206987.40843  23983133.797                    23983143.039
 122416671.073 6  95389741.88243  23295094.820                    23295102.820
 111977711.397 8  87255404.842 7  21308644.789                    21308651.797
 106800670.791 8  83221399.039 8  20323468.438                    20323475.395
 113271628.962 8  88263623.30545  21554861.977                    21554869.734
 119812625.247 7  93360548.104 6  22799589.523                    22799597.352
 113119925.780 8  88145384.60746  21525933.758                    21525938.613
 113501235.140 8  88442520.959 7  21598553.383                    21598563.203
 11  8 17  2 21  0.0000000  0  8G26G10G12G05G30G29G02G25
 125936778.906 6  98132670.51543  23964985.039                    23964993.813
 122518222.871 7  95468873.13643  23314419.102                    23314427.082
 112033582.233 8  87298940.591 7  21319276.734                    21319283.527
 106818693.563 8  83235442.773 8  20326898.141                    20326904.742
 113285873.835 8  88274723.24245  21557572.648                    21557580.539
 119730323.370 7  93296416.827 6  22783928.070                    22783936.691
 113157466.649 8  88174637.24045  21533076.977                    21533082.453
 113493360.903 8  88436385.222 7  21597054.859                    21597064.520
 11  8 17  2 21 30.0000000  0  8G26G10G12G05G30G29G02G25
 125841418.333 6  98058363.61643  23946837.883                    23946846.848
 122619976.855 7  95548161.95643  23333782.539                    23333790.371
 112089917.651 8  87342838.306 7  21329997.055                    21330004.141
 106837255.947 8  83249906.977 8  20330430.469                    20330437.277
 113300705.011 8  88286280.02245  21560394.969                    21560402.801
 119648075.632 7  93232327.729 7  22768277.055                    22768285.637
 113195099.149 8  88203961.28346  21540238.664                    21540243.992
 113486067.472 8  88430702.074 7  21595666.617                    21595676.656
 11  8 17  2 22  0.0000000  0  8G26G10G12G05G30G29G02G25
 125746073.802 6  97984069.24243  23928695.109                    23928703.797
 122721930.216 7  95627606.11344  23353183.313                    23353191.355
 112146714.269 7  87387095.420 7  21340804.953                    21340812.027
 106856356.353 8  83264790.420 8  20334064.742                    20334071.930
 113316121.170 8  88298292.64445  21563328.211                    21563336.500
 119565883.359 7  93168281.861 7  22752636.391                    22752644.328
 113232822.926 8  88233356.44546  21547417.016                    21547422.375
 113479354.589 8  88425471.296 7  21594389.133                    21594398.688
 11  8 17  2 22 30.0000000  0  8G26G10G12G05G30G29G02G25
 125650748.473 6  97909789.85043  23910554.094                    23910563.539
 122824079.944 7  95707203.27844  23372621.805                    23372630.266
 112203969.827 8  87431710.138 7  21351700.563                    21351707.477
 106875993.049 8  83280091.744 8  20337801.703                    20337808.473
 113332120.873 8  88310759.95346  21566373.305                    21566380.871
 119483748.249 7  93104280.518 6  22737006.008                    22737014.031
 113270637.369 8  88262822.25846  21554612.547                    21554618.051
 113473221.966 8  88420692.689 7  21593222.344                    21593232.102
 11  8 17  2 23  0.0000000  0  8G26G10G12G05G30G29G02G25
 125555446.179 6  97835528.41543  23892420.016                    23892428.695
 122926423.867 7  95786951.79544  23392097.258                    23392105.508
 112261682.521 7  87476681.081 7  21362682.594                    21362689.906
 106896165.734 8  83295810.725 8  20341640.547                    20341647.160
 113348703.478 8  88323681.48945  21569528.570                    21569536.016
 119401672.399 7  93040325.351 6  22721387.516                    22721395.656
 113308542.537 8  88292358.77446  21561825.898                    21561831.543
 113467669.900 8  88416366.429 7  21592165.461                    21592175.234
 11  8 17  2 23 30.0000000  0  8G26G10G12G05G30G29G02G25
 125460170.107 6  97761287.39743  23874288.039                    23874298.031
 123028958.782 7  95866849.12343  23411609.172                    23411617.336
 112319850.068 8  87522006.426 7  21373752.008                    21373758.785
 106916872.441 8  83311945.834 8  20345581.016                    20345587.590
 113365867.501 8  88337056.06845  21572794.953                    21572802.242
 119319657.260 7  92976417.518 6  22705780.727                    22705789.016
 113346538.145 8  88321965.75446  21569056.234                    21569061.293
 113462698.101 8  88412492.321 7  21591219.766                    21591229.332
 11  8 17  2 24  0.0000000  0  8G26G10G12G05G30G29G02G25
 125364923.857 6  97687069.59343  23856163.992                    23856173.164
 123131682.080 7  95946893.24143  23431157.313                    23431165.199
 112378470.019 7  87567684.334 7  21384906.406                    21384913.539
 106938112.256 8  83328496.352 8  20349622.547                    20349629.492
 113383611.905 7  88350882.87945  21576171.336                    21576179.387
 119237705.002 7  92912558.672 6  22690186.102                    22690193.863
 113384624.011 8  88351643.05446  21576304.063                    21576309.137
 113458306.573 8  88409070.389 7  21590383.883                    21590393.410
 11  8 17  2 24 30.0000000  0  8G26G10G12G05G30G29G02G25
 125269710.507 6  97612877.48143  23838044.672                    23838054.816
 123234590.708 7  96027081.75043  23450739.398                    23450747.926
 112437539.565 8  87613712.544 7  21396147.055                    21396154.133
 106959883.130 8  83345460.681 8  20353765.281                    20353772.477
 113401935.007 8  88365160.61145  21579658.625                    21579665.938
 119155816.730 7  92848749.678 6  22674603.250                    22674611.008
 113422799.663 8  88381390.32245  21583568.445                    21583573.457
 113454494.720 8  88406100.124 7  21589658.742                    21589668.602
 11  8 17  2 25  0.0000000  0  8G26G10G12G05G30G29G02G25
 125174533.314 6  97538713.53543  23819933.172                    23819943.477
 123337682.299 7  96107412.83844  23470357.773                    23470365.324
 112497056.780 8  87660089.611 7  21407472.898                    21407480.020
 106982183.825 8  83362837.851 8  20358009.391                    20358016.051
 113420835.570 7  88379888.33445  21583254.820                    21583263.238
 119073994.667 7  92784992.309 7  22659032.320                    22659040.422
 113461065.201 8  88411207.63946  21590850.430                    21590855.227
 113451262.442 8  88403581.492 7  21589043.438                    21589053.203
 11  8 17  2 25 30.0000000  0  8G26G10G12G05G30G29G02G25
 125079395.893 6  97464580.56443  23801829.453                    23801838.688
 123440953.898 7  96187884.20444  23490009.656                    23490017.234
 112557019.207 7  87706813.579 7  21418883.344                    21418890.480
 107005012.955 8  83380626.811 8  20362353.508                    20362360.660
 113440312.401 7  88395065.06245  21586961.406                    21586969.051
 118992240.400 7  92721287.751 7  22643475.242                    22643483.211
 113499419.859 8  88441094.39145  21598148.672                    21598153.516
 113448609.569 8  88401514.344 7  21588538.672                    21588548.336
 11  8 17  2 26  0.0000000  0  8G26G10G12G05G30G29G02G25
 124984301.275 6  97390480.93143  23783733.477                    23783742.160
 123544402.470 7  96268493.46444  23509694.633                    23509703.156
 112617423.996 7  87753882.274 7  21430378.070                    21430384.840
 107028368.318 8  83398825.795 8  20366797.836                    20366804.883
 113460363.729 7  88410689.49245  21590777.039                    21590784.203
 118910555.483 7  92657637.232 7  22627931.594                    22627939.305
 113537863.401 8  88471050.41446  21605464.289                    21605469.566
 113446535.434 8  88399898.139 7  21588143.805                    21588153.570
 11  8 17  2 26 30.0000000  0  8G26G10G12G05G30G29G02G25
 124889253.315 6  97316417.66343  23765646.695                    23765655.320
 123648025.503 6  96349238.64243  23529413.398                    23529422.965
 112678269.338 7  87801294.227 7  21441955.914                    21441963.125
 107052249.482 8  83417434.501 8  20371342.539                    20371348.988
 113480988.587 7  88426760.79945  21594701.633                    21594709.254
 118828942.400 7  92594042.690 7  22612400.617                    22612408.387
 113576396.110 8  88501075.92346  21612796.859                    21612801.457
 113445040.218 7  88398733.054 7  21587859.305                    21587868.613
 11  8 17  2 27  0.0000000  0  8G26G10G12G05G30G29G02G25
 124794255.365 6  97242393.35043  23747568.773                    23747577.336
 123751820.377 6  96430117.72543  23549165.164                    23549173.770
 112739552.650 7  87849047.462 7  21453618.211                    21453624.902
 107076654.470 7  83436451.399 8  20375986.563                    20375993.469
 113502185.475 7  88443277.85245  21598735.266                    21598742.805
 118747402.361 7  92530505.089 7  22596883.875                    22596891.973
 113615017.302 8  88531170.35546  21620146.180                    21620151.617
 113444123.331 8  88398018.605 7  21587684.938                    21587694.184
 11  8 17  2 27 30.0000000  0  8G26G10G12G05G30G29G02G25
 124699310.741 7  97168410.58643  23729501.953                    23729509.715
 123855784.182 7  96511128.51543  23568948.773                    23568957.605
 112801270.935 7  87897139.651 7  21465362.930                    21465369.699
 107101581.593 8  83455875.152 8  20380729.719                    20380736.543
 113523952.697 7  88460239.33245  21602877.664                    21602885.414
 118665937.197 7  92467025.802 7  22581382.109                    22581389.535
 113653726.900 8  88561333.69046  21627512.641                    21627517.629
 113443784.335 8  88397754.471 7  21587620.398                    21587629.871
 11  8 17  2 28  0.0000000  0  9G26G10G12G15G05G30G29G02G25
 124604422.675 6  97094471.92444  23711444.438                    23711453.742
 123959913.812 7  96592268.48443  23588763.875                    23588772.270
 112863421.853 7  87945568.934 7  21477190.031                    21477197.172
 129398738.31716 100830245.50816  24623770.578                    24623780.598
 107127028.940 8  83475704.256 8  20385572.352                    20385579.164
 113546288.690 8  88477644.01445  21607127.750                    21607135.637
 118584548.674 7  92403606.271 7  22565893.891                    22565902.422
 113692524.319 8  88591565.45545  21634895.375                    21634900.273
 113444022.642 8  88397940.178 7  21587665.516                    21587675.180
 11  8 17  2 28 30.0000000  0  9G26G10G12G15G05G30G29G02G25
 124509594.713 6  97020580.09944  23693399.391                    23693409.109
 124064206.707 7  96673535.68543  23608610.352                    23608619.180
 112926003.054 7  87994333.520 7  21489098.563                    21489105.574
 129305468.453 6 100757567.908 6  24606021.648                    24606031.676
 107152995.091 8  83495937.640 8  20390513.148                    20390520.063
 113569192.028 8  88495490.78545  21611486.320                    21611493.508
 118503238.501 7  92340247.788 7  22550421.156                    22550429.078
 113731409.425 8  88621865.53945  21642294.875                    21642300.109
 113444837.963 7  88398575.523 7  21587820.883                    21587830.520
 11  8 17  2 29  0.0000000  0  9G26G10G12G15G05G30G29G02G25
 124414830.438 6  96946737.88643  23675366.031                    23675375.695
 124168660.614 7  96754928.33343  23628487.438                    23628496.273
 112989012.354 7  88043431.665 7  21501088.758                    21501096.109
 129212069.902 6 100684790.067 5  24588247.469                    24588258.391
 107179479.165 8  83516574.596 8  20395553.383                    20395559.941
 113592661.605 7  88513778.76845  21615952.211                    21615960.121
 118422009.077 7  92276952.215 7  22534963.477                    22534971.113
 113770382.769 8  88652234.37446  21649711.211                    21649716.512
 113446230.156 8  88399660.341 7  21588085.219                    21588095.098
 11  8 17  2 29 30.0000000  0  9G26G10G12G15G05G30G29G02G25
 124320133.297 6  96872947.97243  23657346.461                    23657354.727
 124273272.511 7  96836444.12543  23648394.711                    23648402.023
 113052446.559 8  88092860.921 7  21513160.039                    21513167.184
 129118545.062 6 100611913.742 6  24570450.055                    24570459.785
 107206479.040 8  83537613.465 8  20400691.148                    20400697.598
 113616695.404 7  88532506.40245  21620525.875                    21620533.402
 118340861.900 7  92213720.728 7  22519522.086                    22519529.973
 113809443.751 8  88682671.49845  21657144.328                    21657149.883
 113448198.444 8  88401194.080 7  21588460.367                    21588469.496
 11  8 17  2 30  0.0000000  0  9G26G10G12G15G05G30G29G02G25
 124225507.022 6  96799213.27844  23639339.313                    23639348.016
 124378039.890 7  96918081.03843  23668331.023                    23668338.238
 113116304.039 7  88142619.994 7  21525311.773                    21525318.641
 129024896.455 6 100538940.991 5  24552629.813                    24552639.348
 107233993.512 8  83559053.334 8  20405926.734                    20405933.633
 113641292.313 7  88551672.84245  21625206.602                    21625214.484
 118259799.144 7  92150555.026 7  22504095.570                    22504103.797
 113848592.349 8  88713176.89745  21664593.898                    21664599.066
 113450742.673 8  88403176.614 7  21588944.070                    21588953.613
 11  8 17  2 30 30.0000000  0  9G26G10G12G15G05G30G29G02G25
 124130954.828 6  96725536.31944  23621346.898                    23621355.953
 124482959.651 7  96999836.67943  23688296.375                    23688304.262
 113180581.629 8  88192706.417 7  21537543.609                    21537551.012
 128931126.503 6 100465873.755 6  24534785.398                    24534795.363
 107262020.489 8  83580892.550 8  20411260.195                    20411266.852
 113666450.454 8  88571276.59545  21629993.961                    21630001.133
 118178822.331 7  92087456.290 7  22488686.070                    22488694.980
 113887828.172 8  88743750.26345  21672059.844                    21672065.426
 113453861.988 8  88405607.253 7  21589538.281                    21589547.512
 11  8 17  2 31  0.0000000  0  9G26G10G12G15G05G30G29G02G25
 124036480.197 6  96651919.80543  23603368.430                    23603377.477
 124588029.424 6  97081709.22543  23708290.461                    23708299.012
 113245276.957 7  88243118.341 7  21549854.117                    21549861.574
 128837237.900 6 100392714.060 6  24516919.422                    24516928.855
 107290558.537 7  83603130.011 8  20416691.063                    20416697.797
 113692168.303 7  88591316.49745  21634887.570                    21634895.430
 118097933.511 7  92024426.107 7  22473294.008                    22473301.828
 113927151.197 8  88774391.57645  21679543.305                    21679548.832
 113457556.098 8  88408485.796 7  21590240.883                    21590250.176
 11  8 17  2 31 30.0000000  0  9G26G10G12G15G05G30G29G02G25
 123942086.299 7  96578366.18844  23585405.641                    23585414.645
 124693246.534 6  97163696.55943  23728312.523                    23728321.613
 113310387.165 8  88293853.562 7  21562244.633                    21562251.883
 128743232.751 6 100319463.534 6  24499030.828                    24499040.703
 107319605.529 8  83625764.048 8  20422218.305                    20422225.164
 113718443.839 8  88611790.94945  21639887.578                    21639895.289
 118017134.418 7  91961465.849 7  22457918.063                    22457925.656
 113966560.912 8  88805100.44045  21687043.055                    21687048.121
 113461823.905 8  88411811.368 7  21591052.805                    21591062.504
 11  8 17  2 32  0.0000000  0  9G26G10G12G15G05G30G29G02G25
 123847777.201 6  96504878.65344  23567459.648                    23567468.754
 124798608.358 7  97245796.65543  23748361.789                    23748370.797
 113375910.042 8  88344910.352 7  21574713.039                    21574720.086
 128649114.002 6 100246124.477 6  24481119.844                    24481129.316
 107349160.305 8  83648793.758 8  20427842.352                    20427849.180
 113745275.867 7  88632699.04245  21644993.570                    21645001.652
 117936426.933 7  91898576.968 7  22442559.969                    22442567.676
 114006057.509 8  88835877.00746  21694558.680                    21694563.582
 113466665.338 8  88415583.926 7  21591974.398                    21591984.086
 11  8 17  2 32 30.0000000  0  9G26G10G12G15G05G30G29G02G25
 123753555.969 6  96431459.57044  23549529.508                    23549538.766
 124904111.991 6  97328007.27343  23768439.734                    23768447.477
 113441842.615 8  88396286.367 7  21587259.453                    21587266.551
 128554883.803 6 100172698.609 6  24463188.242                    24463197.523
 107379220.619 8  83672217.391 8  20433562.430                    20433569.094
 113772662.298 7  88654039.12445  21650205.313                    21650213.355
 117855812.956 7  91835760.957 7  22427219.031                    22427227.594
 114045640.859 8  88866721.17345  21702091.539                    21702096.363
 113472079.439 8  88419802.711 7  21593004.625                    21593014.363
 11  8 17  2 33  0.0000000  0  9G26G10G12G15G05G30G29G02G25
 123659426.557 7  96358112.03844  23531617.406                    23531626.066
 125009755.006 6  97410326.50243  23788541.875                    23788550.477
 113508182.720 8  88447979.942 7  21599884.023                    21599891.102
 128460545.097 6 100099188.219 6  24445236.086                    24445245.883
 107409785.472 8  83696034.183 8  20439378.977                    20439385.793
 113800601.853 7  88675810.22145  21655521.891                    21655529.648
 117775294.682 7  91773019.502 7  22411897.531                    22411905.750
 114085310.926 7  88897632.92145  21709640.078                    21709645.102
 113478065.893 8  88424467.509 7  21594143.438                    21594153.441
 11  8 17  2 33 30.0000000  0  9G26G10G12G15G05G30G29G02G25
 123565392.437 7  96284838.78344  23513723.430                    23513732.242
 125115534.735 6  97492752.24343  23808671.523                    23808680.016
 113574927.715 8  88499989.026 7  21612584.813                    21612591.609
 128366100.469 6 100025595.239 6  24427263.477                    24427273.133
 107440853.011 8  83720242.668 8  20445291.000                    20445297.496
 113829092.687 7  88698010.86945  21660943.398                    21660950.711
 117694873.823 7  91710353.961 7  22396593.539                    22396601.363
 114125067.521 7  88928612.09245  21717205.445                    21717210.891
 113484623.974 8  88429577.705 7  21595391.688                    21595401.313
 11  8 17  2 34  0.0000000  0  9G26G10G12G15G05G30G29G02G25
 123471456.740 7  96211642.21844  23495847.922                    23495857.008
 125221448.141 6  97575282.15243  23828826.445                    23828834.492
 113642074.706 8  88552311.366 7  21625362.727                    21625369.137
 128271551.974 6  99951921.361 6  24409271.594                    24409281.016
 107472420.583 8  83744840.794 8  20451298.102                    20451304.609
 113858132.696 7  88720639.44445  21666469.906                    21666477.262
 117614552.159 7  91647765.723 7  22381308.648                    22381316.629
 114164909.978 7  88959658.16245  21724787.258                    21724792.371
 113491752.607 8  88435132.496 7  21596747.953                    21596757.336
 11  8 17  2 34 30.0000000  0  9G26G10G12G15G05G30G29G02G25
 123377622.898 7  96138525.02444  23477991.734                    23478000.641
 125327492.739 6  97657914.26443  23849005.617                    23849014.203
 113709620.996 7  88604944.804 7  21638216.305                    21638223.516
 128176902.482 6  99878168.746 6  24391259.773                    24391269.992
 107504486.931 7  83769827.569 8  20457399.836                    20457406.785
 113887720.201 7  88743694.65345  21672100.008                    21672107.961
 117534331.794 7  91585256.391 7  22366043.867                    22366051.211
 114204838.492 7  88990771.30245  21732385.758                    21732390.820
 113499451.098 8  88441131.334 7  21598213.328                    21598222.391
 11  8 17  2 35  0.0000000  0  9G26G10G12G15G05G30G29G02G25
 123283895.214 7  96065490.51944  23460155.938                    23460164.172
 125433666.318 7  97740646.94943  23869210.203                    23869218.102
 113777564.886 8  88657888.087 7  21651145.766                    21651152.582
 128082154.984 6  99804339.730 6  24373230.516                    24373239.609
 107537051.002 8  83795202.190 8  20463596.680                    20463603.512
 113917853.809 7  88767175.39345  21677834.313                    21677842.176
 117454215.050 7  91522827.812 7  22350798.313                    22350805.824
 114244853.491 8  89021951.84345  21739999.852                    21740005.148
 113507719.163 8  88447573.993 7  21599786.273                    21599795.750
 11  8 17  2 35 30.0000000  0  9G26G10G12G15G05G30G29G02G25
 123190276.462 7  95992540.91644  23442340.406                    23442349.242
 125539965.538 7  97823477.50743  23889438.234                    23889445.855
 113845901.839 8  88711137.673 7  21664149.250                    21664156.488
 127987311.339 6  99730435.782 5  24355182.031                    24355191.078
 107570109.773 8  83820962.282 8  20469887.594                    20469894.039
 113948530.962 7  88791079.67745  21683671.945                    21683679.586
 117374203.222 7  91460481.012 7  22335571.984                    22335579.672
 114284954.152 8  89053199.13345  21747630.711                    21747636.156
 113516555.295 8  88454459.313 7  21601467.836                    21601477.613
 11  8 17  2 36  0.0000000  0  9G26G10G12G15G05G30G29G02G25
 123096770.031 7  95919678.82044  23424546.703                    23424555.395
 125646387.836 7  97906403.90643  23909689.117                    23909697.641
 113914629.723 8  88764691.860 7  21677227.625                    21677235.238
 127892374.153 7  99656458.861 6  24337115.742                    24337124.066
 107603661.276 8  83847106.332 8  20476272.367                    20476278.797
 113979749.847 7  88815406.08145  21689612.445                    21689620.117
 117294298.304 7  91398217.503 7  22320366.914                    22320374.176
 114325140.431 7  89084513.13745  21755278.234                    21755282.633
 113525958.771 8  88461786.687 7  21603257.539                    21603267.031
 11  8 17  2 36 30.0000000  0  9G26G10G12G15G05G30G29G02G25
 123003380.412 7  95846907.77444  23406775.570                    23406784.539
 125752931.155 6  97989424.65143  23929963.984                    23929972.602
 113983746.527 8  88818549.092 7  21690380.563                    21690387.840
 127797346.363 6  99582411.410 6  24319032.391                    24319041.641
 107637704.745 7  83873633.722 8  20482750.477                    20482757.422
 114011509.242 7  88840153.66045  21695656.539                    21695663.863
 117214502.608 7  91336039.096 7  22305181.664                    22305189.051
 114365412.778 8  89115894.21045  21762941.164                    21762946.707
 113535929.306 8  88469555.945 7  21605154.867                    21605164.371
 11  8 17  2 37  0.0000000  0  9G26G10G12G15G05G30G29G02G25
 122910110.513 7  95774230.01744  23389026.586                    23389035.152
 125859592.714 6  98072537.48443  23950261.242                    23950269.730
 114053249.457 8  88872707.208 7  21703606.570                    21703613.445
 127702230.809 6  99508295.544 6  24300932.016                    24300941.672
 107672237.988 8  83900542.753 8  20489321.820                    20489328.816
 114043806.904 7  88865320.66745  21701802.273                    21701809.441
 117134817.890 7  91273947.158 7  22290017.898                    22290025.785
 114405770.709 8  89147341.96645  21770621.359                    21770625.887
 113546465.745 8  88477766.149 7  21607159.773                    21607169.441
 11  8 17  2 37 30.0000000  0  9G26G10G12G15G05G30G29G02G25
 122816964.089 7  95701648.44344  23371301.617                    23371310.262
 125966369.676 6  98155740.27143  23970580.250                    23970588.488
 114123135.499 8  88927163.853 7  21716905.391                    21716912.480
 127607029.907 6  99434113.202 6  24282815.727                    24282825.789
 107707258.979 7  83927831.853 8  20495986.266                    20495993.000
 114076640.880 7  88890905.58045  21708050.523                    21708057.484
 117055246.343 7  91211943.440 7  22274876.031                    22274884.285
 114446214.271 8  89178856.45345  21778317.984                    21778322.613
 113557567.173 8  88486416.611 7  21609272.656                    21609281.945
 11  8 17  2 38  0.0000000  0  9G26G10G12G15G05G30G29G02G25
 122723944.767 7  95629165.90244  23353600.711                    23353609.172
 126073259.937 6  98239031.31243  23990920.727                    23990928.926
 114193401.888 7  88981916.864 7  21730276.914                    21730284.125
 127511746.396 6  99359866.491 6  24264684.008                    24264693.266
 107742766.314 8  83955499.922 8  20502742.797                    20502749.852
 114110009.426 8  88916907.03445  21714400.266                    21714407.277
 116975789.791 8  91150029.284 7  22259756.289                    22259764.043
 114486743.700 7  89210437.84745  21786030.273                    21786035.223
 113569232.877 8  88495506.769 7  21611492.477                    21611501.758
 11  8 17  2 38 30.0000000  0  9G26G10G12G15G05G30G29G02G25
 122631056.202 7  95556785.26544  23335924.023                    23335933.117
 126180260.450 6  98322408.26642  24011281.906                    24011290.625
 114264046.451 7  89036964.573 7  21743719.648                    21743727.125
 127416382.707 6  99285557.272 6  24246536.852                    24246546.074
 107778757.478 8  83983545.001 8  20509591.891                    20509598.578
 114143910.320 7  88943323.30945  21720851.430                    21720859.273
 116896450.315 7  91088206.388 7  22244657.891                    22244665.891
 114527358.513 7  89242085.75545  21793758.969                    21793763.750
 113581461.620 8  88505035.640 7  21613819.438                    21613828.750
 11  8 17  2 39  0.0000000  0  9G26G10G12G15G05G30G29G02G25
 122538301.209 7  95484508.71244  23318273.508                    23318282.438
 126287368.390 6  98405868.91942  24031663.938                    24031672.281
 114335065.821 7  89092304.311 7  21757234.477                    21757241.883
 127320941.561 7  99211187.695 6  24228374.836                    24228383.938
 107815230.234 8  84011965.335 8  20516532.289                    20516539.270
 114178341.279 8  88970152.63745  21727403.438                    21727411.434
 116817230.029 7  91026476.336 7  22229583.047                    22229590.773
 114568058.364 7  89273799.94445  21801503.758                    21801508.820
 113594252.175 8  88515002.312 7  21616253.195                    21616262.848
 11  8 17  2 39 30.0000000  0  9G26G10G12G15G05G30G29G02G25
 122445684.071 7  95412339.57544  23300649.305                    23300657.723
 126394581.598 6  98489411.62943  24052066.297                    24052074.051
 114406457.034 8  89147933.805 7  21770819.969                    21770826.715
 127225425.354 6  99136759.628 6  24210199.242                    24210208.121
 107852182.953 8  84040759.681 8  20523564.414                    20523571.207
 114213300.542 8  88997393.61045  21734055.953                    21734063.809
 116738130.600 7  90964840.476 7  22214530.820                    22214538.395
 114608843.330 7  89305580.45345  21809264.961                    21809269.852
 113607603.838 8  88525406.183 7  21618794.164                    21618803.801
 11  8 17  2 40  0.0000000  0  9G26G10G12G15G05G30G29G02G25
 122353208.349 7  95340280.64844  23283051.484                    23283060.363
 126501897.352 6  98573034.26943  24072487.820                    24072495.707
 114478217.673 7  89203851.177 7  21784475.313                    21784482.457
 127129837.118 6  99062275.424 6  24192008.891                    24192018.348
 107889613.952 8  84069926.701 8  20530686.773                    20530693.660
 114248786.146 8  89025044.71745  21740808.617                    21740816.527
 116659154.235 7  90903300.505 7  22199502.305                    22199510.059
 114649713.777 7  89337427.54845  21817042.250                    21817047.594
 113621515.632 8  88536246.545 7  21621441.555                    21621451.000
 11  8 17  2 40 30.0000000  0  9G26G10G12G15G05G30G29G02G25
 122260877.496 7  95268334.61044  23265481.273                    23265489.918
 126609313.029 6  98656734.76243  24092928.398                    24092936.781
 114550345.002 7  89260054.263 7  21798200.969                    21798207.824
 127034179.562 6  98987737.239 6  24173805.922                    24173814.887
 107927521.082 8  84099464.724 8  20537900.781                    20537907.102
 114284796.000 8  89053104.32145  21747661.133                    21747669.074
 116580303.101 7  90841858.104 7  22184497.438                    22184504.926
 114690669.613 7  89369341.20345  21824835.961                    21824841.117
 113635986.454 8  88547522.497 7  21624195.211                    21624204.273
 11  8 17  2 41  0.0000000  0  9G26G10G12G15G05G30G29G02G25
 122168695.332 7  95196504.40844  23247939.031                    23247947.973
 126716826.232 6  98740511.23043  24113387.570                    24113395.871
 114622836.253 7  89316540.944 7  21811995.188                    21812002.820
 126938455.347 6  98913147.100 6  24155589.258                    24155598.680
 107965902.504 8  84129372.339 8  20545204.617                    20545211.191
 114321328.077 8  89081570.86645  21754612.734                    21754620.316
 116501579.163 7  90780514.824 7  22169516.875                    22169524.043
 114731710.895 8  89401321.41246  21832645.688                    21832651.156
 113651015.402 8  88559233.377 7  21627054.703                    21627064.656
 11  8 17  2 41 30.0000000  0  9G26G10G12G15G05G30G29G02G25
 122076665.260 7  95124792.73044  23230427.016                    23230435.195
 126824434.486 6  98824361.77543  24133864.781                    24133873.605
 114695688.535 7  89373308.928 7  21825858.758                    21825866.070
 126842667.172 6  98838507.132 6  24137361.336                    24137370.961
 108004756.004 8  84159647.790 8  20552597.969                    20552604.801
 114358380.316 7  89110442.72445  21761663.555                    21761671.215
 116422984.303 7  90719272.112 7  22154560.750                    22154567.828
 114772837.389 7  89433368.02145  21840472.266                    21840477.082
 113666601.207 8  88571378.163 7  21630020.922                    21630030.039
 11  8 17  2 42  0.0000000  0  9G26G10G12G15G05G30G29G02G25
 121984791.101 7  95053202.51844  23212943.555                    23212952.504
 126932135.368 6  98908284.46943  24154359.648                    24154368.348
 114768898.942 7  89430355.973 7  21839790.398                    21839797.715
 126746817.662 6  98763819.398 6  24119122.195                    24119130.797
 108044079.836 8  84190289.753 8  20560081.000                    20560087.906
 114395950.511 7  89139718.18945  21768813.117                    21768821.074
 116344520.611 7  90658131.609 7  22139629.430                    22139636.684
 114814049.082 7  89465481.01945  21848314.531                    21848319.531
 113682742.899 8  88583956.093 7  21633093.078                    21633101.816
 11  8 17  2 42 30.0000000  0  9G26G10G12G15G05G30G29G02G25
 121893076.344 7  94981736.54144  23195490.938                    23195499.816
 127039926.538 6  98992277.57443  24174872.109                    24174880.477
 114842465.200 7  89487680.316 7  21853789.344                    21853797.035
 126650909.839 6  98689086.158 6  24100871.227                    24100879.848
 108083872.317 8  84221296.888 8  20567653.273                    20567660.207
 114434036.720 7  89169395.74145  21776060.594                    21776068.609
 116266190.408 7  90597095.126 7  22124723.703                    22124731.348
 114855345.968 8  89497660.41545  21856172.492                    21856177.789
 113699439.348 8  88596966.319 7  21636269.719                    21636279.004
 11  8 17  2 43  0.0000000  0  9G26G10G12G15G05G30G29G02G25
 121801524.503 7  94910397.51944  23178068.539                    23178077.805
 127147804.933 6  99076338.66043  24195400.953                    24195408.527
 114916383.940 7  89545279.315 7  21867855.836                    21867863.020
 126554945.943 7  98614309.229 6  24082610.133                    24082618.223
 108124130.610 8  84252666.992 8  20575314.219                    20575320.848
 114472636.425 7  89199473.42845  21783405.766                    21783413.313
 116187995.436 7  90536164.016 7  22109843.578                    22109850.773
 114896727.852 8  89529906.02545  21864047.602                    21864052.473
 113716689.094 8  88610407.691 7  21639552.508                    21639561.836
 11  8 17  2 43 30.0000000  0  9G26G10G12G15G05G30G29G02G25
 121710139.083 7  94839188.13844  23160679.195                    23160687.297
 127255768.133 6  99160465.83443  24215945.141                    24215953.477
 114990652.125 7  89603150.604 7  21881988.539                    21881995.805
 126458928.679 7  98539490.750 6  24064338.492                    24064347.203
 108164852.895 8  84284398.638 7  20583063.508                    20583070.262
 114511747.395 7  89229949.50345  21790848.680                    21790856.449
 116109937.967 7  90475340.051 7  22094989.281                    22094997.137
 114938194.917 8  89562218.01945  21871938.781                    21871943.688
 113734490.944 8  88624279.281 7  21642939.938                    21642949.539
 11  8 17  2 44  0.0000000  0  9G26G10G12G15G05G30G29G02G25
 121618923.697 7  94768111.27444  23143321.633                    23143330.137
 127363813.554 6  99244657.08343  24236505.750                    24236513.535
 115065266.734 7  89661291.820 7  21896187.219                    21896194.434
 126362860.679 7  98464632.700 6  24046057.094                    24046065.746
 108206036.640 8  84316489.876 8  20590900.352                    20590907.203
 114551367.241 7  89260822.09345  21798387.945                    21798395.750
 116032019.758 7  90414624.602 7  22080162.477                    22080169.715
 114979747.144 7  89594596.36845  21879845.688                    21879850.551
 113752843.399 8  88638579.901 7  21646432.172                    21646441.523
 11  8 17  2 44 30.0000000  0  9G26G10G12G15G05G30G29G02G25
 121527882.034 7  94697169.75944  23125996.422                    23126005.098
 127471939.117 6  99328910.74043  24257080.617                    24257089.477
 115140225.218 7  89719700.991 7  21910451.266                    21910458.324
 126266745.188 7  98389737.613 6  24027767.148                    24027775.316
 108247680.489 8  84348939.632 8  20598824.969                    20598831.582
 114591494.136 7  89292089.80645  21806023.648                    21806031.586
 115954243.239 7  90354019.566 7  22065362.031                    22065369.285
 115021384.315 7  89627040.91845  21887768.766                    21887774.227
 113771745.625 8  88653308.925 7  21650029.070                    21650038.281
 11  8 17  2 45  0.0000000  0  9G26G10G12G15G05G30G29G02G25
 121437018.296 7  94626366.88844  23108705.578                    23108714.535
 127580142.430 6  99413224.99942  24277671.453                    24277679.652
 115215525.281 7  89778376.355 7  21924780.500                    21924787.348
 126170584.941 6  98314807.689 6  24009468.367                    24009476.215
 108289782.823 8  84381746.649 8  20606836.508                    20606843.387
 114632126.136 7  89323751.08345  21813755.961                    21813763.645
 115876610.729 7  90293526.748 7  22050588.961                    22050596.227
 115063107.057 7  89659552.12945  21895708.094                    21895713.922
 113791196.721 8  88668465.635 7  21653730.656                    21653739.730
 11  8 17  2 45 30.0000000  0  9G26G10G12G15G05G30G29G02G25
 121346335.791 7  94555705.24244  23091450.250                    23091457.949
 127688420.854 6  99497597.80143  24298275.406                    24298284.328
 115291163.602 7  89837315.293 7  21939173.891                    21939180.934
 126074382.490 7  98239844.853 6  23991161.555                    23991169.293
 108332340.798 8  84414908.716 8  20614935.195                    20614941.820
 114673260.530 7  89355803.85045  21821583.445                    21821591.055
 115799123.865 7  90233147.410 7  22035844.086                    22035851.492
 115104915.144 8  89692129.86445  21903664.086                    21903669.457
 113811194.943 8  88684048.674 7  21657536.125                    21657545.391
 11  8 17  2 46  0.0000000  0  9G26G10G12G15G05G30G29G02G25
 121255837.982 7  94485187.50344  23074228.328                    23074236.617
 127796771.932 6  99582027.17942  24318894.789                    24318902.551
 115367137.432 7  89896515.666 7  21953631.602                    21953638.660
 125978140.536 7  98164851.263 6  23972846.844                    23972855.246
 108375352.589 7  84448424.406 8  20623119.859                    20623126.348
 114714895.251 7  89388246.48245  21829506.617                    21829514.121
 115721785.143 7  90172883.509 7  22021126.617                    22021134.363
 115146808.463 8  89724774.01245  21911636.195                    21911641.160
 113831739.132 8  88700057.151 7  21661445.250                    21661454.867
 11  8 17  2 46 30.0000000  0  9G26G10G12G15G05G30G29G02G25
 121165528.620 7  94414816.62044  23057042.797                    23057051.574
 127905193.341 6  99666511.48242  24339526.266                    24339534.121
 115443443.927 8  89955975.270 7  21968152.188                    21968158.988
 125881861.789 6  98089828.946 6  23954525.813                    23954533.688
 108418815.727 7  84482291.790 8  20631390.922                    20631397.145
 114757027.788 7  89421077.02545  21837523.883                    21837531.551
 115644596.263 7  90112736.392 7  22006437.484                    22006445.586
 115188787.043 8  89757484.59145  21919624.266                    21919629.910
 113852827.717 8  88716489.818 7  21665458.609                    21665467.773
 11  8 17  2 47  0.0000000  0  9G26G10G12G15G05G30G29G02G25
 121075411.247 7  94344595.35844  23039894.133                    23039902.863
 128013682.210 6  99751048.33342  24360171.211                    24360178.855
 115520079.560 7  90015691.326 7  21982735.672                    21982742.387
 125785549.360 6  98014780.421 6  23936197.305                    23936206.734
 108462728.239 8  84516509.344 8  20639746.984                    20639753.801
 114799655.930 7  89454293.72745  21845635.469                    21845643.395
 115567559.589 7  90052707.869 7  21991777.961                    21991785.703
 115230851.120 7  89790261.80445  21927628.930                    21927634.168
 113874459.419 8  88733345.715 7  21669574.758                    21669583.777
 11  8 17  2 47 30.0000000  0  9G26G10G12G15G05G30G29G02G25
 120985489.817 7  94274526.75244  23022782.836                    23022790.988
 128122236.336 6  99835636.03542  24380828.008                    24380835.293
 115597042.384 7  90075662.360 7  21997381.133                    21997388.422
 125689206.222 7  97939707.958 6  23917863.992                    23917873.492
 108507088.427 7  84551075.733 8  20648188.492                    20648195.371
 114842777.596 7  89487895.01545  21853841.844                    21853849.281
 115490677.623 7  89992799.885 7  21977148.445                    21977155.582
 115273001.178 7  89823106.00445  21935649.766                    21935654.730
 113896633.249 8  88750624.006 7  21673794.734                    21673804.180
 11  8 17  2 48  0.0000000  0  9G26G10G12G15G05G30G29G02G25
 120895767.954 7  94204613.67344  23005709.055                    23005717.676
 128230853.526 6  99920272.85143  24401497.070                    24401504.762
 115674328.929 7  90135885.645 7  22012087.914                    22012095.453
 125592834.859 6  97864613.495 6  23899525.703                    23899534.258
 108551893.999 8  84585989.163 8  20656714.930                    20656721.430
 114886390.243 7  89521878.88845  21862140.836                    21862148.781
 115413952.274 7  89933013.965 7  21962548.078                    21962555.355
 115315236.809 7  89856016.90945  21943686.781                    21943691.949
 113919347.407 8  88768323.369 7  21678116.836                    21678126.227
 11  8 17  2 48 30.0000000  0  9G26G10G12G15G05G30G29G02G25
 120806248.990 7  94134858.69644  22988674.148                    22988682.887
 128339531.146 6 100004956.82143  24422177.914                    24422185.941
 115751935.933 7  90196358.629 7  22026855.977                    22026862.473
 125496437.857 7  97789499.042 6  23881181.438                    23881190.703
 108597142.339 7  84621247.628 7  20665325.469                    20665331.836
 114930491.220 7  89556243.27245  21870532.820                    21870540.844
 115337385.453 7  89873351.569 7  21947976.938                    21947985.234
 115357557.785 7  89888994.30645  21951740.508                    21951745.289
 113942600.339 8  88786442.532 7  21682541.820                    21682550.727
 11  8 17  2 49  0.0000000  0  9G26G10G12G15G05G30G29G02G25
 120716937.006 7  94065265.00444  22971678.781                    22971687.055
 128448266.950 6 100089686.09043  24442869.273                    24442877.844
 115829861.269 7  90257079.675 7  22041684.836                    22041691.262
 125400018.398 6  97714367.069 6  23862833.695                    23862841.543
 108642831.816 8  84656849.826 8  20674019.602                    20674026.215
 114975078.513 7  89590986.60645  21879017.414                    21879025.098
 115260979.630 7  89813814.650 7  21933437.930                    21933444.898
 115399964.643 8  89922038.62645  21959810.313                    21959815.566
 113966390.887 8  88804980.627 7  21687068.578                    21687078.320
 11  8 17  2 49 30.0000000  0  9G26G10G12G15G05G30G29G02G25
 120627835.367 7  93995835.21044  22954722.984                    22954731.547
 128557058.285 6 100174458.69943  24463572.008                    24463580.984
 115908101.363 7  90318045.992 7  22056573.266                    22056580.508
 125303579.186 6  97639219.751 6  23844481.094                    23844490.035
 108688959.681 8  84692793.626 8  20682797.508                    20682804.184
 115020149.360 7  89626106.74045  21887594.766                    21887601.945
 115184736.568 7  89754404.533 7  21918929.125                    21918936.605
 115442457.301 7  89955149.79145  21967895.953                    21967901.672
 113990717.272 8  88823936.242 7  21691697.945                    21691707.461
 11  8 17  2 50  0.0000000  0  9G26G10G12G15G05G30G29G02G25
 120538947.569 7  93926572.05544  22937808.359                    22937816.590
 128665902.877 6 100259272.78543  24484284.766                    24484293.285
 115986653.398 7  90379255.360 7  22071521.203                    22071528.785
 125207122.886 6  97564059.095 6  23826125.938                    23826134.055
 108735523.884 8  84729077.434 8  20691658.430                    20691665.090
 115065701.451 7  89661601.85645  21896262.852                    21896270.375
 115108658.597 7  89695123.049 7  21904452.273                    21904459.453
 115485035.807 7  89988327.86245  21975998.492                    21976004.156
 114015578.080 8  88843308.289 7  21696428.875                    21696438.238
 11  8 17  2 50 30.0000000  0  9G26G10G12G15G05G30G29G02G25
 120450277.999 7  93857478.94044  22920934.828                    22920943.426
 128774798.708 6 100344126.81543  24505005.781                    24505015.664
 116065515.005 7  90440705.956 7  22086528.719                    22086535.668
 125110652.816 6  97488887.700 6  23807768.898                    23807776.836
 108782522.869 8  84765700.039 8  20700602.133                    20700608.777
 115111732.804 7  89697470.43445  21905022.281                    21905029.785
 115032748.442 7  89635972.351 7  21890006.586                    21890014.383
 115527700.572 7  90021573.14445  21984117.438                    21984122.465
 114040972.212 8  88863095.935 7  21701261.586                    21701271.203
 11  8 17  2 51  0.0000000  0  9G26G10G12G15G05G30G29G02G25
 120361829.442 7  93788558.02244  22904103.914                    22904112.355
 128883743.193 6 100429018.71043  24525737.047                    24525746.289
 116144682.452 7  90502394.885 7  22101593.609                    22101600.711
 125014171.457 6  97413707.509 6  23789409.156                    23789416.609
 108829953.680 8  84802659.117 7  20709627.609                    20709634.387
 115158240.165 7  89733709.94045  21913872.391                    21913879.797
 114957007.580 7  89576953.534 7  21875593.695                    21875601.219
 115570450.971 7  90054885.15445  21992252.711                    21992258.141
 114066897.374 8  88883297.339 7  21706194.516                    21706204.207
 11  8 17  2 51 30.0000000  0  9G26G10G12G15G05G30G29G02G25
 120273605.946 7  93719812.49344  22887315.047                    22887323.641
 128992733.690 6 100513946.52043  24546477.031                    24546486.684
 116224153.201 7  90564320.150 7  22116715.984                    22116723.273
 124917681.623 6  97338520.709 6  23771047.008                    23771056.355
 108877814.294 8  84839953.117 8  20718735.227                    20718741.883
 115205221.545 7  89770318.80145  21922812.414                    21922820.262
 114881438.474 7  89518068.577 7  21861213.227                    21861221.195
 115613287.790 7  90088264.49945  22000403.836                    22000409.324
 114093352.437 8  88903911.674 7  21711228.711                    21711238.609
 11  8 17  2 52  0.0000000  0  9G26G10G12G15G05G30G29G02G25
 120185611.285 7  93651245.29244  22870569.508                    22870579.098
 129101767.978 6 100598908.45042  24567226.883                    24567234.832
 116303924.060 7  90626479.242 7  22131896.078                    22131903.355
 124821186.366 7  97263329.676 6  23752685.461                    23752693.699
 108926102.379 8  84877580.211 7  20727924.195                    20727930.879
 115252674.187 7  89807294.89845  21931842.391                    21931850.242
 114806043.133 7  89459319.013 7  21846866.117                    21846873.688
 115656210.893 7  90121711.07645  22008571.500                    22008576.859
 114120335.562 8  88924937.487 7  21716363.484                    21716373.258
 11  8 17  2 52 30.0000000  0  9G26G10G12G15G05G30G29G02G25
 120097849.820 7  93582859.76944  22853869.938                    22853878.242
 129210844.974 6 100683903.68342  24587982.867                    24587990.820
 116383993.238 7  90688870.813 7  22147132.391                    22147139.504
 124724689.101 7  97188137.089 6  23734322.109                    23734330.434
 108974816.685 8  84915539.418 7  20737194.164                    20737201.316
 115300596.488 7  89844636.95245  21940961.688                    21940969.660
 114730824.449 7  89400707.103 7  21832552.297                    21832560.012
 115699220.953 7  90155225.41645  22016756.531                    22016761.578
 114147846.127 8  88946374.274 7  21721598.734                    21721608.098
 11  8 17  2 53  0.0000000  0  8G26G12G15G05G30G29G02G25
 120010325.963 7  93514659.40444  22837214.805                    22837222.605
 116464357.891 7  90751492.621 7  22162425.289                    22162432.688
 124628193.536 7  97112945.797 6  23715959.375                    23715967.254
 109023955.609 8  84953829.511 7  20746545.039                    20746551.625
 115348986.573 7  89882343.52245  21950170.156                    21950178.063
 114655785.474 7  89342235.235 7  21818273.313                    21818280.105
 115742319.011 7  90188808.33245  22024958.102                    22024962.840
 114175882.956 8  88968221.162 7  21726933.789                    21726943.301
 11  8 17  2 53 30.0000000  0  8G26G12G15G05G30G29G02G25
 119923041.740 7  93446645.76544  22820605.000                    22820613.473
 116545013.646 7  90814341.259 7  22177773.789                    22177780.871
 124531701.150 7  97037756.959 6  23697597.844                    23697604.867
 109073515.257 8  84992447.433 8  20755975.930                    20755982.699
 115397840.276 7  89920411.35645  21959466.570                    21959474.309
 114580926.813 7  89283903.854 7  21804027.656                    21804034.879
 115785503.606 7  90222458.66945  22033175.758                    22033180.340
 114204442.983 8  88990475.736 7  21732368.516                    21732378.367
 11  8 17  2 54  0.0000000  0  8G26G12G15G05G30G29G02G25
 119836000.195 7  93378821.23444  22804041.867                    22804049.879
 116625956.739 7  90877413.827 7  22193176.586                    22193184.246
 124435213.790 6  96962572.110 6  23679236.414                    23679244.820
 109123492.734 8  85031390.943 8  20765486.164                    20765492.797
 115447154.574 7  89958838.09745  21968851.000                    21968858.289
 114506250.472 7  89225714.542 7  21789817.219                    21789824.469
 115828774.505 7  90256176.27045  22041409.805                    22041414.758
 114233523.920 8  89013136.208 7  21737902.508                    21737911.734
 11  8 17  2 54 30.0000000  0  8G26G12G15G05G30G29G02G25
 119749205.294 7  93311188.87344  22787524.523                    22787533.133
 116707184.660 7  90940708.302 7  22208633.945                    22208640.816
 124338734.929 6  96887393.848 6  23660877.133                    23660885.895
 109173885.914 8  85070658.379 8  20775075.844                    20775082.391
 115496926.963 7  89997621.78745  21978322.023                    21978329.855
 114431758.702 7  89167669.051 7  21775641.891                    21775649.438
 115872131.852 7  90289961.20945  22049661.008                    22049665.441
 114263124.197 8  89036201.366 7  21743535.039                    21743544.621
 11  8 17  2 55  0.0000000  0  8G26G12G15G05G30G29G02G25
 119662661.970 7  93243752.56344  22771056.242                    22771064.313
 116788695.593 7  91004223.316 7  22224145.031                    22224151.590
 124242268.560 6  96812225.340 6  23642520.398                    23642528.215
 109224694.146 8  85110249.222 7  20784744.266                    20784750.961
 115547156.132 8  90036761.41245  21987880.750                    21987888.246
 114357454.780 8  89109769.923 7  21761502.359                    21761509.793
 115915576.768 7  90323814.39445  22057927.367                    22057932.609
 114293243.292 8  89059670.796 7  21749267.188                    21749275.891
 11  8 17  2 55 30.0000000  0  8G26G12G15G05G30G29G02G25
 119576373.060 7  93176514.50744  22754636.430                    22754644.387
 116870485.999 7  91067956.101 7  22239708.945                    22239716.590
 124145816.761 6  96737068.145 6  23624165.844                    23624173.414
 109275913.867 8  85150160.709 8  20794491.383                    20794497.605
 115597838.630 7  90076254.29345  21997524.461                    21997532.957
 114283340.096 8  89052018.255 7  21747398.664                    21747406.164
 115959108.774 7  90357735.45245  22066211.859                    22066216.617
 114323878.601 8  89083542.457 7  21755096.609                    21755106.496
 11  8 17  2 56  0.0000000  0  8G26G12G15G05G30G29G02G25
 119490342.505 7  93109477.76045  22738264.898                    22738273.113
 116952552.683 7  91131904.192 7  22255326.047                    22255332.270
 124049382.679 6  96661924.785 6  23605815.313                    23605822.855
 109327543.141 8  85190391.332 7  20804315.734                    20804322.590
 115648971.994 7  90116098.48345  22007255.188                    22007263.000
 114209417.028 8  88994415.881 7  21733331.906                    21733339.102
 116002728.299 8  90391724.69345  22074512.492                    22074517.285
 114355028.643 8  89107815.220 7  21761024.211                    21761033.523
 11  8 17  2 56 30.0000000  0  8G26G12G15G05G30G29G02G25
 119404573.610 7  93042644.92244  22721943.656                    22721951.855
 117034892.172 7  91196064.836 7  22270994.703                    22271001.727
 123952968.958 6  96586797.266 6  23587468.313                    23587476.223
 109379579.719 8  85230939.336 7  20814218.180                    20814224.742
 115700553.400 7  90156291.80145  22017071.008                    22017078.691
 114135687.860 8  88936964.624 7  21719301.289                    21719308.648
 116046435.576 7  90425782.30545  22082829.383                    22082833.648
 114386691.370 7  89132487.487 7  21767049.375                    21767058.582
 11  8 17  2 57  0.0000000  0  8G26G12G15G05G30G29G02G25
 119319069.581 7  92976018.43944  22705672.555                    22705681.402
 117117501.066 7  91260435.412 7  22286714.820                    22286721.758
 123856577.908 6  96511687.411 6  23569125.766                    23569133.207
 109432019.667 8  85271801.647 7  20824196.695                    20824203.602
 115752579.348 7  90196831.51345  22026971.125                    22026978.988
 114062153.838 7  88879665.425 7  21705307.703                    21705315.281
 116090229.691 7  90459907.59245  22091163.461                    22091168.273
 114418864.175 7  89157557.214 7  21773171.484                    21773181.355
 11  8 17  2 57 30.0000000  0  8G26G12G15G05G30G29G02G25
 119233835.119 7  92909602.06444  22689453.375                    22689461.395
 117200378.027 7  91325014.845 7  22302485.219                    22302492.195
 123760214.060 7  96436598.770 6  23550788.328                    23550796.242
 109484863.075 8  85312978.337 7  20834252.469                    20834259.164
 115805048.767 7  90237716.79445  22036955.422                    22036963.559
 113988819.006 8  88822521.420 7  21691353.078                    21691360.168
 116134112.126 7  90494101.70845  22099514.289                    22099518.516
 114451546.670 8  89183024.112 7  21779390.836                    21779400.652
 11  8 17  2 58  0.0000000  0  8G26G12G15G05G30G29G02G25
 119148873.878 7  92843398.55844  22673285.188                    22673293.715
 117283519.304 7  91389800.253 7  22318306.711                    22318313.734
 123663879.740 6  96361533.140 6  23532456.180                    23532463.398
 109538107.133 8  85354467.236 7  20844384.563                    20844391.609
 115857958.635 7  90278945.30045  22047023.828                    22047031.902
 113915685.194 8  88765534.042 7  21677436.219                    21677444.008
 116178082.913 7  90528364.65045  22107881.477                    22107886.059
 114484736.783 8  89208886.554 7  21785706.953                    21785716.453
 11  8 17  2 58 30.0000000  0  8G26G12G15G05G30G29G02G25
 119064189.197 7  92777410.55344  22657170.523                    22657179.043
 117366921.635 7  91454789.083 7  22334177.695                    22334185.004
 123567577.554 7  96286492.537 6  23514130.594                    23514137.609
 109591748.798 8  85396265.942 7  20854592.063                    20854598.914
 115911305.752 7  90320514.50645  22057175.461                    22057183.656
 113842754.054 8  88708704.614 7  21663557.930                    21663565.113
 116222142.013 7  90562696.42145  22116265.211                    22116270.324
 114518432.143 8  89235142.674 7  21792118.742                    21792128.496
 11  8 17  2 59  0.0000000  0  8G26G12G15G05G30G29G02G25
 118979784.084 7  92711640.39944  22641108.852                    22641116.879
 117450581.498 7  91519978.584 7  22350097.641                    22350104.406
 123471310.058 7  96211478.965 6  23495811.273                    23495819.164
 109645785.202 8  85438372.247 7  20864874.898                    20864881.676
 115965087.031 7  90362422.00745  22067409.711                    22067417.379
 113770027.687 8  88652034.747 7  21649718.344                    21649725.605
 116266288.985 7  90597096.64645  22124665.867                    22124671.523
 114552630.356 8  89261790.652 7  21798626.641                    21798635.711
 11  8 17  2 59 30.0000000  0  8G26G12G15G05G30G29G02G25
 118895662.985 7  92646091.55544  22625100.664                    22625109.051
 117534496.561 7  91585366.925 7  22366066.477                    22366073.711
 123375080.917 7  96136495.311 6  23477499.328                    23477507.859
 109700214.728 8  85480784.872 7  20875232.555                    20875238.914
 116019300.234 7  90404666.09945  22077726.086                    22077734.492
 113697508.788 8  88595526.549 7  21635918.641                    21635926.059
 116310524.589 7  90631565.92945  22133083.719                    22133088.809
 114587330.165 8  89288829.476 7  21805229.648                    21805239.277
 11  8 17  3  0  0.0000000  0  8G26G12G15G05G30G29G02G25
 118811829.417 7  92580766.76744  22609147.789                    22609155.633
 117618663.898 7  91650951.859 7  22382082.773                    22382089.684
 123278892.954 7  96061543.725 6  23459195.672                    23459203.605
 109755034.976 8  85523501.957 7  20885664.906                    20885671.047
 116073942.692 7  90447244.61945  22088124.352                    22088131.891
 113625199.643 8  88539181.787 7  21622158.797                    21622166.184
 116354849.004 7  90666104.43045  22141518.633                    22141523.738
 114622529.558 8  89316257.588 7  21811927.922                    21811937.402
 11  8 17  3  0 30.0000000  0  8G26G12G15G05G30G29G02G25
 118728287.515 7  92515669.22144  22593250.453                    22593258.395
 117703080.453 7  91716730.976 7  22398146.938                    22398153.770
 123182749.641 7  95986626.941 6  23440900.016                    23440907.430
 109810244.217 7  85566522.162 7  20896170.648                    20896176.934
 116129011.949 7  90490155.74345  22098603.930                    22098611.406
 113553102.926 8  88483002.570 7  21608438.883                    21608446.254
 116399262.783 7  90700712.57145  22149970.070                    22149975.406
 114658226.936 8  89344073.738 7  21818721.078                    21818730.547
 11  8 17  3  1  0.0000000  0  8G26G12G15G05G30G29G02G25
 118645040.511 7  92450801.47944  22577408.500                    22577416.555
 117787742.927 7  91782701.734 7  22414257.391                    22414264.633
 123086653.453 7  95911746.868 6  23422613.789                    23422621.059
 109865839.646 8  85609843.278 7  20906750.117                    20906756.664
 116184504.899 7  90533396.99245  22109163.781                    22109171.598
 113481220.706 8  88426990.503 7  21594760.242                    21594767.020
 116443766.012 7  90735390.39545  22158438.984                    22158444.309
 114694419.977 8  89372276.112 7  21825608.117                    21825617.480
 11  8 17  3  1 30.0000000  0  8G26G12G15G05G30G29G02G25
 118562091.711 7  92386166.09445  22561624.234                    22561632.328
 117872647.720 7  91848861.284 7  22430414.094                    22430421.309
 122990606.922 7  95836905.479 6  23404336.086                    23404344.125
 109921818.220 8  85653462.954 7  20917402.188                    20917409.320
 116240418.469 7  90576966.02545  22119803.078                    22119811.750
 113409554.743 8  88371146.927 7  21581122.570                    21581130.094
 116488358.434 7  90770137.74445  22166924.711                    22166929.902
 114731106.377 8  89400862.926 7  21832589.172                    21832598.844
 11  8 17  3  2  0.0000000  0  8G26G12G15G05G30G29G02G25
 118479445.161 7  92321766.24444  22545897.039                    22545905.227
 117957792.150 7  91915207.566 7  22446616.781                    22446623.816
 122894613.302 7  95762105.326 6  23386069.180                    23386076.965
 109978177.801 8  85697379.514 7  20928127.328                    20928133.941
 116296749.862 7  90620860.61545  22130523.375                    22130530.844
 113338107.488 8  88315473.784 7  21567526.508                    21567534.066
 116533040.423 8  90804954.87245  22175427.367                    22175432.379
 114768284.136 8  89429832.628 7  21839663.992                    21839673.637
 11  8 17  3  2 30.0000000  0  8G26G12G15G05G30G29G02G25
 118397104.153 7  92257604.47545  22530227.852                    22530235.805
 118043173.204 7  91981738.267 7  22462863.703                    22462871.934
 122798675.532 6  95687348.711 6  23367812.477                    23367820.258
 110034916.080 7  85741591.176 7  20938923.852                    20938930.590
 116353496.378 7  90665078.67045  22141321.961                    22141329.844
 113266881.330 8  88259972.934 7  21553972.875                    21553980.402
 116577812.253 7  90839842.01745  22183947.445                    22183952.242
 114805951.225 8  89459183.618 7  21846831.469                    21846841.617
 11  8 17  3  3  0.0000000  0  9G26G12G15G05G30G29G02G25G21
 118315073.439 7  92193684.46244  22514617.953                    22514626.086
 118128788.980 7  92048451.843 7  22479156.141                    22479163.477
 122702797.578 7  95612638.707 6  23349568.117                    23349575.605
 110092031.740 7  85786096.878 7  20949792.734                    20949798.980
 116410655.978 7  90709618.62345  22152198.773                    22152206.254
 113195879.467 8  88204646.857 7  21540461.445                    21540468.484
 116622674.868 7  90874799.89145  22192484.273                    22192488.688
 114844106.533 8  89488915.027 7  21854092.258                    21854102.500
 130778813.21714                  24886391.461
 11  8 17  3  3 30.0000000  0  9G26G12G15G05G30G29G02G25G21
 118233355.719 7  92130008.37945  22499067.922                    22499076.004
 118214635.082 7  92115344.885 7  22495492.250                    22495499.348
 122606981.492 7  95537976.872 6  23331335.016                    23331342.551
 110149521.050 8  85830893.757 7  20960732.641                    20960739.379
 116468224.974 7  90754477.56845  22163153.313                    22163161.645
 113125103.300 8  88149496.651 7  21526993.242                    21527000.410
 116667627.493 8  90909827.90745  22201038.242                    22201043.496
 114882746.987 8  89519024.491 7  21861445.227                    21861454.953
 130722291.26614                  24875635.148
 11  8 17  3  4  0.0000000  0  9G26G12G15G05G30G29G02G25G21
 118151955.014 7  92066579.31645  22483577.570                    22483585.914
 118300709.143 7  92182415.597 7  22511871.703                    22511878.871
 122511230.737 7  95463365.979 6  23313113.680                    23313121.059
 110207382.332 8  85875980.473 7  20971743.570                    20971749.859
 116526200.852 7  90799653.57445  22174186.688                    22174193.801
 113054555.356 8  88094524.279 7  21513568.234                    21513575.410
 116712671.035 8  90944926.77045  22209609.836                    22209614.996
 114921870.903 8  89549510.651 7  21868890.031                    21868900.078
 130665765.75414                  24864879.914
 11  8 17  3  4 30.0000000  0  9G26G12G15G05G30G29G02G25G21
 118070874.924 7  92003400.08245  22468148.516                    22468156.563
 118387007.607 7  92249661.134 7  22528293.867                    22528300.516
 122415548.056 7  95388808.124 6  23294905.398                    23294913.039
 110265612.926 8  85921354.965 7  20982823.961                    20982830.621
 116584580.701 7  90845144.35745  22185295.305                    22185302.738
 112984237.794 8  88039731.427 7  21500187.297                    21500194.262
 116757805.542 8  90980096.51245  22218198.961                    22218203.672
 114961475.980 8  89580371.754 7  21876427.133                    21876436.816
 130609235.803 5                  24854121.477
 11  8 17  3  5  0.0000000  0  9G26G12G15G05G30G29G02G25G21
 117990119.243 7  91940473.62445  22452781.305                    22452789.367
 118473527.603 7  92317079.327 7  22544757.945                    22544765.242
 122319936.582 7  95314305.717 6  23276711.180                    23276718.648
 110324210.510 8  85967015.438 7  20993975.328                    20993981.719
 116643361.684 7  90890947.72645  22196481.180                    22196489.031
 112914153.280 8  87985120.171 7  21486850.523                    21486857.496
 116803031.467 7  91015337.51245  22226804.695                    22226809.883
 115001560.285 8  89611606.290 7  21884055.086                    21884064.309
 130552700.57515                  24843363.180
 11  8 17  3  5 30.0000000  0  9G26G12G15G05G30G29G02G25G21
 117909691.954 7  91877803.06844  22437476.430                    22437484.070
 118560267.030 7  92384668.474 6  22561263.891                    22561270.047
 122224399.972 7  95239861.672 6  23258531.773                    23258539.172
 110383173.440 8  86012960.589 7  21005195.297                    21005201.945
 116702541.579 7  90937061.90245  22207742.711                    22207750.977
 112844304.510 8  87930692.594 7  21473558.805                    21473566.156
 116848349.324 8  91050650.12845  22235428.766                    22235433.660
 115042122.138 8  89643212.910 7  21891773.406                    21891783.363
 130496160.258 5                  24832604.500
 11  8 17  3  6  0.0000000  0  9G26G12G15G05G30G29G02G25G21
 117829595.921 7  91815390.63445  22422234.086                    22422241.988
 118647221.105 7  92452424.918 6  22577810.242                    22577817.566
 122128940.311 7  95165477.582 6  23240366.516                    23240373.926
 110442498.396 8  86059187.830 7  21016484.305                    21016490.934
 116762116.523 7  90983483.94045  22219079.539                    22219086.887
 112774692.967 8  87876449.879 7  21460311.961                    21460318.961
 116893758.927 7  91086034.26845  22244069.711                    22244074.652
 115083158.494 8  89675189.310 7  21899582.695                    21899592.203
 130439613.680 5                  24821843.422
 11  8 17  3  6 30.0000000  0  9G26G12G15G05G30G29G02G25G21
 117749834.556 7  91753238.96345  22407056.484                    22407064.688
 118734387.161 7  92520346.483 7  22594397.727                    22594404.715
 122033560.622 7  95091155.845 6  23222215.797                    23222223.488
 110502182.419 8  86105694.863 7  21027842.031                    21027848.816
 116822083.548 7  91030211.47745  22230490.906                    22230498.738
 112705321.151 8  87822393.959 7  21447110.898                    21447118.418
 116939260.316 8  91121489.87745  22252728.500                    22252733.035
 115124667.062 8  89707533.640 7  21907481.250                    21907490.707
 130383059.975 5                  24811080.766
 11  8 17  3  7  0.0000000  0  9G26G12G15G05G30G29G02G25G21
 117670412.073 7  91691351.36944  22391942.984                    22391950.285
 118821762.482 7  92588431.130 7  22611025.188                    22611031.895
 121938264.344 7  95016899.078 6  23204081.852                    23204087.895
 110562223.754 8  86152480.327 7  21039267.055                    21039273.246
 116882440.063 7  91077242.51545  22241976.297                    22241984.473
 112636191.589 8  87768526.823 7  21433956.336                    21433963.402
 116984853.964 8  91157017.41345  22261404.766                    22261409.262
 115166646.032 8  89740244.536 7  21915469.719                    21915479.281
 130326498.965 5                  24800317.148
 11  8 17  3  7 30.0000000  0  9G26G12G15G05G30G29G02G25G21
 117591332.190 7  91629730.73445  22376894.688                    22376902.191
 118909344.133 7  92656676.555 7  22627691.297                    22627698.098
 121843054.524 7  94942709.656 6  23185963.523                    23185971.078
 110622620.077 8  86199542.410 7  21050760.320                    21050766.973
 116943183.331 7  91124574.93245  22253535.453                    22253543.484
 112567306.644 8  87714850.283 7  21420847.594                    21420854.672
 117030540.129 7  91192617.02945  22270098.672                    22270103.020
 115209093.258 8  89773320.287 7  21923547.375                    21923556.164
 130269930.388 5                  24789552.891
 11  8 17  3  8  0.0000000  0  9G26G12G15G05G30G29G02G25G21
 117512598.334 7  91568379.72045  22361911.758                    22361919.879
 118997128.963 7  92725080.319 7  22644396.305                    22644402.566
 121747934.175 7  94868589.967 6  23167862.797                    23167870.113
 110683368.879 8  86246879.153 7  21062320.172                    21062326.938
 117004310.284 7  91172206.30945  22265167.430                    22265175.133
 112498668.669 8  87661366.200 7  21407786.375                    21407793.641
 117076319.208 8  91228289.03745  22278809.656                    22278814.543
 115252006.452 8  89806759.138 7  21931713.359                    21931722.277
 130213353.478 5 101465022.50952  24778786.281                    24778794.727
 11  8 17  3  8 30.0000000  0  9G26G12G15G05G30G29G02G25G21
 117434214.241 7  91507301.25545  22346996.359                    22347003.813
 119085114.096 7  92793640.149 7  22661139.172                    22661146.621
 121652906.161 7  94794542.227 6  23149779.203                    23149786.984
 110744467.752 8  86294488.667 7  21073947.055                    21073954.008
 117065817.799 7  91220134.23745  22276872.180                    22276879.570
 112430279.721 8  87608076.130 7  21394772.344                    21394779.074
 117122191.461 7  91264033.66345  22287538.836                    22287543.566
 115295383.113 8  89840559.129 7  21939967.781                    21939977.230
 130156767.692 5 101420929.75042  24768018.813                    24768027.301
 11  8 17  3  9  0.0000000  0  9G26G12G15G05G30G29G02G25G21
 117356182.982 7  91446497.73645  22332147.430                    22332154.977
 119173295.680 7  92862353.056 6  22677919.273                    22677926.336
 121557973.510 7  94720568.803 6  23131714.336                    23131722.547
 110805913.858 8  86342368.772 7  21085640.195                    21085646.691
 117127702.933 7  91268356.42545  22288648.539                    22288656.344
 112362142.090 8  87554981.930 7  21381805.984                    21381813.289
 117168156.931 7  91299850.91845  22296285.375                    22296290.797
 115339220.932 8  89874718.466 7  21948309.789                    21948319.285
 130100172.518 5 101376829.75842  24757248.391                    24757259.273
 11  8 17  3  9 30.0000000  0  9G26G12G15G05G30G29G02G25G21
 117278508.784 7  91385972.44145  22317366.102                    22317373.969
 119261671.411 7  92931217.245 7  22694737.148                    22694743.891
 121463139.720 7  94646672.383 6  23113668.195                    23113675.773
 110867705.182 8  86390517.855 7  21097398.648                    21097405.309
 117189962.942 7  91316870.71745  22300495.563                    22300503.723
 112294258.711 8  87502085.843 7  21368888.336                    21368895.160
 117214216.286 7  91335741.31945  22305050.438                    22305055.527
 115383517.918 8  89909235.598 7  21956739.266                    21956748.672
 130043567.510 5 101332722.04042  24746476.984                    24746487.367
 11  8 17  3 10  0.0000000  0  9G26G12G15G05G30G29G02G25G21
 117201194.816 7  91325727.83145  22302654.180                    22302661.387
 119350237.776 7  93000230.002 7  22711590.602                    22711597.508
 121368407.209 7  94572854.904 6  23095640.797                    23095648.395
 110929839.039 8  86438933.856 7  21109222.352                    21109228.969
 117252594.546 7  91365674.55845  22312414.180                    22312421.938
 112226631.313 8  87449389.198 7  21356019.055                    21356026.148
 117260369.475 7  91371704.85145  22313833.406                    22313838.590
 115428271.490 8  89944108.494 7  21965255.469                    21965264.473
 129986952.17216 101288606.36052  24735704.477                    24735713.707
 11  8 17  3 10 30.0000000  0  9G26G12G15G05G30G29G02G25G21
 117124244.882 7  91265766.90645  22288010.477                    22288018.461
 119438991.756 7  93069388.934 7  22728479.813                    22728486.723
 121273779.384 7  94499118.998 6  23077633.422                    23077641.074
 110992312.987 8  86487614.857 7  21121110.695                    21121117.125
 117315594.952 7  91414765.78345  22324402.633                    22324410.598
 112159262.552 8  87396894.102 7  21343199.211                    21343206.031
 117306617.024 7  91407741.91145  22322633.891                    22322639.105
 115473479.380 8  89979335.438 7  21973858.164                    21973867.922
 129930325.769 5 101244481.93542  24724928.320                    24724937.605
 11  8 17  3 11  0.0000000  0  9G26G12G15G05G30G29G02G25G21
 117047662.529 7  91206092.38745  22273436.945                    22273444.648
 119527930.099 7  93138691.523 7  22745404.273                    22745411.633
 121179259.351 7  94425467.078 6  23059647.547                    23059654.652
 111055124.615 8  86536559.002 7  21133063.281                    21133070.078
 117378960.980 7  91464141.89045  22336461.164                    22336468.922
 112092154.644 8  87344602.263 7  21330429.430                    21330435.715
 117352959.111 7  91443852.63045  22331452.820                    22331457.820
 115519139.076 8  90014914.409 7  21982547.453                    21982556.277
 129873687.585 5 101200348.43142  24714150.031                    24714159.695
 11  8 17  3 11 30.0000000  0  9G26G12G15G05G30G29G02G25G21
 116971451.124 7  91146706.93545  22258934.734                    22258942.547
 119617050.005 7  93208135.600 7  22762363.336                    22762370.992
 121084849.852 7  94351901.307 6  23041681.992                    23041688.898
 111118271.083 8  86585764.056 7  21145079.570                    21145086.129
 117442689.535 7  91513800.49745  22348588.641                    22348596.461
 112025309.785 8  87292515.365 7  21317708.922                    21317715.512
 117399395.879 7  91480037.13745  22340289.352                    22340294.320
 115565248.152 8  90050843.565 7  21991321.188                    21991330.648
 129817037.19115 101156205.47452  24703369.023                    24703379.133
 11  8 17  3 12  0.0000000  0  9G26G12G15G05G30G29G02G25G21
 116895614.944 7  91087613.84945  22244503.875                    22244511.547
 119706348.993 7  93277719.203 7  22779356.984                    22779363.473
 120990555.048 7  94278424.906 6  23023737.891                    23023745.180
 111181751.077 8  86635228.990 7  21157159.422                    21157166.160
 117506778.496 7  91563739.93545  22360784.008                    22360791.504
 111958731.226 8  87240636.016 7  21305039.336                    21305046.910
 117445928.534 7  91516296.35145  22349144.141                    22349149.277
 115611805.104 8  90087121.693 7  22000180.875                    22000189.691
 129760374.821 6 101112053.07242  24692587.656                    24692596.508
 11  8 17  3 12 30.0000000  0  9G26G12G15G05G30G29G02G25G21
 116820157.005 7  91028815.50345  22230144.266                    22230151.883
 119795823.232 7  93347439.374 7  22796382.156                    22796389.992
 120896377.033 7  94205039.490 6  23005816.500                    23005823.887
 111245561.511 8  86684951.426 7  21169302.523                    21169308.953
 117571224.060 7  91613957.27345  22373047.766                    22373055.559
 111892420.450 8  87188965.337 7  21292420.875                    21292428.230
 117492556.536 7  91552629.86845  22358017.289                    22358022.508
 115658806.790 8  90123746.374 7  22009125.023                    22009134.594
 129703699.446 6 101067890.52052  24681802.445                    24681810.719
 11  8 17  3 13  0.0000000  0  9G26G12G15G05G30G29G02G25G21
 116745080.720 7  90970314.52845  22215857.531                    22215864.719
 119885469.753 7  93417293.768 7  22813442.039                    22813449.027
 120802319.103 7  94131747.676 6  22987917.273                    22987925.199
 111309699.692 8  86734929.229 7  21181507.359                    21181513.879
 117636023.152 7  91664450.05245  22385378.430                    22385386.820
 111826380.444 8  87137505.634 7  21279853.672                    21279860.410
 117539280.439 7  91589038.10045  22366908.867                    22366913.668
 115706250.715 8  90160715.680 7  22018152.977                    22018162.375
 129647010.786 6 101023717.62342  24671014.063                    24671023.500
 11  8 17  3 13 30.0000000  0 10G26G18G12G15G05G30G29G02G25G21
 116670390.418 7  90912114.34745  22201644.180                    22201652.441
 129688218.09315                  24678854.289
 119975285.549 7  93487280.104 7  22830532.766                    22830540.484
 120708384.708 7  94058552.110 6  22970042.484                    22970050.070
 111374163.420 8  86785160.720 7  21193774.383                    21193781.016
 117701173.093 7  91715216.23545  22397775.797                    22397783.695
 111760613.126 8  87086258.404 7  21267338.805                    21267345.605
 117586100.608 7  91625521.35745  22375817.820                    22375823.129
 115754134.845 8  90198027.991 7  22027265.125                    22027274.594
 129590308.073 5 100979533.80642  24660224.586                    24660233.074
 11  8 17  3 14  0.0000000  0 10G26G18G12G15G05G30G29G02G25G21
 116596088.628 7  90854216.88845  22187505.313                    22187512.871
 129598484.72415                  24661778.391
 120065267.313 7  93557395.744 7  22847656.078                    22847663.484
 120614576.272 7  93985454.683 6  22952191.063                    22952198.750
 111438949.760 8  86835643.585 7  21206103.141                    21206109.754
 117766670.513 7  91766253.16945  22410239.609                    22410247.793
 111695120.467 8  87035225.190 7  21254875.625                    21254882.711
 117633017.263 7  91662079.80345  22384745.922                    22384751.289
 115802456.384 8  90235681.121 7  22036460.500                    22036470.027
 129533590.63115 100935338.58452  24649431.586                    24649439.609
 11  8 17  3 14 30.0000000  0 10G26G18G12G15G05G30G29G02G25G21
 116522179.446 7  90796625.37645  22173440.344                    22173448.352
 129508914.395 6 100916101.28952  24644734.570                    24644743.117
 120155412.335 7  93627638.593 7  22864810.727                    22864817.418
 120520897.302 7  93912458.162 7  22934364.789                    22934372.156
 111504056.895 8  86886376.430 7  21218492.555                    21218498.883
 117832512.421 7  91817558.55445  22422769.414                    22422776.773
 111629905.248 8  86984408.177 7  21242465.953                    21242472.883
 117680030.785 7  91698713.71345  22393692.578                    22393697.379
 115851212.966 8  90273673.264 7  22045738.172                    22045747.906
 129476858.464 6 100891131.82742  24638635.297                    24638643.488
 11  8 17  3 15  0.0000000  0 10G26G18G12G15G05G30G29G02G25G21
 116448666.283 7  90739342.43845  22159451.516                    22159459.559
 129419508.458 6 100846434.50243  24627720.070                    24627729.602
 120245717.252 7  93698006.044 7  22881994.758                    22882001.715
 120427350.813 7  93839564.879 6  22916563.219                    22916570.961
 111569482.098 8  86937357.101 7  21230942.266                    21230948.832
 117898695.965 7  91869130.15445  22435362.898                    22435371.398
 111564970.161 8  86933809.441 7  21230109.172                    21230115.910
 117727141.459 7  91735423.33645  22402657.039                    22402662.422
 115900402.177 8  90312002.501 7  22055098.867                    22055108.527
 129420110.773 6 100846913.05142  24627836.563                    24627844.289
 11  8 17  3 15 30.0000000  0 10G26G18G12G15G05G30G29G02G25G21
 116375552.595 7  90682370.75645  22145538.805                    22145545.938
 129330267.674 6 100776896.30742  24610738.094                    24610747.492
 120336178.875 7  93768495.610 7  22899209.273                    22899216.051
 120333939.667 7  93766777.034 7  22898787.727                    22898795.813
 111635222.828 8  86988583.651 7  21243452.320                    21243459.000
 117965217.813 7  91920965.32345  22448022.680                    22448030.008
 111500317.164 8  86883430.522 7  21217805.992                    21217813.340
 117774349.790 7  91772209.07245  22411640.508                    22411645.637
 115950021.358 8  90350666.799 7  22064541.102                    22064550.973
 129363347.047 6 100802681.66842  24617034.852                    24617043.055
 11  8 17  3 16  0.0000000  0 10G26G18G12G15G05G30G29G02G25G21
 116302842.078 7  90625713.24245  22131702.367                    22131709.707
 129241194.053 6 100707488.45843  24593787.773                    24593796.121
 120426794.817 7  93839105.395 7  22916452.570                    22916459.871
 120240667.450 7  93694097.462 6  22881038.133                    22881046.195
 111701276.820 8  87040054.304 7  21256021.727                    21256028.961
 118032075.273 7  91973062.05245  22460744.719                    22460752.699
 111435948.884 8  86833273.451 7  21205557.031                    21205564.598
 117821656.227 7  91809071.23545  22420642.836                    22420647.594
 116000068.431 8  90389664.494 7  22074064.609                    22074074.109
 129306567.054 6 100758437.66642  24606229.977                    24606237.914
 11  8 17  3 16 30.0000000  0 10G26G18G12G15G05G30G29G02G25G21
 116230537.919 7  90569372.38745  22117943.203                    22117950.992
 129152288.544 6 100638211.54943  24576869.984                    24576878.281
 120517561.507 7  93909832.661 7  22933724.742                    22933732.227
 120147536.966 7  93621528.325 6  22863316.508                    22863323.457
 111767641.413 8  87091766.981 7  21268650.906                    21268657.473
 118099264.821 7  92025417.53145  22473530.422                    22473538.598
 111371867.491 8  86783339.928 7  21193363.008                    21193369.477
 117869060.976 7  91846009.98145  22429663.742                    22429668.398
 116050540.392 8  90428993.280 7  22083669.227                    22083678.336
 129249769.909 5 100714180.26942  24595421.016                    24595429.305
 11  8 17  3 17  0.0000000  0 10G26G18G12G15G05G30G29G02G25G21
 116158643.744 7  90513350.99045  22104262.414                    22104269.648
 129063552.308 6 100569066.52343  24559984.023                    24559991.910
 120608475.693 7  93980674.858 6  22951025.430                    22951032.832
 120054551.320 7  93549072.023 6  22845622.367                    22845629.387
 111834313.958 8  87143719.617 7  21281338.281                    21281344.887
 118166783.388 7  92078029.39044  22486378.859                    22486386.777
 111308075.336 8  86733631.777 7  21181223.469                    21181230.246
 117916564.220 7  91883025.51145  22438703.469                    22438708.355
 116101434.711 8  90468651.180 7  22093354.125                    22093363.902
 129192955.498 5 100669909.41742  24584610.633                    24584617.809
 11  8 17  3 17 30.0000000  0 10G26G18G12G15G05G30G29G02G25G21
 116087163.011 7  90457651.76545  22090659.383                    22090667.512
 128974986.809 6 100500054.54843  24543130.359                    24543138.645
 120699534.350 7  94051629.642 6  22968353.133                    22968360.223
 119961713.283 7  93476730.747 6  22827955.586                    22827962.633
 111901292.057 8  87195910.347 7  21294083.664                    21294090.309
 118234627.860 7  92130895.19745  22499289.602                    22499296.789
 111244574.534 8  86684150.671 7  21169139.602                    21169146.492
 117964166.262 7  91920117.99445  22447760.781                    22447766.469
 116152748.872 8  90508636.227 7  22103118.945                    22103128.438
 129136123.103 5 100625624.59242  24573794.391                    24573803.102
 11  8 17  3 18  0.0000000  0 10G26G18G12G15G05G30G29G02G25G21
 116016099.576 7  90402277.69545  22077136.711                    22077144.820
 128886593.101 6 100431176.40243  24526309.898                    24526317.461
 120790734.874 7  94122694.964 7  22985708.180                    22985715.316
 119869026.490 7  93404507.333 7  22810317.367                    22810324.727
 111968573.571 8  87248337.519 7  21306886.703                    21306893.656
 118302795.348 7  92184012.71145  22512261.242                    22512268.715
 111181367.959 8  86634898.807 7  21157111.766                    21157118.699
 118011867.848 7  91957288.06145  22456838.734                    22456843.621
 116204480.520 8  90548946.603 7  22112963.164                    22112972.363
 129079272.283 6 100581325.43242  24562976.281                    24562984.660
 11  8 17  3 18 30.0000000  0 10G26G18G12G15G05G30G29G02G25G21
 115945456.693 7  90347231.33845  22063694.203                    22063701.836
 128798372.801 6 100362433.41143  24509521.617                    24509529.758
 120882074.057 7  94193868.343 7  23003089.328                    23003096.984
 119776494.417 7  93332404.468 6  22792709.586                    22792716.809
 112036156.061 8  87300999.203 7  21319747.383                    21319753.246
 118371282.889 7  92237379.62745  22525294.195                    22525301.363
 111118458.124 8  86585878.166 7  21145140.258                    21145147.352
 118059669.216 7  91994535.87545  22465935.070                    22465939.531
 116256627.240 8  90589580.378 7  22122886.367                    22122895.934
 129022402.819 6 100537011.67242  24552154.852                    24552161.707
 11  8 17  3 19  0.0000000  0 10G26G18G12G15G05G30G29G02G25G21
 115875237.620 7  90292515.22045  22050331.992                    22050339.621
 128710327.015 6 100293826.37743  24492767.133                    24492774.875
 120973548.612 7  94265147.191 6  23020495.797                    23020503.496
 119684119.508 7  93260424.076 6  22775130.891                    22775137.984
 112104036.628 8  87353893.157 7  21332664.445                    21332671.031
 118440087.042 7  92290993.24045  22538387.297                    22538394.469
 111055847.035 8  86537090.323 7  21133226.211                    21133232.594
 118107570.524 7  92031861.56845  22475050.508                    22475055.051
 116309186.053 7  90630535.306 7  22132887.875                    22132897.180
 128965514.045 6 100492682.87542  24541329.445                    24541337.047
 11  8 17  3 19 30.0000000  0 10G26G18G12G15G05G30G29G02G25G21
 115805445.666 7  90238131.94845  22037050.633                    22037058.098
 128622456.817 6 100225356.17543  24476046.234                    24476054.023
 121065155.567 7  94336529.234 6  23037928.344                    23037935.504
 119591904.796 7  93188568.520 7  22757583.047                    22757590.098
 112172212.807 8  87407017.456 7  21345638.219                    21345644.402
 118509204.807 7  92344851.23245  22551539.570                    22551547.027
 110993537.074 8  86488537.123 7  21121368.688                    21121375.633
 118155572.250 7  92069265.51345  22484184.930                    22484189.934
 116362154.414 8  90671809.330 7  22142967.641                    22142976.891
 128908605.520 6 100448338.68942  24530499.938                    24530507.117
 11  8 17  3 20  0.0000000  0 10G26G18G12G15G05G30G29G02G25G21
 115736084.189 7  90184084.08145  22023851.250                    22023859.156
 128534763.425 6 100157023.74843  24459358.125                    24459366.004
 121156891.551 7  94408011.819 6  23055384.883                    23055392.258
 119499853.541 7  93116840.322 6  22740066.117                    22740073.051
 112240682.313 8  87460370.337 7  21358667.477                    21358673.945
 118578632.747 7  92398950.94345  22564751.156                    22564758.328
 110931530.274 8  86440220.151 7  21109569.406                    21109576.191
 118203674.758 7  92106747.98145  22493338.492                    22493343.723
 116415529.559 8  90713400.332 7  22153124.656                    22153134.070
 128851676.651 6 100403978.64442  24519666.617                    24519673.883
 11  8 17  3 20 30.0000000  0 10G26G18G12G15G05G30G29G02G25G21
 115667157.167 7  90130374.75045  22010735.375                    22010742.527
 128447248.261 6 100088830.17643  24442704.063                    24442713.422
 121248753.935 7  94479592.902 6  23072866.539                    23072873.844
 119407969.356 7  93045242.299 7  22722580.711                    22722588.484
 112309442.932 8  87513950.031 7  21371752.102                    21371758.633
 118648368.237 7  92453290.28244  22578021.570                    22578029.563
 110869829.599 8  86392141.727 7  21097828.047                    21097835.020
 118251878.560 7  92144309.37845  22502510.641                    22502516.406
 116469309.258 8  90755306.591 7  22163358.820                    22163368.441
 128794727.413 6 100359602.82243  24508829.461                    24508836.559
 11  8 17  3 21  0.0000000  0 10G26G18G12G15G05G30G29G02G25G21
 115598667.788 7  90077006.44545  21997702.023                    21997709.605
 128359912.803 6 100020776.70743  24426084.961                    24426093.566
 121340739.735 7  94551270.138 6  23090370.602                    23090377.750
 119316254.927 7  92973776.566 6  22705128.305                    22705135.309
 112378492.244 8  87567754.705 7  21384891.898                    21384898.328
 118718407.960 7  92507866.67944  22591349.742                    22591357.227
 110808437.328 8  86344303.594 7  21086145.469                    21086151.965
 118300184.120 7  92181950.05245  22511703.289                    22511708.699
 116523490.731 8  90797525.890 7  22173669.125                    22173678.090
 128737757.023 6 100315210.41942  24497988.375                    24497995.676
 11  8 17  3 21 30.0000000  0 10G26G18G12G15G05G30G29G02G25G21
 115530619.436 7  90023981.79345  21984752.992                    21984760.594
 128272758.073 6  99952864.05742  24409500.430                    24409508.055
 121432845.799 7  94623041.086 6  23107898.008                    23107905.316
 119224713.307 7  92902445.481 7  22687708.414                    22687715.539
 112447827.360 8  87621782.075 7  21398085.891                    21398092.266
 118788748.820 7  92562677.75644  22604734.914                    22604742.648
 110747355.827 8  86296707.640 7  21074521.813                    21074528.801
 118348591.660 7  92219670.21245  22520915.133                    22520920.488
 116578071.315 8  90840056.211 7  22184055.219                    22184064.789
 128680764.965 6 100270801.10442  24487142.797                    24487149.969
